HOT - SCOPE : Cruise & Drifter Tracks
in the School of Ocean and Earth Science and Technology at the University of Hawai'i at Manoa

Kilo Moana
GMT GMT Latitude Longitude SOG Head TWind TWind Temp Rel Bar SST
date time deg N deg W dir speed deg C Humid deg C
12-4-2021 4:32 21o 20.58' ( 21.3430) 158o 16.34' (-158.2724) 0.5 355.4 345.1 25.5 22.3 154.7 1007.9 26.3
12-4-2021 4:02 21o 20.58' ( 21.3430) 158o 16.35' (-158.2724) 0.7 353.4 355.5 26.5 22.4 154.0 1007.7 26.2
12-4-2021 3:32 21o 20.58' ( 21.3429) 158o 16.34' (-158.2724) 0.5 351.6 347.1 28.9 22.8 155.9 1007.9 26.3
12-4-2021 3:02 21o 20.58' ( 21.3429) 158o 16.35' (-158.2724) 0.6 352.3 347.1 29.6 22.9 155.2 1007.9 26.3
12-4-2021 2:32 21o 20.58' ( 21.3430) 158o 16.34' (-158.2724) 0.4 355.3 347.0 30.7 23.1 155.6 1007.9 26.3
12-4-2021 2:02 21o 20.58' ( 21.3429) 158o 16.35' (-158.2724) 0.4 346.5 339.9 26.6 23.5 155.1 1007.8 26.3
12-4-2021 1:32 21o 20.58' ( 21.3429) 158o 16.34' (-158.2724) 0.6 350.6 349.8 27.3 23.3 156.3 1008.0 26.3
12-4-2021 1:02 21o 20.58' ( 21.3429) 158o 16.35' (-158.2724) 0.5 349.1 353.4 29.6 23.3 152.4 1008.2 26.3
12-4-2021 0:32 21o 20.58' ( 21.3429) 158o 16.35' (-158.2724) 0.4 352.3 355.1 28.1 23.4 152.0 1008.2 26.3
12-4-2021 0:02 21o 20.58' ( 21.3429) 158o 16.35' (-158.2724) 0.4 345.7 335.9 31.2 22.3 152.0 1008.7 26.3
12-3-2021 23:32 21o 20.58' ( 21.3429) 158o 16.35' (-158.2724) 0.4 344.9 345.8 27.9 22.8 152.0 1009.0 26.3
12-3-2021 23:02 21o 20.58' ( 21.3429) 158o 16.35' (-158.2724) 0.4 344.3 349.3 30.0 22.5 152.1 1009.5 26.3
12-3-2021 22:32 21o 20.58' ( 21.3429) 158o 16.35' (-158.2724) 0.4 344.5 339.0 28.1 23.4 152.4 1010.1 26.3
12-3-2021 22:02 21o 20.58' ( 21.3429) 158o 16.35' (-158.2724) 0.3 338.2 349.0 21.8 23.8 151.1 1010.6 26.3
12-3-2021 21:32 21o 20.58' ( 21.3429) 158o 16.35' (-158.2724) 0.3 338.0 341.3 28.4 23.5 151.5 1010.9 26.3
12-3-2021 21:02 21o 20.58' ( 21.3429) 158o 16.35' (-158.2724) 0.4 339.8 353.9 23.7 24.6 150.9 1011.1 26.3
12-3-2021 20:32 21o 20.58' ( 21.3429) 158o 16.35' (-158.2724) 0.3 339.3 355.7 20.2 24.6 150.6 1011.2 26.3
12-3-2021 20:02 21o 20.40' ( 21.3400) 158o 16.06' (-158.2677) 7.0 303.2 354.1 22.3 24.1 150.0 1011.2 26.3
12-3-2021 19:32 21o 17.24' ( 21.2873) 158o 12.04' (-158.2007) 11.2 308.3 340.8 11.4 24.1 152.4 1011.3 26.3
12-3-2021 19:02 21o 13.89' ( 21.2315) 158o 6.95' (-158.1158) 11.8 304.9 101.6 6.4 24.9 152.3 1011.3 26.2
12-3-2021 18:32 21o 13.36' ( 21.2227) 158o 5.52' (-158.0920) 11.1 111.7 128.2 0.2 24.8 152.0 1011.5 26.2
12-3-2021 18:02 21o 16.05' ( 21.2676) 158o 10.71' (-158.1784) 11.4 130.8 335.9 19.8 25.9 151.8 1011.1 26.3
12-3-2021 17:32 21o 19.86' ( 21.3310) 158o 15.46' (-158.2577) 11.7 129.7 344.2 21.6 25.4 151.8 1011.1 26.3
12-3-2021 17:02 21o 25.11' ( 21.4185) 158o 17.81' (-158.2968) 11.8 162.1 357.0 20.3 24.8 152.0 1011.2 26.3
12-3-2021 16:32 21o 30.83' ( 21.5139) 158o 19.53' (-158.3255) 12.0 165.5 354.0 18.6 24.7 152.2 1011.0 26.3
12-3-2021 16:02 21o 36.66' ( 21.6111) 158o 19.56' (-158.3260) 11.8 194.1 347.3 17.6 24.0 152.4 1010.9 26.2
12-3-2021 15:32 21o 42.38' ( 21.7063) 158o 17.88' (-158.2980) 11.7 197.6 340.3 19.9 24.2 152.2 1010.7 26.2
12-3-2021 15:02 21o 48.00' ( 21.8000) 158o 16.26' (-158.2710) 11.5 194.7 332.8 17.0 23.7 152.5 1010.4 26.2
12-3-2021 14:32 21o 53.66' ( 21.8944) 158o 14.69' (-158.2449) 12.1 195.0 323.6 17.6 23.9 152.5 1010.4 26.0
12-3-2021 14:02 21o 59.54' ( 21.9923) 158o 13.04' (-158.2173) 12.0 194.6 295.4 16.8 24.0 152.5 1010.5 26.0
12-3-2021 13:32 22o 5.36' ( 22.0893) 158o 11.33' (-158.1888) 12.0 194.0 326.3 18.3 25.0 152.2 1010.7 25.4
12-3-2021 13:02 22o 11.12' ( 22.1854) 158o 9.73' (-158.1621) 12.1 192.9 323.0 19.6 24.8 152.2 1010.9 25.3
12-3-2021 12:32 22o 16.92' ( 22.2820) 158o 8.05' (-158.1341) 11.9 192.9 321.1 22.6 24.6 152.1 1010.8 25.3
12-3-2021 12:02 22o 22.66' ( 22.3776) 158o 6.36' (-158.1060) 11.8 194.9 322.5 22.3 24.4 152.2 1010.8 25.3
12-3-2021 11:32 22o 28.36' ( 22.4727) 158o 4.79' (-158.0798) 11.6 193.3 319.9 23.3 24.1 152.0 1010.6 25.4
12-3-2021 11:02 22o 33.79' ( 22.5631) 158o 2.91' (-158.0485) 11.3 202.2 323.1 23.1 23.9 152.0 1010.5 25.2
12-3-2021 10:32 22o 36.94' ( 22.6157) 158o 2.33' (-158.0388) 10.5 12.8 303.5 21.8 24.0 152.0 1010.5 25.2
12-3-2021 10:02 22o 31.67' ( 22.5278) 158o 3.89' (-158.0648) 11.1 14.3 292.8 25.2 24.1 152.0 1011.0 25.3
12-3-2021 9:32 22o 26.25' ( 22.4374) 158o 5.39' (-158.0898) 11.1 11.6 293.2 22.0 24.1 152.2 1011.7 25.4
12-3-2021 9:02 22o 20.74' ( 22.3457) 158o 6.83' (-158.1139) 11.3 14.6 268.2 21.2 24.2 152.9 1012.5 25.3
12-3-2021 8:32 22o 15.20' ( 22.2533) 158o 8.60' (-158.1434) 11.7 16.3 275.8 19.1 23.6 152.4 1013.2 25.4
12-3-2021 8:02 22o 9.53' ( 22.1588) 158o 10.24' (-158.1707) 11.7 14.2 264.6 20.3 23.8 151.8 1013.6 25.4
12-3-2021 7:32 22o 3.92' ( 22.0653) 158o 11.83' (-158.1972) 11.6 8.9 259.6 15.1 24.2 151.4 1013.8 25.8
12-3-2021 7:02 21o 58.30' ( 21.9716) 158o 13.33' (-158.2222) 11.6 10.1 281.5 15.6 24.1 152.3 1013.9 26.1
12-3-2021 6:32 21o 52.78' ( 21.8796) 158o 14.93' (-158.2488) 11.2 10.2 297.0 13.3 24.2 152.2 1014.0 26.2
12-3-2021 6:02 21o 47.19' ( 21.7864) 158o 16.48' (-158.2747) 11.5 8.1 291.7 11.2 24.1 151.3 1014.1 26.3
12-3-2021 5:32 21o 41.59' ( 21.6932) 158o 18.03' (-158.3005) 11.4 9.1 304.4 6.6 23.0 152.2 1013.9 26.3
12-3-2021 5:02 21o 37.37' ( 21.6228) 158o 19.35' (-158.3225) 7.3 12.4 322.2 12.6 23.3 152.5 1013.8 26.2
12-3-2021 4:32 21o 33.39' ( 21.5565) 158o 19.98' (-158.3329) 8.5 358.4 227.8 7.7 25.5 151.9 1013.5 26.4
12-3-2021 4:02 21o 29.46' ( 21.4911) 158o 19.14' (-158.3190) 7.8 342.3 271.9 11.9 25.5 151.0 1013.3 26.5
12-3-2021 3:32 21o 25.62' ( 21.4270) 158o 18.02' (-158.3003) 8.0 343.5 239.9 6.4 25.5 151.4 1013.3 26.6
12-3-2021 3:02 21o 21.76' ( 21.3627) 158o 17.10' (-158.2850) 7.7 358.8 248.2 4.6 25.8 151.0 1012.9 26.5
12-3-2021 2:32 21o 20.34' ( 21.3391) 158o 16.55' (-158.2758) 0.3 189.6 225.7 4.8 27.2 151.7 1012.7 26.5
12-3-2021 2:02 21o 20.33' ( 21.3389) 158o 16.48' (-158.2747) 0.3 189.9 215.0 3.0 27.2 151.2 1012.6 26.6
12-3-2021 1:32 21o 20.33' ( 21.3388) 158o 16.44' (-158.2740) 0.3 189.8 184.6 5.6 26.2 151.3 1012.0 26.6
12-3-2021 1:02 21o 20.32' ( 21.3386) 158o 16.41' (-158.2735) 0.2 204.7 190.5 8.2 26.2 151.8 1012.0 26.7
12-3-2021 0:32 21o 20.31' ( 21.3386) 158o 16.41' (-158.2734) 0.3 200.5 194.2 7.5 26.1 151.0 1012.8 26.5
12-3-2021 0:02 21o 20.34' ( 21.3390) 158o 16.42' (-158.2737) 0.6 194.0 198.1 6.8 26.5 151.9 1012.9 26.4
12-2-2021 23:32 21o 20.60' ( 21.3434) 158o 16.34' (-158.2723) 0.7 208.1 196.1 4.6 26.7 151.8 1013.3 26.6
12-2-2021 23:02 21o 20.59' ( 21.3432) 158o 16.29' (-158.2716) 0.3 239.7 175.9 6.2 26.7 151.9 1013.8 26.6
12-2-2021 22:32 21o 20.61' ( 21.3435) 158o 16.31' (-158.2718) 0.2 172.9 175.5 7.4 26.3 151.8 1014.2 26.4
12-2-2021 22:02 21o 20.47' ( 21.3411) 158o 16.23' (-158.2705) 7.3 309.4 168.0 5.9 25.6 152.0 1014.8 26.4
12-2-2021 21:32 21o 16.94' ( 21.2824) 158o 11.71' (-158.1952) 11.3 310.4 126.4 4.8 25.2 152.1 1015.3 26.4
12-2-2021 21:02 21o 14.81' ( 21.2469) 158o 6.17' (-158.1029) 12.3 268.3 107.0 3.6 24.7 152.1 1015.7 26.2
12-2-2021 20:32 21o 14.86' ( 21.2477) 157o 59.74' (-157.9957) 11.8 269.5 41.1 1.7 24.9 151.6 1016.1 26.2
12-2-2021 20:02 21o 14.97' ( 21.2494) 157o 54.45' (-157.9074) 7.2 268.5 132.8 1.2 25.1 152.1 1016.0 26.1
12-2-2021 19:32 21o 17.67' ( 21.2946) 157o 52.29' (-157.8715) 6.8 208.0 149.8 2.3 25.3 151.7 1015.8 25.8
12-2-2021 19:02 21o 18.91' ( 21.3151) 157o 52.65' (-157.8775) 0.0 211.0 137.8 3.1 27.0 153.8 1015.7 25.8
12-2-2021 18:32 21o 18.91' ( 21.3151) 157o 52.65' (-157.8775) 0.0 207.8 181.3 0.5 25.1 153.5 1015.7 25.8
12-2-2021 18:02 21o 18.91' ( 21.3151) 157o 52.65' (-157.8774) 0.0 207.3 29.5 2.3 24.3 152.3 1015.5 25.8
12-2-2021 17:32 21o 18.91' ( 21.3151) 157o 52.65' (-157.8774) 0.0 207.5 82.6 2.3 23.2 154.0 1015.1 25.8
12-2-2021 17:02 21o 18.91' ( 21.3151) 157o 52.65' (-157.8774) 0.0 207.5 356.7 2.1 22.7 155.1 1014.5 25.8
12-2-2021 16:32 21o 18.91' ( 21.3151) 157o 52.65' (-157.8774) 0.0 207.6 53.5 2.6 22.6 154.8 1014.4 25.8
12-2-2021 16:02 21o 18.91' ( 21.3151) 157o 52.65' (-157.8774) 0.0 207.2 61.8 1.4 22.7 154.9 1014.1 25.8
12-2-2021 15:32 21o 18.91' ( 21.3151) 157o 52.65' (-157.8774) 0.0 207.5 349.1 2.3 22.9 154.0 1014.1 25.8
12-2-2021 15:02 21o 18.91' ( 21.3151) 157o 52.65' (-157.8774) 0.0 207.9 338.2 1.2 22.7 154.8 1013.8 25.8
12-2-2021 14:32 21o 18.91' ( 21.3151) 157o 52.65' (-157.8774) 0.0 207.6 38.1 0.2 22.7 154.9 1013.8 25.8
12-2-2021 14:02 21o 18.91' ( 21.3151) 157o 52.65' (-157.8774) 0.0 207.5 293.8 0.4 23.0 154.5 1013.9 25.8
12-2-2021 13:32 21o 18.91' ( 21.3151) 157o 52.65' (-157.8774) 0.0 207.4 52.1 1.2 22.9 154.2 1014.0 25.8
12-2-2021 13:02 21o 18.91' ( 21.3151) 157o 52.65' (-157.8774) 0.0 207.5 40.7 4.0 23.4 154.0 1014.0 25.8
12-2-2021 12:32 21o 18.91' ( 21.3151) 157o 52.65' (-157.8774) 0.0 207.4 39.8 3.8 23.8 154.6 1014.2 25.8
12-2-2021 12:02 21o 18.91' ( 21.3151) 157o 52.65' (-157.8774) 0.0 207.5 12.4 0.9 23.6 154.3 1014.4 25.8
12-2-2021 11:32 21o 18.91' ( 21.3151) 157o 52.65' (-157.8774) 0.0 207.8 2.7 4.0 24.3 153.8 1014.5 25.8
12-2-2021 11:02 21o 18.91' ( 21.3151) 157o 52.65' (-157.8774) 0.0 207.8 90.4 2.6 24.5 153.8 1014.7 25.8
12-2-2021 10:32 21o 18.91' ( 21.3151) 157o 52.65' (-157.8774) 0.0 207.5 59.4 3.6 24.4 153.8 1014.8 25.8
12-2-2021 10:02 21o 18.91' ( 21.3151) 157o 52.65' (-157.8774) 0.0 207.8 62.8 3.3 24.0 154.6 1014.0 25.8
12-2-2021 9:32 21o 18.91' ( 21.3151) 157o 52.65' (-157.8775) 0.0 208.2 73.0 7.5 24.8 153.0 1015.0 25.8
12-2-2021 9:02 21o 18.91' ( 21.3151) 157o 52.65' (-157.8774) 0.0 207.9 62.2 5.8 24.9 153.7 1015.0 25.8
12-2-2021 8:32 21o 18.91' ( 21.3151) 157o 52.65' (-157.8774) 0.0 207.7 43.0 5.8 25.0 153.6 1015.3 25.8
12-2-2021 8:02 21o 18.91' ( 21.3151) 157o 52.65' (-157.8775) 0.0 208.2 73.0 7.7 24.9 153.0 1015.3 25.8
12-2-2021 7:32 21o 18.91' ( 21.3151) 157o 52.65' (-157.8774) 0.0 207.9 56.0 8.7 25.0 153.8 1015.3 25.8
12-2-2021 7:02 21o 18.91' ( 21.3151) 157o 52.65' (-157.8774) 0.0 207.5 75.9 4.7 24.8 153.6 1015.2 25.9
12-2-2021 6:32 21o 18.91' ( 21.3151) 157o 52.65' (-157.8775) 0.0 208.4 75.0 7.7 24.7 153.8 1015.2 25.9
12-2-2021 6:02 21o 18.91' ( 21.3151) 157o 52.65' (-157.8775) 0.0 208.4 68.7 8.7 24.0 153.8 1015.2 25.9
12-2-2021 5:32 21o 18.91' ( 21.3151) 157o 52.65' (-157.8774) 0.0 207.6 74.8 4.6 24.5 153.9 1014.8 25.9
12-2-2021 5:02 21o 18.91' ( 21.3151) 157o 52.65' (-157.8775) 0.0 208.6 61.5 8.1 25.0 153.8 1014.4 25.9
12-2-2021 4:32 21o 18.91' ( 21.3151) 157o 52.65' (-157.8775) 0.0 207.9 63.1 7.5 25.1 153.9 1013.8 25.9
12-2-2021 4:02 21o 18.91' ( 21.3151) 157o 52.65' (-157.8775) 0.0 208.5 57.3 7.1 25.1 154.7 1013.5 25.9
12-2-2021 3:32 21o 18.91' ( 21.3151) 157o 52.65' (-157.8775) 0.0 208.7 62.5 9.1 26.1 154.6 1013.1 25.9
12-2-2021 3:02 21o 18.91' ( 21.3151) 157o 52.65' (-157.8774) 0.0 207.1 42.3 10.0 26.6 155.0 1012.7 26.0
12-2-2021 2:32 21o 18.91' ( 21.3151) 157o 52.65' (-157.8775) 0.0 208.6 74.7 5.6 28.4 155.1 1012.3 26.0
12-2-2021 2:02 21o 18.91' ( 21.3151) 157o 52.65' (-157.8774) 0.0 207.5 55.4 9.8 27.8 155.1 1011.9 26.0
12-2-2021 1:32 21o 18.91' ( 21.3151) 157o 52.65' (-157.8775) 0.0 208.4 56.5 9.7 27.2 155.0 1011.8 26.0
12-2-2021 1:02 21o 18.91' ( 21.3151) 157o 52.65' (-157.8775) 0.0 208.4 55.8 12.5 28.2 155.6 1011.8 25.9
12-2-2021 0:32 21o 18.91' ( 21.3151) 157o 52.65' (-157.8774) 0.0 207.9 54.4 9.1 27.6 155.9 1012.1 25.9
12-2-2021 0:02 21o 18.91' ( 21.3151) 157o 52.65' (-157.8774) 0.0 208.7 49.5 9.4 27.5 155.2 1012.2 25.9
12-1-2021 23:32 21o 18.91' ( 21.3151) 157o 52.65' (-157.8774) 0.0 207.9 35.0 6.1 27.7 156.6 1012.6 25.9
12-1-2021 23:02 21o 18.91' ( 21.3151) 157o 52.65' (-157.8774) 0.0 208.3 103.8 10.9 29.4 156.0 1012.6 25.9
12-1-2021 22:32 21o 18.91' ( 21.3151) 157o 52.65' (-157.8774) 0.0 207.3 53.9 11.7 28.8 155.6 1013.2 25.9
12-1-2021 22:02 21o 18.91' ( 21.3151) 157o 52.65' (-157.8774) 0.0 207.6 59.8 5.9 30.2 155.0 1013.8 25.8
12-1-2021 21:32 21o 18.91' ( 21.3151) 157o 52.65' (-157.8774) 0.0 207.8 111.5 10.4 29.3 155.5 1014.0 25.8
12-1-2021 21:02 21o 18.91' ( 21.3151) 157o 52.65' (-157.8774) 0.0 207.6 40.9 9.2 29.2 154.9 1014.3 25.8
12-1-2021 20:32 21o 18.91' ( 21.3151) 157o 52.65' (-157.8774) 0.0 207.6 82.0 4.6 29.9 154.0 1014.5 25.8
12-1-2021 20:02 21o 18.91' ( 21.3151) 157o 52.65' (-157.8774) 0.0 208.0 105.7 6.4 29.1 154.1 1014.7 25.8
12-1-2021 19:32 21o 18.91' ( 21.3151) 157o 52.65' (-157.8774) 0.0 208.1 84.9 10.2 28.0 154.4 1014.7 25.8
12-1-2021 19:02 21o 18.91' ( 21.3151) 157o 52.65' (-157.8775) 0.0 209.4 68.5 11.6 27.3 154.1 1014.7 25.8
12-1-2021 18:32 21o 18.91' ( 21.3151) 157o 52.65' (-157.8775) 0.0 209.5 84.9 9.5 26.9 153.8 1014.5 25.8
12-1-2021 18:02 21o 18.91' ( 21.3151) 157o 52.65' (-157.8775) 0.0 209.0 82.4 6.5 26.5 153.0 1014.3 25.9
12-1-2021 17:32 21o 18.91' ( 21.3151) 157o 52.65' (-157.8774) 0.0 207.4 78.7 3.3 25.4 153.2 1014.2 25.8
12-1-2021 17:02 21o 18.91' ( 21.3151) 157o 52.65' (-157.8774) 0.0 208.3 123.2 2.3 24.6 153.7 1013.8 25.8
12-1-2021 16:32 21o 18.91' ( 21.3151) 157o 52.65' (-157.8774) 0.0 207.8 343.0 2.1 24.9 153.8 1013.6 25.8
12-1-2021 16:02 21o 18.91' ( 21.3151) 157o 52.65' (-157.8774) 0.0 207.9 72.4 4.8 25.1 154.2 1013.5 25.8
12-1-2021 15:32 21o 18.91' ( 21.3151) 157o 52.65' (-157.8774) 0.0 208.0 83.0 5.3 25.1 153.9 1013.2 25.8
12-1-2021 15:02 21o 18.91' ( 21.3151) 157o 52.65' (-157.8774) 0.0 207.9 71.5 6.0 25.0 153.9 1013.1 25.8
12-1-2021 14:32 21o 18.91' ( 21.3151) 157o 52.65' (-157.8774) 0.0 208.1 80.2 4.0 24.9 154.1 1013.0 25.8
12-1-2021 14:02 21o 18.91' ( 21.3151) 157o 52.65' (-157.8774) 0.0 208.1 84.0 4.9 25.4 153.8 1012.9 25.8
12-1-2021 13:32 21o 18.91' ( 21.3151) 157o 52.65' (-157.8774) 0.0 207.8 75.1 3.2 25.0 154.0 1012.9 25.8
12-1-2021 13:02 21o 18.91' ( 21.3151) 157o 52.65' (-157.8774) 0.0 207.8 88.3 2.1 24.8 154.0 1012.9 25.8
12-1-2021 12:32 21o 18.91' ( 21.3151) 157o 52.65' (-157.8774) 0.0 208.1 5.2 0.0 24.3 154.0 1013.0 25.8
12-1-2021 12:02 21o 18.91' ( 21.3151) 157o 52.65' (-157.8774) 0.0 208.1 56.1 1.3 24.3 154.1 1013.5 25.8
12-1-2021 11:32 21o 18.91' ( 21.3151) 157o 52.65' (-157.8774) 0.0 207.9 85.8 1.5 24.3 154.1 1013.6 25.8
12-1-2021 11:02 21o 18.91' ( 21.3151) 157o 52.65' (-157.8774) 0.0 208.0 78.9 5.8 24.6 154.2 1013.7 25.8
12-1-2021 10:32 21o 18.91' ( 21.3151) 157o 52.65' (-157.8774) 0.0 208.0 84.7 3.4 24.4 154.2 1014.2 25.8
12-1-2021 10:02 21o 18.91' ( 21.3151) 157o 52.65' (-157.8774) 0.0 207.7 13.0 4.2 24.5 154.2 1014.6 25.8
12-1-2021 9:32 21o 18.91' ( 21.3151) 157o 52.65' (-157.8774) 0.0 207.7 58.9 2.8 24.5 154.1 1014.8 25.8
12-1-2021 9:02 21o 18.91' ( 21.3151) 157o 52.65' (-157.8774) 0.0 207.8 74.4 2.6 24.6 154.2 1015.0 25.8
12-1-2021 8:32 21o 18.91' ( 21.3151) 157o 52.65' (-157.8774) 0.0 207.8 70.5 3.2 24.9 154.0 1015.0 25.8
12-1-2021 8:02 21o 18.91' ( 21.3151) 157o 52.65' (-157.8774) 0.0 207.5 44.4 5.8 24.7 154.2 1015.0 25.8
12-1-2021 7:32 21o 18.91' ( 21.3151) 157o 52.65' (-157.8774) 0.0 208.4 75.0 7.9 25.0 154.5 1015.2 25.8
12-1-2021 7:02 21o 18.91' ( 21.3151) 157o 52.65' (-157.8775) 0.0 208.0 78.5 6.9 25.1 154.0 1015.0 25.8
12-1-2021 6:32 21o 18.91' ( 21.3151) 157o 52.65' (-157.8774) 0.0 207.9 58.0 6.9 25.1 154.9 1015.1 25.8
12-1-2021 6:02 21o 18.91' ( 21.3151) 157o 52.65' (-157.8775) 0.0 208.6 76.8 7.8 25.4 155.1 1015.0 25.9
12-1-2021 5:32 21o 18.91' ( 21.3151) 157o 52.65' (-157.8774) 0.0 208.4 91.1 6.5 25.5 155.0 1014.4 25.9
12-1-2021 5:02 21o 18.91' ( 21.3151) 157o 52.65' (-157.8774) 0.0 208.3 61.9 7.3 25.4 155.0 1014.0 25.9
12-1-2021 4:32 21o 18.91' ( 21.3151) 157o 52.65' (-157.8774) 0.0 208.1 52.1 10.6 25.7 154.7 1013.5 25.9
12-1-2021 4:02 21o 18.91' ( 21.3151) 157o 52.65' (-157.8774) 0.0 207.9 53.0 6.3 26.0 154.4 1013.1 25.9
12-1-2021 3:32 21o 18.91' ( 21.3151) 157o 52.65' (-157.8774) 0.0 208.4 71.2 7.1 27.1 154.4 1012.7 25.9
12-1-2021 3:02 21o 18.91' ( 21.3151) 157o 52.65' (-157.8775) 0.0 208.0 57.1 8.3 27.5 154.6 1012.2 25.9
12-1-2021 2:32 21o 18.91' ( 21.3151) 157o 52.65' (-157.8774) 0.0 208.4 74.6 5.6 28.0 154.8 1012.1 25.9
12-1-2021 2:02 21o 18.91' ( 21.3151) 157o 52.65' (-157.8774) 0.0 208.5 55.4 10.7 27.7 154.7 1012.1 25.9
12-1-2021 1:32 21o 18.91' ( 21.3151) 157o 52.65' (-157.8774) 0.0 208.3 54.0 9.5 27.9 154.2 1011.9 25.9
12-1-2021 1:02 21o 18.91' ( 21.3151) 157o 52.65' (-157.8774) 0.0 208.3 57.8 10.2 27.1 153.0 1011.8 25.9
12-1-2021 0:32 21o 18.91' ( 21.3151) 157o 52.65' (-157.8774) 0.0 207.6 43.9 10.9 26.7 153.9 1012.1 25.9
12-1-2021 0:02 21o 18.91' ( 21.3152) 157o 52.65' (-157.8775) 0.0 208.1 44.3 9.0 26.9 153.0 1012.1 25.9
11-30-2021 23:32 21o 18.91' ( 21.3151) 157o 52.65' (-157.8774) 0.0 208.0 57.6 8.3 26.8 153.0 1012.0 25.9
11-30-2021 23:02 21o 18.91' ( 21.3151) 157o 52.65' (-157.8774) 0.0 207.6 43.0 8.5 28.2 154.6 1012.8 25.8
11-30-2021 22:32 21o 18.91' ( 21.3151) 157o 52.65' (-157.8774) 0.0 208.2 71.8 7.5 28.6 154.4 1013.1 25.8
11-30-2021 22:02 21o 18.91' ( 21.3151) 157o 52.65' (-157.8774) 0.0 208.2 59.4 12.9 27.8 154.2 1013.7 25.8
11-30-2021 21:32 21o 18.91' ( 21.3151) 157o 52.65' (-157.8774) 0.0 208.5 67.8 7.4 27.1 154.3 1014.0 25.8
11-30-2021 21:02 21o 18.91' ( 21.3151) 157o 52.65' (-157.8774) 0.0 208.1 63.1 10.7 26.7 154.0 1014.3 25.8
11-30-2021 20:32 21o 18.91' ( 21.3151) 157o 52.65' (-157.8775) 0.0 208.3 51.9 13.0 26.9 154.1 1014.5 25.8
11-30-2021 20:02 21o 18.91' ( 21.3151) 157o 52.65' (-157.8774) 0.0 208.0 57.5 11.2 26.2 154.3 1014.5 25.8
11-30-2021 19:32 21o 18.91' ( 21.3151) 157o 52.65' (-157.8775) 0.0 208.3 81.3 7.6 27.2 154.0 1014.5 25.8
11-30-2021 19:02 21o 18.91' ( 21.3151) 157o 52.65' (-157.8774) 0.0 207.3 66.2 8.3 26.0 153.8 1014.4 25.8
11-30-2021 18:32 21o 18.91' ( 21.3151) 157o 52.65' (-157.8774) 0.0 206.8 48.7 12.3 25.7 153.2 1014.8 25.8
11-30-2021 18:02 21o 18.90' ( 21.3151) 157o 52.65' (-157.8775) 0.1 200.3 64.0 5.2 25.5 153.7 1014.9 25.8
11-30-2021 17:32 21o 18.54' ( 21.3090) 157o 52.35' (-157.8726) 3.7 308.9 24.0 10.7 24.0 151.4 1014.4 25.8
11-30-2021 17:02 21o 16.16' ( 21.2693) 157o 53.04' (-157.8839) 6.9 22.7 39.0 7.7 23.6 151.6 1014.1 25.9
11-30-2021 16:32 21o 13.15' ( 21.2192) 157o 52.06' (-157.8676) 7.7 313.2 64.3 15.2 24.3 152.0 1013.7 25.8
11-30-2021 16:02 21o 11.39' ( 21.1899) 157o 49.88' (-157.8313) 6.2 269.3 56.0 17.7 24.0 151.9 1013.6 25.8
11-30-2021 15:32 21o 11.41' ( 21.1902) 157o 46.14' (-157.7690) 6.7 270.3 59.0 20.2 23.7 152.3 1013.3 25.6
11-30-2021 15:02 21o 11.45' ( 21.1908) 157o 42.57' (-157.7095) 7.0 271.0 58.2 15.9 22.5 152.9 1013.4 25.6
11-30-2021 14:32 21o 11.53' ( 21.1922) 157o 38.98' (-157.6497) 6.6 249.5 51.6 20.9 26.0 152.8 1013.6 25.7
11-30-2021 14:02 21o 12.79' ( 21.2132) 157o 35.40' (-157.5900) 7.8 249.1 45.7 18.3 26.0 151.7 1013.5 25.6
11-30-2021 13:32 21o 14.03' ( 21.2339) 157o 31.48' (-157.5247) 7.5 245.4 52.7 16.2 24.9 151.9 1013.3 25.6
11-30-2021 13:02 21o 15.73' ( 21.2621) 157o 28.01' (-157.4668) 7.5 247.7 58.5 14.8 25.6 151.8 1013.6 25.7
11-30-2021 12:32 21o 16.93' ( 21.2822) 157o 24.31' (-157.4051) 7.4 250.5 73.0 14.2 25.2 152.0 1013.7 25.6
11-30-2021 12:02 21o 18.34' ( 21.3057) 157o 20.54' (-157.3423) 7.4 248.6 67.4 15.8 24.7 151.0 1013.8 25.5
11-30-2021 11:32 21o 19.74' ( 21.3290) 157o 16.81' (-157.2801) 7.5 249.1 77.2 19.2 24.5 152.2 1014.0 25.4
11-30-2021 11:02 21o 19.88' ( 21.3314) 157o 15.35' (-157.2559) 3.6 248.6 84.2 19.1 25.4 151.7 1014.2 25.3
11-30-2021 10:32 21o 21.21' ( 21.3534) 157o 12.06' (-157.2011) 7.3 243.6 85.4 18.8 25.5 151.9 1014.3 25.3
11-30-2021 10:02 21o 22.61' ( 21.3769) 157o 8.32' (-157.1386) 7.8 242.9 83.9 21.8 26.0 151.7 1014.5 25.5
11-30-2021 9:32 21o 24.00' ( 21.4000) 157o 4.32' (-157.0720) 8.3 245.9 83.5 20.5 26.1 151.9 1014.8 25.5
11-30-2021 9:02 21o 25.37' ( 21.4228) 157o 0.15' (-157.0025) 7.8 248.0 93.1 16.4 24.9 151.8 1015.1 25.6
11-30-2021 8:32 21o 26.74' ( 21.4456) 156o 56.21' (-156.9368) 8.1 246.5 81.3 16.3 25.4 151.4 1015.2 25.6
11-30-2021 8:02 21o 28.15' ( 21.4692) 156o 52.24' (-156.8707) 7.8 246.7 69.1 13.8 24.8 151.2 1015.1 25.6
11-30-2021 7:32 21o 29.53' ( 21.4921) 156o 48.31' (-156.8052) 7.7 248.9 73.2 12.8 24.2 151.8 1015.4 25.4
11-30-2021 7:02 21o 30.72' ( 21.5120) 156o 44.26' (-156.7377) 8.0 250.7 69.8 8.0 23.1 152.4 1015.5 25.4
11-30-2021 6:32 21o 32.19' ( 21.5364) 156o 40.40' (-156.6733) 7.5 245.1 68.4 8.7 22.8 152.6 1015.6 25.4
11-30-2021 6:02 21o 33.55' ( 21.5592) 156o 36.54' (-156.6091) 7.8 245.1 64.1 8.9 24.6 152.0 1015.2 25.5
11-30-2021 5:32 21o 34.91' ( 21.5819) 156o 32.69' (-156.5448) 7.6 245.7 79.7 10.0 24.5 152.2 1014.9 25.4
11-30-2021 5:02 21o 36.21' ( 21.6035) 156o 28.86' (-156.4810) 7.6 245.7 78.2 12.2 24.8 152.0 1014.5 25.4
11-30-2021 4:32 21o 37.55' ( 21.6259) 156o 25.09' (-156.4181) 7.4 246.9 107.2 10.4 25.1 152.0 1014.3 25.4
11-30-2021 4:02 21o 38.88' ( 21.6481) 156o 21.37' (-156.3561) 7.3 244.1 85.7 11.1 25.1 152.4 1013.9 25.5
11-30-2021 3:32 21o 40.05' ( 21.6675) 156o 17.58' (-156.2929) 7.6 244.0 67.1 13.4 25.5 153.8 1013.6 25.4
11-30-2021 3:02 21o 41.50' ( 21.6917) 156o 13.80' (-156.2301) 7.5 243.3 59.7 15.6 26.6 153.8 1013.4 25.4
11-30-2021 2:32 21o 42.93' ( 21.7156) 156o 9.93' (-156.1655) 7.8 247.7 82.0 14.2 26.7 155.0 1013.4 25.4
11-30-2021 2:02 21o 44.24' ( 21.7373) 156o 5.89' (-156.0982) 8.0 248.3 72.3 15.3 26.8 154.8 1013.1 25.4
11-30-2021 1:32 21o 45.57' ( 21.7595) 156o 1.81' (-156.0302) 8.1 244.4 80.1 15.7 27.6 154.9 1013.1 25.4
11-30-2021 1:02 21o 46.94' ( 21.7824) 155o 57.77' (-155.9628) 8.3 241.9 86.9 18.3 27.1 154.6 1012.9 25.3
11-30-2021 0:32 21o 48.43' ( 21.8071) 155o 53.71' (-155.8952) 7.9 243.5 87.1 17.7 27.9 154.3 1013.2 25.4
11-30-2021 0:02 21o 49.84' ( 21.8307) 155o 49.59' (-155.8265) 8.1 243.5 80.3 18.1 27.5 154.5 1013.5 25.4
11-29-2021 23:32 21o 51.25' ( 21.8542) 155o 45.46' (-155.7577) 8.2 245.0 80.9 16.7 27.6 155.0 1013.7 25.4
11-29-2021 23:02 21o 52.67' ( 21.8778) 155o 41.21' (-155.6869) 8.6 247.9 79.7 18.1 26.9 155.0 1014.0 25.3
11-29-2021 22:32 21o 54.24' ( 21.9040) 155o 36.98' (-155.6163) 8.6 247.1 91.1 17.0 27.4 155.2 1014.4 25.3
11-29-2021 22:02 21o 55.69' ( 21.9282) 155o 32.81' (-155.5468) 8.3 247.1 76.9 18.8 26.6 155.1 1015.0 25.3
11-29-2021 21:32 21o 57.05' ( 21.9508) 155o 28.68' (-155.4781) 8.3 248.0 83.8 18.5 27.1 153.1 1015.2 25.4
11-29-2021 21:02 21o 58.45' ( 21.9742) 155o 24.50' (-155.4083) 8.2 246.5 77.6 21.4 26.2 152.4 1015.4 25.4
11-29-2021 20:32 21o 59.90' ( 21.9983) 155o 20.38' (-155.3396) 8.0 248.4 76.5 20.0 26.1 151.6 1015.6 25.3
11-29-2021 20:02 22o 1.36' ( 22.0226) 155o 16.24' (-155.2706) 8.3 245.1 81.1 22.1 25.5 151.8 1015.6 25.3
11-29-2021 19:32 22o 2.81' ( 22.0468) 155o 12.13' (-155.2022) 8.3 248.7 84.0 24.7 25.9 152.4 1015.6 25.3
11-29-2021 19:02 22o 4.29' ( 22.0716) 155o 7.99' (-155.1332) 8.0 248.8 74.3 24.4 24.6 151.9 1015.7 25.2
11-29-2021 18:32 22o 5.68' ( 22.0947) 155o 3.84' (-155.0640) 8.0 248.5 70.2 20.9 24.6 152.1 1015.5 25.2
11-29-2021 18:02 22o 7.07' ( 22.1179) 154o 59.84' (-154.9973) 7.9 250.9 67.5 19.0 24.6 152.6 1015.4 25.3
11-29-2021 17:32 22o 8.50' ( 22.1417) 154o 55.67' (-154.9279) 8.1 252.4 59.9 22.5 24.6 151.9 1015.0 25.3
11-29-2021 17:02 22o 9.93' ( 22.1655) 154o 51.37' (-154.8562) 8.6 254.8 60.6 24.6 24.2 152.2 1014.5 25.2
11-29-2021 16:32 22o 11.37' ( 22.1895) 154o 47.10' (-154.7850) 8.5 249.2 58.1 23.0 25.3 151.9 1014.4 25.3
11-29-2021 16:02 22o 12.92' ( 22.2153) 154o 42.86' (-154.7143) 8.6 253.2 55.6 25.2 24.6 152.0 1013.9 25.2
11-29-2021 15:32 22o 14.39' ( 22.2399) 154o 38.66' (-154.6444) 7.8 250.5 56.5 25.9 24.7 152.0 1013.8 25.2
11-29-2021 15:02 22o 15.72' ( 22.2620) 154o 34.45' (-154.5742) 8.8 251.0 55.2 26.0 24.9 152.0 1013.6 25.2
11-29-2021 14:32 22o 17.21' ( 22.2868) 154o 30.19' (-154.5032) 8.2 248.9 51.8 25.3 24.8 152.1 1013.4 25.3
11-29-2021 14:02 22o 18.67' ( 22.3111) 154o 26.11' (-154.4352) 8.5 249.7 40.5 23.6 23.3 151.3 1013.3 25.2
11-29-2021 13:32 22o 20.15' ( 22.3359) 154o 22.15' (-154.3691) 7.7 251.7 27.4 19.7 22.4 151.0 1013.4 25.2
11-29-2021 13:02 22o 21.49' ( 22.3582) 154o 18.27' (-154.3046) 7.7 252.0 21.7 25.6 22.5 152.8 1013.7 25.2
11-29-2021 12:32 22o 22.70' ( 22.3784) 154o 14.24' (-154.2373) 7.6 254.1 22.7 26.3 22.5 152.0 1014.2 25.2
11-29-2021 12:02 22o 24.09' ( 22.4015) 154o 10.32' (-154.1719) 7.9 250.9 29.8 22.8 22.3 152.7 1014.5 25.2
11-29-2021 11:32 22o 25.48' ( 22.4247) 154o 6.45' (-154.1074) 7.4 250.7 32.4 23.2 21.7 152.9 1015.2 25.2
11-29-2021 11:02 22o 26.79' ( 22.4465) 154o 2.68' (-154.0447) 7.7 251.3 34.9 18.9 21.4 153.1 1015.7 25.4
11-29-2021 10:32 22o 28.07' ( 22.4678) 153o 58.79' (-153.9798) 7.9 253.1 36.6 26.9 20.6 153.0 1016.4 25.3
11-29-2021 10:02 22o 29.37' ( 22.4896) 153o 54.84' (-153.9139) 7.6 253.6 28.8 23.5 22.9 153.3 1016.1 25.3
11-29-2021 9:32 22o 30.77' ( 22.5128) 153o 50.99' (-153.8498) 8.0 250.6 25.1 21.9 22.3 154.8 1016.1 25.4
11-29-2021 9:02 22o 32.23' ( 22.5372) 153o 47.16' (-153.7860) 7.7 250.4 34.9 24.7 23.1 154.3 1016.5 25.4
11-29-2021 8:32 22o 33.43' ( 22.5572) 153o 43.13' (-153.7188) 8.2 254.5 41.9 29.2 23.6 155.4 1016.8 25.4
11-29-2021 8:02 22o 34.71' ( 22.5784) 153o 39.09' (-153.6515) 7.9 251.7 29.9 26.0 24.0 155.3 1016.8 25.4
11-29-2021 7:32 22o 36.23' ( 22.6038) 153o 35.07' (-153.5845) 7.8 248.4 35.0 25.1 23.7 156.1 1016.7 25.4
11-29-2021 7:02 22o 37.70' ( 22.6283) 153o 31.17' (-153.5195) 8.3 249.0 43.9 24.0 24.2 154.6 1016.6 25.5
11-29-2021 6:32 22o 39.10' ( 22.6517) 153o 26.99' (-153.4498) 8.2 247.1 28.8 23.7 24.0 155.3 1016.5 25.4
11-29-2021 6:02 22o 40.54' ( 22.6757) 153o 22.87' (-153.3812) 8.2 250.4 26.9 22.7 23.8 153.9 1016.3 25.4
11-29-2021 5:32 22o 41.95' ( 22.6991) 153o 18.80' (-153.3134) 8.1 251.4 36.6 20.9 23.7 152.7 1016.1 25.3
11-29-2021 5:02 22o 43.30' ( 22.7216) 153o 14.56' (-153.2427) 8.5 254.8 32.5 22.8 23.6 154.0 1016.0 25.3
11-29-2021 4:32 22o 44.75' ( 22.7459) 153o 10.34' (-153.1723) 8.5 252.8 30.0 20.0 23.4 152.3 1015.8 25.3
11-29-2021 4:02 22o 46.15' ( 22.7692) 153o 6.35' (-153.1059) 7.7 255.3 35.5 20.6 23.6 152.4 1015.5 25.3
11-29-2021 3:32 22o 47.51' ( 22.7918) 153o 2.47' (-153.0412) 7.7 252.7 28.4 19.8 23.5 153.0 1015.3 25.3
11-29-2021 3:02 22o 48.79' ( 22.8132) 152o 58.65' (-152.9775) 7.7 253.9 25.4 22.4 23.6 152.9 1015.0 25.3
11-29-2021 2:32 22o 50.09' ( 22.8348) 152o 54.91' (-152.9151) 7.1 254.9 25.7 21.6 23.7 152.2 1014.9 25.3
11-29-2021 2:02 22o 51.40' ( 22.8566) 152o 51.11' (-152.8518) 7.4 254.4 31.3 17.9 23.8 152.0 1014.8 25.1
11-29-2021 1:32 22o 52.68' ( 22.8781) 152o 47.18' (-152.7864) 7.9 253.5 36.8 17.6 23.0 152.5 1014.7 25.0
11-29-2021 1:02 22o 54.06' ( 22.9009) 152o 43.22' (-152.7204) 7.9 252.5 34.9 18.6 23.4 152.6 1014.5 24.9
11-29-2021 0:32 22o 55.39' ( 22.9232) 152o 39.31' (-152.6552) 7.9 249.7 30.3 19.9 23.2 152.6 1014.6 24.9
11-29-2021 0:02 22o 56.68' ( 22.9447) 152o 35.49' (-152.5915) 7.7 249.9 34.3 18.4 23.2 152.6 1014.7 25.0
11-28-2021 23:32 22o 57.98' ( 22.9663) 152o 31.67' (-152.5279) 7.2 246.2 31.2 22.0 23.0 152.8 1014.8 25.0
11-28-2021 23:02 22o 59.30' ( 22.9884) 152o 27.88' (-152.4646) 6.9 250.4 37.5 18.0 23.3 151.5 1015.0 25.0
11-28-2021 22:32 23o 0.61' ( 23.0102) 152o 24.10' (-152.4017) 7.3 249.3 42.4 15.6 22.4 151.8 1015.6 25.0
11-28-2021 22:02 23o 1.98' ( 23.0331) 152o 20.45' (-152.3408) 7.4 246.1 41.3 19.1 21.3 153.1 1016.2 25.0
11-28-2021 21:32 23o 3.27' ( 23.0545) 152o 16.72' (-152.2787) 7.3 253.7 50.4 17.4 20.4 153.8 1016.6 24.9
11-28-2021 21:02 23o 4.40' ( 23.0733) 152o 12.80' (-152.2133) 8.1 256.8 35.7 29.3 20.7 152.2 1016.9 24.9
11-28-2021 20:32 23o 5.90' ( 23.0984) 152o 8.70' (-152.1450) 8.4 252.5 32.5 29.0 20.8 152.0 1017.0 24.5
11-28-2021 20:02 23o 7.36' ( 23.1227) 152o 4.76' (-152.0794) 8.1 250.3 29.6 27.2 19.8 153.7 1017.1 24.4
11-28-2021 19:32 23o 8.78' ( 23.1463) 152o 0.72' (-152.0121) 8.1 253.2 23.0 27.9 19.3 154.3 1017.3 24.3
11-28-2021 19:02 23o 10.18' ( 23.1697) 151o 56.47' (-151.9412) 8.0 250.4 36.2 26.7 21.7 153.3 1017.0 24.3
11-28-2021 18:32 23o 11.54' ( 23.1923) 151o 52.35' (-151.8726) 7.9 254.2 36.1 23.1 22.2 153.0 1016.6 24.3
11-28-2021 18:02 23o 12.94' ( 23.2156) 151o 48.21' (-151.8034) 8.2 252.2 35.6 24.8 21.5 153.5 1016.3 24.3
11-28-2021 17:32 23o 14.36' ( 23.2393) 151o 44.03' (-151.7339) 8.3 253.6 30.7 21.9 20.8 153.0 1016.3 24.3
11-28-2021 17:02 23o 15.87' ( 23.2645) 151o 39.76' (-151.6626) 8.3 251.7 22.8 24.2 21.4 153.4 1016.0 24.3
11-28-2021 16:32 23o 17.84' ( 23.2974) 151o 34.05' (-151.5675) 11.4 247.8 5.5 9.3 22.6 152.2 1015.5 24.4
11-28-2021 16:02 23o 19.86' ( 23.3310) 151o 28.14' (-151.4691) 11.7 250.4 3.9 4.6 22.5 152.9 1015.4 24.3
11-28-2021 15:32 23o 21.85' ( 23.3642) 151o 22.18' (-151.3697) 11.5 251.5 336.6 4.8 22.6 152.7 1015.2 24.3
11-28-2021 15:02 23o 23.86' ( 23.3976) 151o 16.30' (-151.2717) 11.5 251.8 19.3 1.6 22.5 152.7 1014.8 24.3
11-28-2021 14:32 23o 25.94' ( 23.4324) 151o 10.51' (-151.1752) 11.4 248.3 93.4 2.0 22.1 152.5 1014.8 24.3
11-28-2021 14:02 23o 27.92' ( 23.4653) 151o 4.72' (-151.0787) 11.3 250.9 169.8 0.9 21.9 152.9 1014.8 24.3
11-28-2021 13:32 23o 29.87' ( 23.4979) 150o 58.91' (-150.9818) 11.4 251.0 249.0 1.5 22.0 152.9 1014.9 24.3
11-28-2021 13:02 23o 31.81' ( 23.5301) 150o 53.09' (-150.8849) 11.3 250.6 335.4 1.5 22.1 151.8 1015.0 24.4
11-28-2021 12:32 23o 33.80' ( 23.5633) 150o 47.31' (-150.7885) 11.5 250.9 311.3 2.7 22.0 152.8 1015.3 24.4
11-28-2021 12:02 23o 35.76' ( 23.5960) 150o 41.54' (-150.6923) 11.2 249.9 314.2 4.3 22.3 153.1 1015.5 24.3
11-28-2021 11:32 23o 37.71' ( 23.6285) 150o 35.78' (-150.5963) 11.5 248.6 278.0 1.2 22.5 152.6 1015.8 24.3
11-28-2021 11:02 23o 39.78' ( 23.6629) 150o 29.89' (-150.4981) 11.8 247.9 95.4 2.2 22.5 152.6 1015.8 24.3
11-28-2021 10:32 23o 41.80' ( 23.6966) 150o 23.93' (-150.3988) 11.8 250.4 117.4 4.0 22.6 152.6 1015.8 24.4
11-28-2021 10:02 23o 43.79' ( 23.7299) 150o 17.90' (-150.2983) 11.7 248.6 128.8 2.4 22.7 152.5 1015.9 24.4
11-28-2021 9:32 23o 46.01' ( 23.7669) 150o 12.17' (-150.2029) 11.3 247.2 334.5 1.8 22.7 152.6 1016.2 24.3
11-28-2021 9:02 23o 48.05' ( 23.8008) 150o 6.44' (-150.1073) 11.3 249.3 296.5 3.0 22.8 152.4 1016.5 24.3
11-28-2021 8:32 23o 49.78' ( 23.8297) 150o 0.60' (-150.0101) 11.4 250.1 136.9 3.8 23.2 155.4 1016.6 24.4
11-28-2021 8:02 23o 51.63' ( 23.8605) 149o 54.77' (-149.9129) 11.4 250.2 132.6 7.6 23.2 155.1 1016.6 24.3
11-28-2021 7:32 23o 53.51' ( 23.8919) 149o 48.89' (-149.8148) 11.5 250.6 134.4 8.0 23.1 155.0 1016.4 24.4
11-28-2021 7:02 23o 55.54' ( 23.9257) 149o 42.99' (-149.7166) 11.6 249.5 135.9 7.2 23.0 154.9 1016.5 24.4
11-28-2021 6:32 23o 57.64' ( 23.9606) 149o 37.09' (-149.6182) 11.4 249.6 116.0 4.5 23.2 154.7 1016.7 24.3
11-28-2021 6:02 23o 59.49' ( 23.9915) 149o 31.24' (-149.5207) 11.2 251.1 135.3 4.8 23.1 154.7 1016.5 24.4
11-28-2021 5:32 24o 1.30' ( 24.0217) 149o 25.47' (-149.4245) 11.3 250.7 139.5 5.9 23.2 154.4 1016.3 24.3
11-28-2021 5:02 24o 3.28' ( 24.0547) 149o 19.68' (-149.3279) 11.4 249.1 127.3 7.0 23.2 154.5 1016.0 24.2
11-28-2021 4:32 24o 5.16' ( 24.0860) 149o 13.83' (-149.2306) 11.3 252.6 132.7 6.1 23.1 154.8 1015.7 24.2
11-28-2021 4:02 24o 6.99' ( 24.1164) 149o 8.05' (-149.1341) 11.1 252.1 136.5 6.4 23.1 155.1 1015.5 24.3
11-28-2021 3:32 24o 8.87' ( 24.1479) 149o 2.18' (-149.0364) 11.5 250.2 155.7 4.7 23.1 155.4 1015.5 24.3
11-28-2021 3:02 24o 10.83' ( 24.1804) 148o 56.42' (-148.9403) 11.1 249.8 146.7 5.2 23.2 155.0 1015.2 24.4
11-28-2021 2:32 24o 12.74' ( 24.2124) 148o 50.78' (-148.8464) 10.9 246.2 156.9 5.8 23.5 154.8 1014.7 24.4
11-28-2021 2:02 24o 14.62' ( 24.2437) 148o 45.17' (-148.7529) 11.0 246.4 164.4 4.8 23.6 154.6 1014.6 24.7
11-28-2021 1:32 24o 16.43' ( 24.2738) 148o 39.49' (-148.6581) 11.0 248.1 166.7 5.6 23.7 154.7 1014.5 24.6
11-28-2021 1:02 24o 18.27' ( 24.3045) 148o 33.76' (-148.5627) 11.0 248.7 171.8 6.6 23.8 154.1 1014.4 24.5
11-28-2021 0:32 24o 20.19' ( 24.3364) 148o 27.96' (-148.4660) 11.4 249.2 154.0 6.1 23.7 153.0 1014.7 24.4
11-28-2021 0:02 24o 22.08' ( 24.3680) 148o 22.11' (-148.3686) 11.1 250.3 153.7 6.0 23.7 153.4 1014.7 24.3
11-27-2021 23:32 24o 23.91' ( 24.3985) 148o 16.44' (-148.2739) 11.0 250.8 156.2 7.1 23.5 152.9 1014.8 24.2
11-27-2021 23:02 24o 25.80' ( 24.4300) 148o 10.66' (-148.1777) 11.3 246.6 158.4 7.3 23.5 152.4 1015.0 24.1
11-27-2021 22:32 24o 27.88' ( 24.4646) 148o 4.92' (-148.0820) 11.2 250.0 164.1 7.2 23.3 152.6 1015.2 24.2
11-27-2021 22:02 24o 29.61' ( 24.4935) 147o 59.21' (-147.9868) 10.7 249.6 158.4 8.3 23.2 152.7 1015.5 24.4
11-27-2021 21:32 24o 31.44' ( 24.5240) 147o 53.56' (-147.8927) 11.0 246.9 147.7 10.2 23.6 152.6 1015.8 24.4
11-27-2021 21:02 24o 33.54' ( 24.5591) 147o 47.94' (-147.7990) 11.2 244.9 142.9 10.7 23.7 152.8 1016.1 24.4
11-27-2021 20:32 24o 35.31' ( 24.5885) 147o 42.09' (-147.7016) 11.3 249.0 135.3 13.3 23.3 151.0 1016.3 24.5
11-27-2021 20:02 24o 37.11' ( 24.6184) 147o 36.16' (-147.6027) 11.5 250.8 129.6 12.1 22.8 151.7 1016.9 24.4
11-27-2021 19:32 24o 38.96' ( 24.6494) 147o 30.26' (-147.5044) 11.4 251.1 137.2 9.3 21.8 153.1 1017.2 24.3
11-27-2021 19:02 24o 40.96' ( 24.6826) 147o 24.38' (-147.4062) 11.5 247.7 125.7 10.9 22.5 151.7 1017.2 24.2
11-27-2021 18:32 24o 43.05' ( 24.7175) 147o 18.52' (-147.3087) 11.5 248.7 118.3 9.5 21.7 153.3 1017.3 24.2
11-27-2021 18:02 24o 44.85' ( 24.7475) 147o 12.59' (-147.2099) 11.4 250.9 172.9 3.3 21.3 152.6 1017.4 24.2
11-27-2021 17:32 24o 46.68' ( 24.7780) 147o 6.68' (-147.1114) 11.4 252.5 137.0 8.8 21.5 151.8 1017.3 24.2
11-27-2021 17:02 24o 48.56' ( 24.8094) 147o 0.83' (-147.0139) 11.1 251.3 173.3 3.0 20.7 153.5 1017.5 24.1
11-27-2021 16:32 24o 50.46' ( 24.8410) 146o 55.17' (-146.9195) 11.0 249.0 139.2 7.5 21.3 153.2 1017.4 24.1
11-27-2021 16:02 24o 52.40' ( 24.8734) 146o 49.51' (-146.8251) 10.8 249.1 127.0 7.6 21.0 153.4 1017.1 24.2
11-27-2021 15:32 24o 54.35' ( 24.9059) 146o 43.85' (-146.7308) 11.2 250.4 126.7 6.7 20.6 153.0 1016.9 24.1
11-27-2021 15:02 24o 56.05' ( 24.9342) 146o 38.11' (-146.6352) 11.0 252.2 136.3 5.3 20.2 153.1 1016.8 24.1
11-27-2021 14:32 24o 57.85' ( 24.9642) 146o 32.31' (-146.5385) 11.1 252.1 174.1 5.6 20.4 153.1 1016.8 23.8
11-27-2021 14:02 24o 59.74' ( 24.9957) 146o 26.47' (-146.4411) 11.6 250.9 136.6 12.4 20.5 153.2 1016.9 23.8
11-27-2021 13:32 25o 1.80' ( 25.0299) 146o 20.55' (-146.3425) 11.6 249.0 120.9 17.3 21.0 153.6 1017.2 23.7
11-27-2021 13:02 25o 3.74' ( 25.0623) 146o 14.63' (-146.2438) 11.3 249.0 133.8 18.1 21.4 153.2 1017.3 23.9
11-27-2021 12:32 25o 5.62' ( 25.0937) 146o 8.70' (-146.1449) 11.4 251.6 131.2 14.2 21.7 153.3 1017.3 24.1
11-27-2021 12:02 25o 7.58' ( 25.1263) 146o 2.82' (-146.0470) 11.4 249.5 97.8 14.0 21.7 153.2 1017.6 23.8
11-27-2021 11:32 25o 9.47' ( 25.1579) 145o 56.93' (-145.9488) 11.2 251.6 103.8 12.3 21.5 153.6 1017.9 23.8
11-27-2021 11:02 25o 11.29' ( 25.1882) 145o 51.18' (-145.8529) 11.0 250.0 86.1 11.3 21.6 153.0 1018.2 23.7
11-27-2021 10:32 25o 13.23' ( 25.2205) 145o 45.49' (-145.7581) 11.1 249.1 113.5 13.0 22.2 153.1 1018.4 23.5
11-27-2021 10:02 25o 15.08' ( 25.2513) 145o 39.70' (-145.6616) 11.1 252.0 89.6 17.0 22.5 153.7 1018.6 23.5
11-27-2021 9:32 25o 16.93' ( 25.2822) 145o 33.95' (-145.5658) 11.0 250.2 99.8 18.5 22.4 154.0 1018.9 23.5
11-27-2021 9:02 25o 18.92' ( 25.3153) 145o 28.36' (-145.4727) 10.8 250.0 95.4 17.2 23.0 155.2 1019.2 23.7
11-27-2021 8:32 25o 20.67' ( 25.3446) 145o 22.67' (-145.3778) 11.1 252.7 89.7 17.6 22.9 155.2 1019.3 23.6
11-27-2021 8:02 25o 22.30' ( 25.3717) 145o 16.88' (-145.2813) 11.1 253.3 101.7 19.1 22.8 155.9 1019.5 23.7
11-27-2021 7:32 25o 24.29' ( 25.4048) 145o 11.18' (-145.1863) 11.1 246.4 111.6 17.7 23.3 155.8 1019.6 23.6
11-27-2021 7:02 25o 26.20' ( 25.4367) 145o 5.47' (-145.0911) 11.0 248.8 99.6 16.3 23.1 155.9 1019.5 23.8
11-27-2021 6:32 25o 28.08' ( 25.4679) 144o 59.70' (-144.9950) 11.2 249.9 100.7 19.3 23.1 156.0 1019.6 23.9
11-27-2021 6:02 25o 29.18' ( 25.4863) 144o 53.69' (-144.8949) 11.2 257.0 105.3 14.3 23.3 155.6 1019.7 23.9
11-27-2021 5:32 25o 30.30' ( 25.5050) 144o 47.61' (-144.7936) 11.6 258.5 97.0 15.1 23.2 155.4 1019.8 23.8
11-27-2021 5:02 25o 31.52' ( 25.5253) 144o 41.43' (-144.6905) 11.3 256.5 105.0 14.8 23.2 155.5 1019.7 23.8
11-27-2021 4:32 25o 32.60' ( 25.5434) 144o 35.28' (-144.5880) 11.4 259.1 99.5 14.0 23.0 155.3 1019.6 23.8
11-27-2021 4:02 25o 33.64' ( 25.5607) 144o 29.07' (-144.4845) 11.5 260.7 93.1 14.1 22.7 155.4 1019.5 23.6
11-27-2021 3:32 25o 34.78' ( 25.5796) 144o 22.76' (-144.3794) 11.9 257.6 97.1 15.3 22.8 155.0 1019.3 23.5
11-27-2021 3:02 25o 36.08' ( 25.6014) 144o 16.38' (-144.2730) 11.8 255.4 107.9 15.5 23.0 155.5 1019.2 23.5
11-27-2021 2:32 25o 37.25' ( 25.6209) 144o 10.08' (-144.1679) 11.6 258.6 84.1 17.2 22.8 155.0 1019.1 23.5
11-27-2021 2:02 25o 38.32' ( 25.6387) 144o 3.80' (-144.0633) 11.5 259.8 91.0 16.7 23.0 155.1 1018.9 23.5
11-27-2021 1:32 25o 39.55' ( 25.6592) 143o 57.68' (-143.9613) 11.3 257.5 94.4 14.8 23.5 155.5 1018.0 23.5
11-27-2021 1:02 25o 40.64' ( 25.6774) 143o 51.52' (-143.8587) 11.4 259.5 89.4 14.6 24.5 155.2 1018.8 23.5
11-27-2021 0:32 25o 41.73' ( 25.6954) 143o 45.32' (-143.7554) 11.4 259.3 85.2 11.8 25.0 153.8 1019.0 23.5
11-27-2021 0:02 25o 42.79' ( 25.7132) 143o 39.09' (-143.6515) 11.4 259.4 86.9 10.4 25.1 154.0 1019.1 23.5
11-26-2021 23:32 25o 44.06' ( 25.7344) 143o 32.89' (-143.5481) 11.2 258.3 106.9 12.4 24.3 153.8 1019.3 23.4
11-26-2021 23:02 25o 45.18' ( 25.7531) 143o 26.73' (-143.4455) 11.4 260.4 97.9 13.7 24.4 155.7 1019.5 23.4
11-26-2021 22:32 25o 45.86' ( 25.7644) 143o 22.20' (-143.3700) 5.0 136.2 83.2 16.1 22.0 155.7 1019.5 23.4
11-26-2021 22:02 25o 46.78' ( 25.7796) 143o 24.03' (-143.4006) 4.6 49.0 83.5 16.0 22.1 155.6 1020.2 23.4
11-26-2021 21:32 25o 45.01' ( 25.7501) 143o 24.33' (-143.4056) 5.7 321.0 88.7 16.2 22.6 155.6 1020.7 23.2
11-26-2021 21:02 25o 46.08' ( 25.7679) 143o 23.28' (-143.3881) 5.2 218.3 86.5 18.6 23.1 155.8 1021.2 23.4
11-26-2021 20:32 25o 49.64' ( 25.8274) 143o 18.85' (-143.3142) 11.6 227.5 86.6 21.8 23.5 155.9 1021.6 23.3
11-26-2021 20:02 25o 53.51' ( 25.8919) 143o 14.17' (-143.2361) 11.4 227.2 88.1 18.9 23.5 156.5 1022.0 23.3
11-26-2021 19:32 25o 57.39' ( 25.9565) 143o 9.61' (-143.1601) 11.2 226.2 95.6 19.7 23.4 156.4 1022.3 23.3
11-26-2021 19:02 26o 1.18' ( 26.0196) 143o 5.02' (-143.0837) 11.3 227.0 92.5 20.7 23.0 156.2 1022.4 23.2
11-26-2021 18:32 26o 5.00' ( 26.0834) 143o 0.36' (-143.0061) 11.4 225.5 106.1 20.2 22.4 155.9 1022.8 23.3
11-26-2021 18:02 26o 8.83' ( 26.1472) 142o 55.60' (-142.9267) 11.5 228.7 75.0 17.6 22.2 156.2 1022.4 23.3
11-26-2021 17:32 26o 12.64' ( 26.2107) 142o 50.82' (-142.8471) 11.4 227.8 83.2 19.0 22.6 156.0 1022.6 23.2
11-26-2021 17:02 26o 16.47' ( 26.2745) 142o 46.16' (-142.7693) 11.3 227.8 78.4 16.1 22.5 155.8 1022.6 23.2
11-26-2021 16:32 26o 20.30' ( 26.3383) 142o 41.51' (-142.6918) 11.4 228.5 98.1 18.3 22.2 156.0 1022.3 23.2
11-26-2021 16:02 26o 24.11' ( 26.4019) 142o 36.79' (-142.6132) 11.4 227.9 90.4 15.7 22.1 156.2 1022.2 23.0
11-26-2021 15:32 26o 27.97' ( 26.4661) 142o 32.13' (-142.5355) 11.3 227.6 100.5 17.1 22.4 156.2 1022.1 23.1
11-26-2021 15:02 26o 31.70' ( 26.5283) 142o 27.36' (-142.4559) 11.3 229.9 86.6 17.7 22.4 155.7 1022.0 23.0
11-26-2021 14:32 26o 35.43' ( 26.5904) 142o 22.55' (-142.3759) 11.5 228.9 76.1 18.5 22.5 156.2 1021.9 23.1
11-26-2021 14:02 26o 37.24' ( 26.6206) 142o 20.25' (-142.3374) 5.6 133.9 80.9 15.9 21.4 156.2 1021.8 23.2
11-26-2021 13:32 26o 37.20' ( 26.6199) 142o 22.47' (-142.3746) 4.6 49.3 78.4 16.7 21.1 156.6 1022.1 23.2
11-26-2021 13:02 26o 35.59' ( 26.5931) 142o 21.28' (-142.3547) 5.8 182.0 73.2 17.3 21.5 156.2 1022.1 23.2
11-26-2021 12:32 26o 37.47' ( 26.6244) 142o 19.41' (-142.3236) 11.4 246.5 82.5 15.7 21.9 156.0 1021.9 23.1
11-26-2021 12:02 26o 39.62' ( 26.6604) 142o 13.57' (-142.2262) 11.4 246.1 83.6 16.4 21.9 157.0 1022.0 22.9
11-26-2021 11:32 26o 41.78' ( 26.6964) 142o 7.61' (-142.1268) 11.5 248.2 76.4 15.0 21.9 155.0 1022.3 22.9
11-26-2021 11:02 26o 43.92' ( 26.7321) 142o 1.60' (-142.0267) 11.6 247.1 84.7 15.8 22.1 155.7 1022.6 22.9
11-26-2021 10:32 26o 46.13' ( 26.7688) 141o 55.67' (-141.9278) 11.5 246.1 87.9 16.3 22.3 155.0 1022.8 23.0
11-26-2021 10:02 26o 48.27' ( 26.8044) 141o 49.80' (-141.8300) 11.4 249.1 87.8 14.4 22.4 155.4 1023.1 23.0
11-26-2021 9:32 26o 50.37' ( 26.8395) 141o 43.89' (-141.7315) 11.5 248.2 81.5 14.6 22.3 155.4 1023.4 22.9
11-26-2021 9:02 26o 52.60' ( 26.8767) 141o 37.93' (-141.6322) 11.5 247.1 60.3 14.2 22.2 155.2 1023.6 22.9
11-26-2021 8:32 26o 54.78' ( 26.9129) 141o 32.04' (-141.5340) 11.4 248.3 61.0 14.0 22.2 155.0 1023.8 22.8
11-26-2021 8:02 26o 56.85' ( 26.9474) 141o 26.14' (-141.4357) 11.4 249.5 68.0 15.2 22.0 155.2 1024.2 23.0
11-26-2021 7:32 26o 58.88' ( 26.9813) 141o 20.21' (-141.3369) 11.4 247.8 67.3 14.5 22.0 155.7 1024.4 22.9
11-26-2021 7:02 27o 0.70' ( 27.0116) 141o 14.47' (-141.2412) 5.9 267.3 71.8 16.6 21.8 155.5 1024.9 22.9
11-26-2021 6:32 27o 2.09' ( 27.0348) 141o 15.13' (-141.2522) 5.0 91.0 69.1 16.3 21.0 156.1 1024.8 22.9
11-26-2021 6:02 27o 0.37' ( 27.0062) 141o 16.26' (-141.2710) 5.3 320.9 80.5 16.6 21.5 155.8 1024.9 22.9
11-26-2021 5:32 27o 0.69' ( 27.0115) 141o 15.07' (-141.2512) 2.7 159.5 64.5 19.2 21.4 155.7 1024.8 22.9
11-26-2021 5:02 26o 57.14' ( 26.9523) 141o 14.58' (-141.2430) 11.1 352.2 58.8 16.0 21.3 156.0 1024.6 22.7
11-26-2021 4:32 26o 51.60' ( 26.8601) 141o 13.64' (-141.2274) 11.2 352.1 67.9 12.8 21.5 155.8 1024.5 22.4
11-26-2021 4:02 26o 46.09' ( 26.7681) 141o 12.67' (-141.2111) 11.1 351.1 63.4 13.7 21.4 155.9 1024.2 22.4
11-26-2021 3:32 26o 40.55' ( 26.6759) 141o 11.71' (-141.1951) 11.1 351.8 62.4 13.6 21.3 155.9 1023.9 22.4
11-26-2021 3:02 26o 35.05' ( 26.5842) 141o 10.76' (-141.1794) 11.2 352.7 55.2 13.7 21.0 156.0 1023.7 22.9
11-26-2021 2:32 26o 29.56' ( 26.4927) 141o 9.81' (-141.1635) 11.0 351.7 50.8 13.4 21.1 156.1 1023.3 22.8
11-26-2021 2:02 26o 24.09' ( 26.4015) 141o 8.79' (-141.1466) 11.0 351.7 51.2 13.7 21.3 156.1 1023.2 22.9
11-26-2021 1:32 26o 18.59' ( 26.3098) 141o 7.86' (-141.1310) 11.3 351.2 59.7 13.7 21.9 156.0 1023.0 23.0
11-26-2021 1:02 26o 13.04' ( 26.2173) 141o 6.93' (-141.1154) 11.2 350.9 63.3 13.9 21.8 156.0 1022.8 23.0
11-26-2021 0:32 26o 7.46' ( 26.1244) 141o 5.91' (-141.0985) 11.3 353.6 52.6 13.5 21.6 155.8 1022.6 23.0
11-26-2021 0:02 26o 1.82' ( 26.0303) 141o 5.10' (-141.0850) 11.3 351.2 57.9 13.0 21.6 156.4 1022.6 23.0
11-25-2021 23:32 25o 56.20' ( 25.9367) 141o 4.21' (-141.0702) 11.3 353.9 52.4 11.4 21.4 155.7 1022.7 22.9
11-25-2021 23:02 25o 50.60' ( 25.8434) 141o 3.51' (-141.0586) 11.3 343.4 50.1 12.7 22.0 155.9 1022.5 22.9
11-25-2021 22:32 25o 50.12' ( 25.8354) 141o 2.06' (-141.0343) 5.5 136.4 61.8 13.0 21.9 155.7 1022.7 22.9
11-25-2021 22:02 25o 49.93' ( 25.8322) 141o 4.02' (-141.0670) 4.8 47.8 60.6 10.7 21.5 155.9 1023.2 23.0
11-25-2021 21:32 25o 48.26' ( 25.8044) 141o 2.88' (-141.0481) 5.5 179.9 75.2 13.4 22.4 155.8 1023.3 22.9
11-25-2021 21:02 25o 49.53' ( 25.8255) 141o 2.88' (-141.0480) 0.3 72.1 66.1 11.4 21.2 155.0 1023.8 22.9
11-25-2021 20:32 25o 49.53' ( 25.8255) 141o 2.88' (-141.0480) 0.4 74.2 67.1 13.3 21.4 156.0 1024.4 22.9
11-25-2021 20:02 25o 49.53' ( 25.8255) 141o 2.88' (-141.0480) 0.3 74.9 72.9 13.0 21.3 156.5 1024.6 22.9
11-25-2021 19:32 25o 49.53' ( 25.8255) 141o 2.88' (-141.0480) 0.3 73.7 64.7 13.7 21.5 156.2 1024.8 22.9
11-25-2021 19:02 25o 49.53' ( 25.8255) 141o 2.88' (-141.0480) 0.3 74.4 68.0 15.3 21.4 155.8 1025.0 22.9
11-25-2021 18:32 25o 50.58' ( 25.8430) 141o 1.14' (-141.0190) 11.7 232.8 76.4 17.0 22.9 155.0 1025.2 22.9
11-25-2021 18:02 25o 54.13' ( 25.9022) 140o 55.94' (-140.9323) 11.8 232.1 80.9 17.9 22.6 154.9 1025.2 22.9
11-25-2021 17:32 25o 57.71' ( 25.9619) 140o 50.75' (-140.8458) 11.8 231.9 71.7 16.9 23.0 155.5 1024.7 22.9
11-25-2021 17:02 26o 1.33' ( 26.0222) 140o 45.52' (-140.7586) 11.8 232.7 82.3 14.0 22.9 155.6 1024.4 22.9
11-25-2021 16:32 26o 4.86' ( 26.0811) 140o 40.30' (-140.6717) 11.7 232.4 73.9 15.2 22.3 155.9 1024.2 22.9
11-25-2021 16:02 26o 8.41' ( 26.1402) 140o 35.21' (-140.5868) 11.6 231.8 77.2 13.7 21.6 155.7 1024.3 22.8
11-25-2021 15:32 26o 11.87' ( 26.1979) 140o 29.99' (-140.4999) 11.7 235.7 79.7 10.6 21.3 155.0 1024.4 22.8
11-25-2021 15:02 26o 15.35' ( 26.2559) 140o 24.75' (-140.4125) 11.8 231.6 69.6 11.1 21.4 155.4 1024.2 22.8
11-25-2021 14:32 26o 18.96' ( 26.3160) 140o 19.54' (-140.3257) 11.8 235.0 81.7 11.4 21.4 155.6 1024.0 22.7
11-25-2021 14:02 26o 22.36' ( 26.3727) 140o 14.21' (-140.2368) 11.6 235.5 86.6 12.0 21.4 155.0 1024.0 22.6
11-25-2021 13:32 26o 25.73' ( 26.4288) 140o 8.87' (-140.1478) 11.7 233.6 71.1 14.1 21.4 155.0 1023.7 22.5
11-25-2021 13:02 26o 28.70' ( 26.4783) 140o 3.29' (-140.0548) 11.6 240.6 78.0 12.4 21.0 154.9 1024.0 22.4
11-25-2021 12:32 26o 30.44' ( 26.5074) 139o 58.65' (-139.9776) 5.1 239.9 59.9 13.4 20.8 154.0 1024.0 22.5
11-25-2021 12:02 26o 31.61' ( 26.5268) 140o 0.50' (-140.0083) 5.2 48.6 62.2 12.2 20.4 154.0 1024.0 22.5
11-25-2021 11:32 26o 29.63' ( 26.4938) 140o 0.69' (-140.0115) 5.7 320.5 74.8 11.9 21.1 153.6 1024.4 22.5
11-25-2021 11:02 26o 30.58' ( 26.5097) 140o 0.13' (-140.0021) 0.3 88.1 75.3 10.1 20.0 153.2 1024.4 22.5
11-25-2021 10:32 26o 30.57' ( 26.5095) 140o 0.12' (-140.0020) 0.3 100.5 79.9 9.4 20.5 153.4 1024.8 22.5
11-25-2021 10:02 26o 30.57' ( 26.5095) 140o 0.12' (-140.0020) 0.2 89.8 74.2 10.2 20.5 153.3 1024.9 22.5
11-25-2021 9:32 26o 30.57' ( 26.5096) 140o 0.12' (-140.0021) 0.4 94.4 82.0 10.1 20.7 153.0 1025.1 22.5
11-25-2021 9:02 26o 30.61' ( 26.5102) 140o 0.14' (-140.0023) 2.8 141.7 65.7 11.6 21.6 153.3 1025.3 22.5
11-25-2021 8:32 26o 32.94' ( 26.5490) 139o 54.97' (-139.9162) 11.6 257.3 61.5 12.4 21.2 153.4 1025.6 22.7
11-25-2021 8:02 26o 34.19' ( 26.5699) 139o 48.63' (-139.8104) 11.7 258.4 55.2 12.4 21.3 153.2 1025.6 22.6
11-25-2021 7:32 26o 35.42' ( 26.5903) 139o 42.22' (-139.7037) 11.6 257.7 82.8 10.6 20.6 153.4 1025.6 22.5
11-25-2021 7:02 26o 36.69' ( 26.6115) 139o 35.91' (-139.5985) 11.7 258.8 80.7 10.2 20.6 153.4 1025.6 22.6
11-25-2021 6:32 26o 37.79' ( 26.6299) 139o 29.54' (-139.4924) 11.8 259.2 74.8 10.1 20.4 153.4 1025.6 22.4
11-25-2021 6:02 26o 39.00' ( 26.6500) 139o 23.11' (-139.3852) 11.9 258.8 68.8 12.8 20.0 153.1 1025.4 22.3
11-25-2021 5:32 26o 40.41' ( 26.6736) 139o 16.70' (-139.2783) 11.8 259.0 76.2 11.6 20.3 153.6 1025.5 22.3
11-25-2021 5:02 26o 41.59' ( 26.6932) 139o 10.30' (-139.1717) 11.7 258.6 73.3 12.6 20.6 153.5 1025.1 22.3
11-25-2021 4:32 26o 42.88' ( 26.7147) 139o 3.96' (-139.0660) 11.7 257.2 69.3 13.5 20.8 152.7 1025.0 22.1
11-25-2021 4:02 26o 44.15' ( 26.7358) 138o 57.62' (-138.9604) 11.6 257.2 68.9 14.4 20.7 153.5 1024.8 22.0
11-25-2021 3:32 26o 45.39' ( 26.7565) 138o 51.32' (-138.8553) 11.6 255.2 72.0 14.7 20.7 153.1 1024.5 22.1
11-25-2021 3:02 26o 48.13' ( 26.8022) 138o 45.89' (-138.7648) 11.6 219.5 72.7 14.7 20.9 153.3 1024.2 22.0
11-25-2021 2:32 26o 52.41' ( 26.8735) 138o 41.55' (-138.6924) 11.7 220.9 47.8 8.3 20.5 153.5 1024.2 22.0
11-25-2021 2:02 26o 54.59' ( 26.9099) 138o 39.55' (-138.6592) 5.8 137.1 44.1 8.4 20.8 153.9 1024.2 22.1
11-25-2021 1:32 26o 54.30' ( 26.9050) 138o 41.82' (-138.6971) 4.8 49.0 59.7 6.9 20.9 154.9 1024.0 22.1
11-25-2021 1:02 26o 53.34' ( 26.8890) 138o 40.47' (-138.6745) 5.8 177.9 74.1 6.1 21.4 155.2 1023.8 22.1
11-25-2021 0:32 26o 54.06' ( 26.9010) 138o 40.49' (-138.6748) 0.4 79.8 76.8 6.1 20.7 155.4 1023.5 22.1
11-25-2021 0:02 26o 54.08' ( 26.9013) 138o 40.49' (-138.6748) 0.3 79.3 86.0 6.4 20.6 155.5 1023.2 22.1
11-24-2021 23:32 26o 54.08' ( 26.9014) 138o 40.49' (-138.6748) 0.3 80.8 86.9 7.9 21.0 155.3 1023.3 22.1
11-24-2021 23:02 26o 54.07' ( 26.9011) 138o 40.49' (-138.6748) 0.4 75.4 97.4 9.3 21.1 155.0 1023.5 22.1
11-24-2021 22:32 26o 56.16' ( 26.9360) 138o 40.45' (-138.6741) 11.5 180.8 101.9 7.4 20.5 154.2 1023.4 22.2
11-24-2021 22:02 27o 1.87' ( 27.0312) 138o 40.11' (-138.6686) 11.4 185.4 118.9 7.6 20.3 153.0 1023.7 22.0
11-24-2021 21:32 27o 7.43' ( 27.1238) 138o 38.99' (-138.6498) 11.4 197.6 94.7 7.8 20.7 153.4 1024.4 22.1
11-24-2021 21:02 27o 12.84' ( 27.2140) 138o 36.98' (-138.6163) 11.4 197.5 117.0 4.0 20.5 153.6 1024.8 22.0
11-24-2021 20:32 27o 18.28' ( 27.3047) 138o 34.92' (-138.5820) 11.5 196.9 100.4 9.3 21.0 153.4 1025.3 22.0
11-24-2021 20:02 27o 23.70' ( 27.3951) 138o 32.87' (-138.5479) 11.3 197.1 107.4 10.2 20.0 152.0 1025.7 22.0
11-24-2021 19:32 27o 29.11' ( 27.4851) 138o 30.87' (-138.5145) 11.3 197.6 104.6 5.1 19.5 153.9 1026.0 22.1
11-24-2021 19:02 27o 34.52' ( 27.5754) 138o 28.91' (-138.4818) 11.4 197.1 105.8 6.9 19.0 154.0 1026.1 22.0
11-24-2021 18:32 27o 39.90' ( 27.6650) 138o 26.85' (-138.4475) 11.4 198.4 88.5 8.6 19.4 153.7 1026.3 22.0
11-24-2021 18:02 27o 45.31' ( 27.7552) 138o 24.67' (-138.4112) 11.4 198.1 91.8 5.3 18.9 153.8 1026.4 21.9
11-24-2021 17:32 27o 50.75' ( 27.8459) 138o 22.55' (-138.3759) 11.6 198.2 86.2 10.5 18.8 153.5 1025.9 21.9
11-24-2021 17:02 27o 56.02' ( 27.9337) 138o 20.58' (-138.3430) 8.8 197.8 96.7 9.8 19.2 153.0 1025.9 21.9
11-24-2021 16:32 27o 58.37' ( 27.9729) 138o 19.78' (-138.3296) 5.6 135.2 101.4 8.3 19.1 153.0 1025.6 21.9
11-24-2021 16:02 27o 58.05' ( 27.9674) 138o 21.98' (-138.3663) 5.2 48.7 78.7 9.3 19.3 153.0 1025.0 21.9
11-24-2021 15:32 27o 56.75' ( 27.9458) 138o 20.65' (-138.3441) 5.5 180.1 89.8 9.5 19.2 153.9 1024.9 21.9
11-24-2021 15:02 27o 57.77' ( 27.9629) 138o 20.67' (-138.3445) 0.3 84.7 85.4 16.4 18.9 154.0 1024.7 21.9
11-24-2021 14:32 27o 57.77' ( 27.9628) 138o 20.67' (-138.3445) 0.4 85.4 114.5 8.9 18.9 154.0 1024.6 21.9
11-24-2021 14:02 27o 57.75' ( 27.9626) 138o 20.67' (-138.3445) 0.4 83.6 120.2 10.7 19.3 152.0 1024.6 21.9
11-24-2021 13:32 27o 57.71' ( 27.9618) 138o 20.67' (-138.3445) 0.3 80.1 76.1 9.1 19.7 153.0 1024.6 21.9
11-24-2021 13:02 27o 58.65' ( 27.9774) 138o 18.09' (-138.3015) 11.5 210.0 94.2 10.2 19.7 153.5 1024.3 21.9
11-24-2021 12:32 28o 4.19' ( 28.0698) 138o 16.33' (-138.2721) 11.6 191.4 87.3 9.4 19.4 152.4 1024.3 22.0
11-24-2021 12:02 28o 9.71' ( 28.1619) 138o 14.80' (-138.2467) 11.3 193.8 104.8 8.4 19.3 152.6 1024.3 22.0
11-24-2021 11:32 28o 15.32' ( 28.2553) 138o 13.31' (-138.2218) 11.5 193.7 78.0 13.2 19.7 153.4 1024.5 22.0
11-24-2021 11:02 28o 20.84' ( 28.3473) 138o 11.49' (-138.1915) 11.4 195.5 83.9 11.3 19.6 152.6 1024.6 22.0
11-24-2021 10:32 28o 26.35' ( 28.4391) 138o 9.71' (-138.1618) 11.3 195.1 87.6 9.4 19.2 152.8 1024.8 22.0
11-24-2021 9:32 28o 37.20' ( 28.6200) 138o 6.24' (-138.1041) 11.2 195.1 69.4 13.1 19.9 153.0 1025.2 22.0
11-24-2021 9:02 28o 42.66' ( 28.7110) 138o 4.46' (-138.0743) 11.4 196.2 70.4 12.8 19.6 153.6 1025.4 21.9
11-24-2021 8:32 28o 48.14' ( 28.8024) 138o 2.63' (-138.0439) 11.5 195.4 62.4 12.2 19.6 153.7 1025.7 22.0
11-24-2021 8:02 28o 53.71' ( 28.8952) 138o 0.81' (-138.0135) 11.6 195.8 51.4 13.0 19.7 154.0 1025.9 21.6
11-24-2021 7:32 28o 59.31' ( 28.9885) 137o 59.06' (-137.9843) 11.6 195.6 66.7 12.3 19.6 153.8 1026.0 21.8
11-24-2021 7:02 29o 4.86' ( 29.0810) 137o 57.31' (-137.9551) 11.4 195.9 61.1 8.8 19.8 154.9 1026.2 21.5
11-24-2021 6:32 29o 9.47' ( 29.1578) 137o 56.07' (-137.9345) 5.4 185.2 69.9 11.9 20.0 155.4 1026.2 21.4
11-24-2021 6:02 29o 10.72' ( 29.1787) 137o 55.95' (-137.9325) 5.7 131.4 57.9 8.8 19.6 155.1 1026.0 21.4
11-24-2021 5:32 29o 9.66' ( 29.1610) 137o 58.23' (-137.9704) 5.5 344.8 87.8 8.2 19.8 154.6 1026.0 21.4
11-24-2021 5:02 29o 8.64' ( 29.1439) 137o 56.50' (-137.9416) 5.9 175.9 86.3 9.6 19.6 154.6 1025.9 21.4
11-24-2021 4:32 29o 9.33' ( 29.1555) 137o 56.64' (-137.9441) 0.3 41.9 75.0 10.5 19.0 154.6 1025.9 21.4
11-24-2021 4:02 29o 9.33' ( 29.1555) 137o 56.65' (-137.9441) 0.3 40.7 91.9 7.4 19.5 154.4 1025.7 21.4
11-24-2021 3:32 29o 9.33' ( 29.1555) 137o 56.64' (-137.9440) 0.4 70.5 92.3 7.2 19.6 155.6 1025.5 21.4
11-24-2021 3:02 29o 9.48' ( 29.1581) 137o 56.52' (-137.9420) 0.5 127.4 30.4 10.7 19.7 156.3 1025.3 21.4
11-24-2021 2:32 29o 11.70' ( 29.1950) 137o 58.22' (-137.9703) 11.3 153.4 56.4 8.8 19.2 157.6 1024.8 21.4
11-24-2021 2:02 29o 9.37' ( 29.1561) 138o 3.73' (-138.0621) 11.0 56.9 55.0 8.0 19.2 157.2 1025.1 21.9
11-24-2021 1:32 29o 6.75' ( 29.1126) 138o 9.37' (-138.1562) 11.2 60.9 52.2 9.2 19.8 156.1 1025.0 21.9
11-24-2021 1:02 29o 4.03' ( 29.0672) 138o 14.98' (-138.2496) 11.3 59.8 38.3 8.9 19.6 156.2 1024.8 22.0
11-24-2021 0:32 29o 1.31' ( 29.0218) 138o 20.59' (-138.3431) 11.3 62.1 59.3 10.5 19.9 155.5 1024.8 22.1
11-24-2021 0:02 28o 58.62' ( 28.9770) 138o 26.27' (-138.4379) 11.3 62.5 74.2 11.6 20.0 155.0 1024.7 22.1
11-23-2021 23:32 28o 55.84' ( 28.9306) 138o 31.96' (-138.5327) 11.5 62.9 69.0 9.1 19.9 155.0 1024.8 22.0
11-23-2021 23:02 28o 53.16' ( 28.8861) 138o 37.61' (-138.6268) 11.2 59.0 69.9 10.7 19.7 155.6 1024.8 22.0
11-23-2021 22:32 28o 50.37' ( 28.8395) 138o 43.20' (-138.7200) 11.3 61.3 79.9 11.0 19.8 155.7 1025.0 22.1
11-23-2021 22:02 28o 47.46' ( 28.7909) 138o 48.79' (-138.8131) 11.4 60.0 82.3 12.5 20.0 155.3 1025.3 22.2
11-23-2021 21:32 28o 44.49' ( 28.7414) 138o 54.35' (-138.9059) 11.3 58.6 79.5 13.3 19.9 154.9 1025.6 22.2
11-23-2021 21:02 28o 41.85' ( 28.6975) 138o 59.16' (-138.9861) 5.8 59.2 80.5 13.6 20.1 155.0 1026.1 22.2
11-23-2021 20:32 28o 41.94' ( 28.6989) 138o 59.71' (-138.9952) 5.4 141.5 69.8 11.4 20.4 155.2 1026.5 22.2
11-23-2021 20:02 28o 41.69' ( 28.6948) 139o 1.83' (-139.0305) 4.5 50.1 62.4 15.1 20.1 155.6 1026.9 22.1
11-23-2021 19:32 28o 40.07' ( 28.6678) 139o 0.59' (-139.0098) 5.0 178.4 85.7 12.6 21.1 155.4 1027.1 22.1
11-23-2021 19:02 28o 41.22' ( 28.6871) 139o 0.71' (-139.0119) 0.2 105.2 77.6 10.8 20.5 155.5 1027.3 22.2
11-23-2021 18:32 28o 41.22' ( 28.6871) 139o 0.71' (-139.0119) 0.3 112.3 74.7 12.8 20.8 155.7 1027.1 22.2
11-23-2021 18:02 28o 41.22' ( 28.6871) 139o 0.72' (-139.0119) 0.3 113.2 74.1 12.7 20.5 155.0 1026.9 22.2
11-23-2021 17:32 28o 41.24' ( 28.6874) 139o 0.70' (-139.0116) 0.4 133.1 72.5 12.9 20.7 155.5 1026.7 22.2
11-23-2021 17:02 28o 41.88' ( 28.6980) 139o 0.71' (-139.0118) 9.6 180.6 57.1 12.0 20.1 155.4 1026.5 22.1
11-23-2021 16:32 28o 46.11' ( 28.7685) 139o 2.92' (-139.0486) 9.8 150.7 63.7 14.0 20.1 156.0 1026.2 21.9
11-23-2021 16:02 28o 50.41' ( 28.8401) 139o 5.79' (-139.0965) 10.1 148.6 48.8 11.9 20.0 157.6 1026.1 22.0
11-23-2021 15:32 28o 54.75' ( 28.9124) 139o 8.69' (-139.1449) 10.0 149.2 85.0 9.9 19.0 156.2 1025.9 22.0
11-23-2021 15:02 28o 59.12' ( 28.9853) 139o 11.51' (-139.1919) 10.1 150.4 64.8 11.1 19.6 156.4 1025.6 22.0
11-23-2021 14:32 29o 3.53' ( 29.0588) 139o 14.21' (-139.2368) 10.0 150.5 81.9 8.7 19.9 156.7 1025.2 22.0
11-23-2021 14:02 29o 7.83' ( 29.1304) 139o 17.16' (-139.2861) 10.0 148.7 68.0 12.1 19.6 157.4 1025.0 22.0
11-23-2021 13:32 29o 12.10' ( 29.2017) 139o 20.14' (-139.3356) 10.1 148.1 69.6 11.4 19.6 156.1 1024.9 22.1
11-23-2021 13:02 29o 16.55' ( 29.2758) 139o 23.02' (-139.3836) 10.7 149.5 59.3 8.7 19.7 155.4 1025.0 22.1
11-23-2021 12:32 29o 21.24' ( 29.3540) 139o 26.15' (-139.4358) 10.9 150.5 64.9 9.5 19.7 153.6 1024.9 22.1
11-23-2021 12:02 29o 25.96' ( 29.4327) 139o 29.23' (-139.4872) 10.8 0.0 65.7 11.7 19.5 153.0 1024.9 22.1
11-23-2021 11:32 29o 30.67' ( 29.5111) 139o 32.30' (-139.5384) 68.3 150.5 290.2 138.0 19.1 153.9 1025.0 22.0
11-23-2021 11:02 29o 35.64' ( 29.5940) 139o 35.13' (-139.5854) 11.2 155.8 77.3 11.8 19.0 152.6 1025.0 21.6
11-23-2021 10:32 29o 40.69' ( 29.6782) 139o 36.77' (-139.6128) 8.8 170.1 75.3 9.1 19.3 152.5 1025.4 21.6
11-23-2021 10:02 29o 42.68' ( 29.7113) 139o 37.24' (-139.6206) 5.1 137.0 84.9 8.9 19.5 153.2 1025.6 21.6
11-23-2021 9:32 29o 41.69' ( 29.6948) 139o 39.31' (-139.6551) 5.2 315.2 102.7 8.3 19.8 153.8 1025.7 21.7
11-23-2021 9:02 29o 40.56' ( 29.6760) 139o 37.74' (-139.6290) 5.2 180.4 93.4 9.5 19.5 154.0 1025.7 21.6
11-23-2021 8:32 29o 41.62' ( 29.6937) 139o 37.73' (-139.6288) 0.2 107.5 100.8 7.9 19.2 153.9 1025.8 21.6
11-23-2021 8:02 29o 41.62' ( 29.6937) 139o 37.73' (-139.6288) 0.3 109.4 103.1 7.7 18.9 154.1 1025.9 21.6
11-23-2021 7:32 29o 41.62' ( 29.6937) 139o 37.73' (-139.6288) 0.3 107.6 107.4 7.9 19.2 153.9 1026.0 21.6
11-23-2021 7:02 29o 41.62' ( 29.6937) 139o 37.73' (-139.6288) 0.3 107.5 105.8 8.0 19.0 153.8 1026.0 21.6
11-23-2021 6:32 29o 40.17' ( 29.6696) 139o 37.91' (-139.6318) 11.6 19.2 89.3 7.3 18.8 154.1 1025.9 21.6
11-23-2021 6:02 29o 35.24' ( 29.5873) 139o 41.33' (-139.6889) 11.4 31.1 85.4 9.4 18.9 154.0 1025.7 21.8
11-23-2021 5:32 29o 30.31' ( 29.5052) 139o 44.69' (-139.7449) 11.3 30.1 80.2 10.0 19.5 153.8 1025.4 22.0
11-23-2021 5:02 29o 25.44' ( 29.4240) 139o 48.05' (-139.8008) 11.7 30.3 145.1 5.1 19.5 153.8 1025.3 21.9
11-23-2021 4:32 29o 20.42' ( 29.3403) 139o 51.49' (-139.8582) 11.6 32.3 116.4 4.3 19.7 154.1 1025.0 21.9
11-23-2021 4:02 29o 15.25' ( 29.2541) 139o 54.51' (-139.9086) 11.6 24.5 160.7 3.1 19.5 153.7 1024.7 22.1
11-23-2021 3:32 29o 10.01' ( 29.1668) 139o 57.35' (-139.9558) 11.7 25.2 175.9 4.0 20.3 153.5 1024.2 22.0
11-23-2021 3:02 29o 4.67' ( 29.0779) 140o 0.15' (-140.0025) 11.6 24.9 157.7 5.0 20.1 153.6 1023.8 22.1
11-23-2021 2:32 28o 59.39' ( 28.9899) 140o 3.03' (-140.0505) 11.5 25.5 127.2 6.7 20.5 153.4 1023.5 22.2
11-23-2021 2:02 28o 57.48' ( 28.9580) 140o 3.70' (-140.0616) 5.7 137.5 142.1 4.9 20.6 153.7 1023.5 22.3
11-23-2021 1:32 28o 57.61' ( 28.9601) 140o 6.01' (-140.1002) 5.7 50.7 130.5 6.7 21.0 153.7 1023.4 22.5
11-23-2021 1:02 28o 55.83' ( 28.9305) 140o 4.86' (-140.0810) 5.7 180.8 135.8 6.6 20.5 153.6 1023.3 22.4
11-23-2021 0:32 28o 57.12' ( 28.9520) 140o 4.88' (-140.0813) 0.2 94.0 124.3 7.6 21.0 153.7 1023.3 22.3
11-23-2021 0:02 28o 57.11' ( 28.9519) 140o 4.88' (-140.0813) 0.3 78.3 104.8 8.2 22.7 153.4 1023.2 22.4
11-22-2021 23:32 28o 57.11' ( 28.9518) 140o 4.87' (-140.0812) 0.3 73.8 117.2 5.5 22.3 152.2 1023.3 22.4
11-22-2021 23:02 28o 57.11' ( 28.9518) 140o 4.87' (-140.0812) 0.3 79.3 120.2 7.7 21.9 152.7 1023.2 22.3
11-22-2021 22:32 28o 56.99' ( 28.9499) 140o 4.99' (-140.0831) 8.1 30.5 114.4 6.0 21.4 152.0 1023.1 22.4
11-22-2021 22:02 28o 51.85' ( 28.8642) 140o 5.24' (-140.0873) 11.5 338.6 94.4 5.3 21.2 152.9 1023.4 22.4
11-22-2021 21:32 28o 46.49' ( 28.7749) 140o 2.80' (-140.0467) 11.6 338.4 81.1 8.9 21.4 152.3 1023.9 22.2
11-22-2021 21:02 28o 41.08' ( 28.6846) 140o 0.36' (-140.0060) 11.8 337.8 62.1 6.5 21.5 152.2 1024.4 22.2
11-22-2021 20:32 28o 35.73' ( 28.5955) 139o 57.85' (-139.9641) 11.4 338.1 67.6 7.0 21.7 152.3 1024.9 22.1
11-22-2021 20:02 28o 30.43' ( 28.5071) 139o 55.26' (-139.9210) 11.3 338.7 53.4 7.6 21.5 152.1 1025.2 22.2
11-22-2021 19:32 28o 25.19' ( 28.4198) 139o 53.00' (-139.8834) 11.2 0.4 43.1 10.0 20.9 152.1 1025.3 22.2
11-22-2021 19:02 28o 19.78' ( 28.3297) 139o 54.89' (-139.9148) 11.4 20.6 39.4 8.9 20.9 152.0 1025.2 22.4
11-22-2021 18:32 28o 14.24' ( 28.2373) 139o 53.61' (-139.8934) 11.5 346.0 29.7 9.6 20.7 152.1 1025.2 22.4
11-22-2021 18:02 28o 8.67' ( 28.1444) 139o 51.99' (-139.8664) 11.4 346.1 18.9 7.8 20.9 152.1 1025.0 22.4
11-22-2021 17:32 28o 3.14' ( 28.0524) 139o 50.40' (-139.8401) 11.4 345.5 28.0 10.0 20.9 152.1 1024.8 22.4
11-22-2021 17:02 27o 57.60' ( 27.9600) 139o 48.69' (-139.8115) 11.6 345.9 38.3 9.0 20.9 152.2 1024.4 22.5
11-22-2021 16:32 27o 51.99' ( 27.8665) 139o 47.14' (-139.7857) 11.3 348.9 24.6 9.9 20.8 152.1 1024.3 22.5
11-22-2021 16:02 27o 51.08' ( 27.8513) 139o 44.85' (-139.7475) 11.4 112.7 33.9 8.0 20.2 152.9 1024.2 22.5
11-22-2021 15:32 27o 53.21' ( 27.8869) 139o 50.85' (-139.8475) 11.5 111.4 32.5 4.8 19.7 153.6 1023.9 22.4
11-22-2021 15:02 27o 55.54' ( 27.9256) 139o 56.81' (-139.9469) 11.5 112.8 20.2 10.9 19.5 154.0 1023.8 22.5
11-22-2021 14:32 27o 57.83' ( 27.9639) 140o 2.73' (-140.0454) 11.5 112.2 30.4 11.7 20.1 153.0 1023.6 22.5
11-22-2021 14:02 28o 0.09' ( 28.0015) 140o 8.74' (-140.1457) 11.6 112.0 13.8 10.1 20.3 152.3 1023.6 22.4
11-22-2021 13:32 28o 2.27' ( 28.0378) 140o 14.82' (-140.2471) 11.6 111.9 16.1 11.6 20.0 152.0 1023.5 22.3
11-22-2021 13:02 28o 4.58' ( 28.0763) 140o 20.79' (-140.3465) 11.6 112.9 330.9 6.3 19.3 152.9 1023.7 22.4
11-22-2021 12:32 28o 6.82' ( 28.1136) 140o 26.79' (-140.4465) 11.5 114.4 65.1 4.7 19.4 153.8 1023.8 22.3
11-22-2021 12:02 28o 9.20' ( 28.1534) 140o 32.65' (-140.5442) 11.6 114.4 62.8 3.6 20.8 153.2 1023.6 22.2
11-22-2021 11:32 28o 11.59' ( 28.1932) 140o 38.59' (-140.6431) 11.2 114.1 77.3 4.1 20.7 153.3 1023.6 22.3
11-22-2021 11:02 28o 14.32' ( 28.2386) 140o 44.18' (-140.7363) 11.4 118.7 27.9 3.6 20.6 153.4 1023.7 22.3
11-22-2021 10:32 28o 17.12' ( 28.2854) 140o 49.88' (-140.8314) 11.6 119.5 55.7 4.0 20.9 153.1 1023.6 22.4
11-22-2021 10:02 28o 19.60' ( 28.3267) 140o 54.95' (-140.9158) 0.8 112.6 50.8 4.3 21.2 153.0 1023.9 22.4
11-22-2021 9:32 28o 19.61' ( 28.3269) 140o 54.96' (-140.9160) 0.3 110.5 96.9 4.5 21.0 153.4 1023.9 22.4
11-22-2021 9:02 28o 23.07' ( 28.3846) 140o 56.30' (-140.9383) 11.3 163.9 94.7 2.2 20.6 152.7 1024.1 22.4
11-22-2021 8:32 28o 28.51' ( 28.4752) 140o 58.13' (-140.9689) 11.4 163.0 77.0 4.7 20.7 152.4 1024.2 22.4
11-22-2021 8:02 28o 33.84' ( 28.5641) 141o 0.08' (-141.0014) 11.2 163.8 97.2 4.4 20.4 152.0 1024.4 22.4
11-22-2021 7:32 28o 39.18' ( 28.6530) 141o 2.20' (-141.0367) 11.1 160.1 75.4 4.7 20.4 152.6 1024.5 22.5
11-22-2021 7:02 28o 44.40' ( 28.7400) 141o 4.31' (-141.0718) 11.1 159.7 70.7 5.4 20.4 152.0 1024.3 22.5
11-22-2021 6:32 28o 49.79' ( 28.8298) 141o 6.34' (-141.1056) 11.5 162.2 102.3 4.5 20.7 152.0 1024.3 22.5
11-22-2021 6:02 28o 55.15' ( 28.9192) 141o 8.23' (-141.1372) 11.1 162.2 66.5 4.3 20.6 152.0 1024.2 22.5
11-22-2021 5:32 29o 0.43' ( 29.0071) 141o 9.83' (-141.1638) 10.8 170.9 84.5 5.3 20.9 151.0 1024.1 22.6
11-22-2021 5:02 29o 3.50' ( 29.0583) 141o 10.07' (-141.1678) 5.6 138.6 58.3 5.3 20.9 152.0 1024.2 22.6
11-22-2021 4:32 29o 3.03' ( 29.0504) 141o 12.36' (-141.2061) 5.4 47.9 65.4 5.1 21.2 152.2 1024.0 22.7
11-22-2021 4:02 29o 2.21' ( 29.0368) 141o 10.87' (-141.1812) 5.5 183.7 82.4 6.5 21.2 152.0 1023.9 22.7
11-22-2021 3:32 29o 2.84' ( 29.0474) 141o 10.95' (-141.1825) 0.3 107.4 75.7 5.1 21.1 152.1 1023.8 22.8
11-22-2021 3:02 29o 2.85' ( 29.0474) 141o 10.95' (-141.1825) 0.3 99.2 72.7 5.4 21.1 152.0 1023.5 22.8
11-22-2021 2:32 29o 2.85' ( 29.0474) 141o 10.95' (-141.1825) 0.3 99.0 64.5 4.8 21.1 152.1 1023.3 22.8
11-22-2021 2:02 29o 2.86' ( 29.0476) 141o 10.93' (-141.1822) 0.4 135.8 73.7 7.7 21.6 151.9 1022.9 22.8
11-22-2021 1:32 29o 6.00' ( 29.1000) 141o 10.80' (-141.1800) 11.5 180.5 89.6 5.1 21.0 151.9 1022.8 22.5
11-22-2021 1:02 29o 11.77' ( 29.1961) 141o 10.52' (-141.1753) 11.6 181.9 85.0 5.3 21.1 152.5 1022.8 22.5
11-22-2021 0:32 29o 17.54' ( 29.2923) 141o 10.33' (-141.1721) 11.5 180.5 70.7 5.1 21.1 153.5 1022.9 22.5
11-22-2021 0:02 29o 23.29' ( 29.3882) 141o 10.46' (-141.1743) 11.6 179.0 71.7 5.2 21.0 153.0 1022.7 22.2
11-21-2021 23:32 29o 29.11' ( 29.4852) 141o 10.60' (-141.1767) 11.5 177.6 82.2 5.2 20.6 153.5 1022.7 22.1
11-21-2021 23:02 29o 34.90' ( 29.5817) 141o 10.80' (-141.1800) 11.5 176.9 96.8 4.4 20.1 153.1 1022.9 22.2
11-21-2021 22:32 29o 40.68' ( 29.6780) 141o 10.90' (-141.1817) 11.6 178.1 348.7 4.0 19.1 153.7 1023.2 22.0
11-21-2021 22:02 29o 46.48' ( 29.7747) 141o 11.08' (-141.1847) 11.4 178.5 139.0 1.4 18.9 153.8 1023.6 22.1
11-21-2021 21:32 29o 52.22' ( 29.8703) 141o 11.12' (-141.1853) 11.6 177.6 89.6 4.4 19.5 153.6 1024.0 22.1
11-21-2021 21:02 29o 58.11' ( 29.9686) 141o 11.08' (-141.1846) 11.7 180.0 254.7 4.0 19.5 153.4 1024.3 22.0
11-21-2021 20:32 30o 3.94' ( 30.0656) 141o 11.06' (-141.1844) 11.7 179.4 342.1 6.2 20.0 153.5 1024.8 22.1
11-21-2021 20:02 30o 6.28' ( 30.1047) 141o 6.98' (-141.1163) 11.5 269.2 193.1 2.0 20.5 153.8 1025.2 22.0
11-21-2021 19:32 30o 5.09' ( 30.0848) 141o 3.07' (-141.0512) 11.3 2.5 123.1 8.8 21.1 154.2 1025.5 21.9
11-21-2021 19:02 29o 59.37' ( 29.9895) 141o 3.34' (-141.0557) 11.6 1.1 132.0 5.5 20.7 153.0 1025.5 21.8
11-21-2021 18:32 29o 57.96' ( 29.9659) 141o 8.28' (-141.1380) 7.6 89.2 112.0 3.8 20.6 153.7 1025.4 22.1
11-21-2021 18:02 29o 57.68' ( 29.9613) 141o 12.47' (-141.2078) 7.7 60.2 122.9 5.8 20.7 154.0 1025.3 22.1
11-21-2021 17:32 29o 56.06' ( 29.9344) 141o 16.37' (-141.2729) 8.0 85.5 242.5 0.5 19.8 153.7 1025.2 22.0
11-21-2021 17:02 29o 55.87' ( 29.9312) 141o 21.98' (-141.3664) 11.3 87.9 111.0 7.2 19.9 153.6 1024.7 22.1
11-21-2021 16:32 29o 55.68' ( 29.9281) 141o 28.59' (-141.4765) 11.5 86.8 343.8 4.2 19.8 154.0 1024.7 22.1
11-21-2021 16:02 29o 55.41' ( 29.9236) 141o 35.21' (-141.5868) 11.5 87.2 351.4 3.9 19.6 153.9 1024.5 22.1
11-21-2021 15:32 29o 55.20' ( 29.9199) 141o 41.76' (-141.6961) 11.5 87.1 25.5 6.5 19.8 153.0 1024.2 22.1
11-21-2021 15:02 29o 54.98' ( 29.9163) 141o 48.27' (-141.8045) 11.2 88.0 33.8 6.6 19.8 152.4 1023.9 22.1
11-21-2021 14:32 29o 54.72' ( 29.9120) 141o 54.67' (-141.9112) 11.1 87.7 51.8 5.4 20.1 153.6 1023.7 22.1
11-21-2021 14:02 29o 54.60' ( 29.9099) 142o 1.03' (-142.0172) 11.1 89.6 52.4 5.1 20.1 153.0 1023.7 22.2
11-21-2021 13:32 29o 54.52' ( 29.9086) 142o 7.44' (-142.1240) 11.2 88.9 54.7 4.5 20.1 153.5 1023.6 22.1
11-21-2021 13:02 29o 54.47' ( 29.9079) 142o 13.83' (-142.2306) 11.1 89.5 65.2 4.3 20.3 153.5 1023.6 22.2
11-21-2021 12:32 29o 54.40' ( 29.9067) 142o 20.24' (-142.3373) 11.1 89.4 88.7 5.8 20.5 153.3 1023.8 22.1
11-21-2021 12:02 29o 54.44' ( 29.9073) 142o 26.65' (-142.4442) 11.1 91.3 86.8 5.2 20.4 153.4 1023.8 22.1
11-21-2021 11:32 29o 54.54' ( 29.9090) 142o 32.99' (-142.5499) 11.0 91.2 89.7 5.9 20.4 153.3 1023.9 22.1
11-21-2021 11:02 29o 54.61' ( 29.9101) 142o 39.23' (-142.6539) 10.8 95.2 101.8 6.5 20.7 153.2 1024.1 22.1
11-21-2021 10:32 29o 55.05' ( 29.9174) 142o 39.92' (-142.6653) 5.3 133.4 110.6 8.1 20.7 153.3 1024.1 22.1
11-21-2021 10:02 29o 55.18' ( 29.9197) 142o 41.97' (-142.6995) 4.4 54.5 103.2 11.5 20.8 153.3 1024.2 22.1
11-21-2021 9:32 29o 53.21' ( 29.8868) 142o 41.24' (-142.6873) 5.6 327.7 107.0 10.5 20.9 153.3 1024.3 22.2
11-21-2021 9:02 29o 54.55' ( 29.9092) 142o 40.96' (-142.6827) 0.3 98.2 103.6 12.1 20.7 153.3 1024.4 22.2
11-21-2021 8:32 29o 54.55' ( 29.9091) 142o 40.96' (-142.6827) 0.2 98.6 98.2 11.7 20.7 153.3 1024.6 22.1
11-21-2021 8:02 29o 54.55' ( 29.9092) 142o 40.96' (-142.6827) 0.3 99.0 96.8 11.0 20.8 153.4 1024.7 22.1
11-21-2021 7:32 29o 54.55' ( 29.9092) 142o 40.96' (-142.6827) 0.3 85.7 95.9 14.4 20.7 153.3 1024.9 22.1
11-21-2021 7:02 29o 53.77' ( 29.8962) 142o 41.83' (-142.6971) 8.6 48.0 88.3 13.5 20.8 153.1 1024.8 22.2
11-21-2021 6:32 29o 49.05' ( 29.8175) 142o 39.58' (-142.6597) 12.0 331.6 97.2 14.4 21.1 153.1 1024.8 22.3
11-21-2021 6:02 29o 43.96' ( 29.7327) 142o 35.92' (-142.5987) 12.0 330.5 79.3 14.8 21.0 153.3 1024.7 22.3
11-21-2021 5:32 29o 38.87' ( 29.6479) 142o 32.30' (-142.5384) 11.8 329.5 91.1 13.6 20.8 153.6 1024.4 22.3
11-21-2021 5:02 29o 33.85' ( 29.5642) 142o 28.85' (-142.4808) 11.5 329.0 84.6 13.5 20.6 153.5 1024.2 22.3
11-21-2021 4:32 29o 28.88' ( 29.4814) 142o 25.37' (-142.4228) 11.7 327.3 81.4 13.8 20.7 153.5 1023.9 22.4
11-21-2021 4:02 29o 23.95' ( 29.3991) 142o 21.92' (-142.3654) 11.4 329.2 76.9 16.9 20.9 153.5 1023.8 22.4
11-21-2021 3:32 29o 19.09' ( 29.3181) 142o 18.65' (-142.3109) 11.3 330.2 80.8 12.3 21.0 153.4 1023.7 22.4
11-21-2021 3:02 29o 14.26' ( 29.2377) 142o 15.23' (-142.2538) 11.5 327.9 74.7 12.4 21.1 153.6 1023.3 22.3
11-21-2021 2:32 29o 9.31' ( 29.1551) 142o 11.75' (-142.1959) 11.5 327.4 72.6 10.7 21.4 153.2 1023.0 22.5
11-21-2021 2:02 29o 4.32' ( 29.0720) 142o 8.38' (-142.1397) 11.5 332.0 65.9 11.2 21.4 153.1 1022.6 22.6
11-21-2021 1:32 29o 1.91' ( 29.0318) 142o 7.35' (-142.1226) 9.6 168.4 78.3 12.1 21.8 153.1 1022.8 22.6
11-21-2021 1:02 28o 58.48' ( 28.9747) 142o 5.21' (-142.0868) 11.2 336.6 52.7 10.8 21.0 153.6 1022.7 22.7
11-21-2021 0:32 28o 53.29' ( 28.8882) 142o 2.79' (-142.0464) 11.1 339.9 60.0 10.4 21.6 153.0 1022.6 22.7
11-21-2021 0:02 28o 48.25' ( 28.8041) 142o 0.26' (-142.0043) 11.1 335.6 55.5 10.7 21.6 153.1 1022.5 22.7
11-20-2021 23:32 28o 43.18' ( 28.7197) 141o 57.53' (-141.9588) 11.1 333.2 61.6 11.9 21.8 152.8 1022.6 22.6
11-20-2021 23:02 28o 38.19' ( 28.6364) 141o 54.62' (-141.9103) 11.1 333.8 53.9 11.1 21.8 152.9 1022.7 22.6
11-20-2021 22:32 28o 33.17' ( 28.5528) 141o 51.71' (-141.8619) 11.1 334.0 64.6 12.3 21.8 152.9 1023.0 22.8
11-20-2021 22:02 28o 28.18' ( 28.4697) 141o 48.80' (-141.8133) 11.2 333.6 49.7 11.4 22.0 153.1 1023.3 22.7
11-20-2021 21:32 28o 23.16' ( 28.3860) 141o 45.89' (-141.7648) 11.4 334.1 66.0 13.0 22.3 153.1 1023.7 22.8
11-20-2021 21:02 28o 18.08' ( 28.3013) 141o 43.03' (-141.7172) 11.3 334.1 68.5 9.5 22.3 153.1 1024.2 22.7
11-20-2021 20:32 28o 18.01' ( 28.3001) 141o 42.62' (-141.7103) 5.2 131.9 73.3 10.0 21.9 153.4 1024.4 22.7
11-20-2021 20:02 28o 17.29' ( 28.2881) 141o 44.56' (-141.7426) 4.2 46.4 67.6 11.5 22.1 153.1 1024.6 22.7
11-20-2021 19:32 28o 16.36' ( 28.2726) 141o 43.15' (-141.7191) 5.8 177.3 65.3 12.4 22.4 153.1 1024.6 22.7
11-20-2021 19:02 28o 17.15' ( 28.2859) 141o 43.14' (-141.7190) 0.3 69.7 67.2 9.4 22.0 153.0 1024.7 22.7
11-20-2021 18:32 28o 17.15' ( 28.2859) 141o 43.14' (-141.7190) 0.4 69.9 72.2 10.9 21.9 152.9 1024.7 22.6
11-20-2021 18:02 28o 17.15' ( 28.2859) 141o 43.14' (-141.7190) 0.3 69.6 75.2 10.5 21.8 153.3 1024.5 22.6
11-20-2021 17:32 28o 17.15' ( 28.2859) 141o 43.14' (-141.7190) 0.3 70.7 70.7 10.6 21.2 153.0 1024.2 22.6
11-20-2021 17:02 28o 17.68' ( 28.2947) 141o 45.31' (-141.7552) 11.0 9.3 60.0 11.8 21.5 153.0 1023.9 22.6
11-20-2021 16:32 28o 12.19' ( 28.2031) 141o 46.01' (-141.7669) 11.1 357.7 61.4 9.9 21.1 153.2 1023.7 22.6
11-20-2021 16:02 28o 6.61' ( 28.1102) 141o 45.65' (-141.7609) 11.1 357.7 68.9 8.8 21.0 153.2 1023.6 22.6
11-20-2021 15:32 28o 1.10' ( 28.0183) 141o 45.40' (-141.7567) 11.0 359.2 53.9 7.9 21.2 153.1 1023.2 22.7
11-20-2021 15:02 27o 55.58' ( 27.9263) 141o 45.29' (-141.7549) 11.0 0.1 48.4 5.8 20.9 153.2 1023.0 22.5
11-20-2021 14:32 27o 52.16' ( 27.8693) 141o 43.79' (-141.7299) 9.3 334.6 47.5 8.5 20.6 153.0 1022.9 22.5
11-20-2021 14:02 27o 47.94' ( 27.7990) 141o 41.45' (-141.6908) 9.9 334.5 19.8 4.7 20.5 153.4 1022.7 22.5
11-20-2021 13:32 27o 43.36' ( 27.7226) 141o 38.87' (-141.6479) 10.4 334.1 182.1 4.9 19.8 153.8 1022.7 22.6
11-20-2021 13:02 27o 38.67' ( 27.6445) 141o 36.30' (-141.6050) 10.2 334.4 41.3 7.6 20.7 155.5 1022.5 22.4
11-20-2021 12:32 27o 34.12' ( 27.5686) 141o 33.83' (-141.5638) 10.0 335.5 58.2 4.8 21.3 156.5 1022.2 22.5
11-20-2021 12:02 27o 29.56' ( 27.4927) 141o 31.25' (-141.5208) 10.3 332.6 96.6 5.3 21.6 156.2 1022.2 22.5
11-20-2021 11:32 27o 24.93' ( 27.4155) 141o 28.65' (-141.4775) 10.4 333.7 107.2 7.8 21.8 156.1 1022.2 22.6
11-20-2021 11:02 27o 20.32' ( 27.3386) 141o 26.04' (-141.4340) 10.3 334.1 107.9 7.5 21.9 155.9 1022.4 22.7
11-20-2021 10:32 27o 15.72' ( 27.2619) 141o 23.56' (-141.3927) 10.2 333.9 97.6 10.2 21.9 155.7 1022.5 22.8
11-20-2021 10:02 27o 11.10' ( 27.1850) 141o 21.00' (-141.3501) 10.2 333.6 92.4 9.4 21.9 155.7 1022.5 22.7
11-20-2021 9:32 27o 6.57' ( 27.1096) 141o 18.31' (-141.3052) 10.3 330.3 95.2 12.4 21.7 155.0 1022.5 22.5
11-20-2021 9:02 27o 1.84' ( 27.0307) 141o 15.43' (-141.2572) 11.3 334.2 82.8 14.2 21.6 155.8 1022.4 22.4
11-20-2021 8:32 26o 59.65' ( 26.9942) 141o 18.49' (-141.3082) 11.2 69.3 81.4 10.9 21.5 155.0 1022.4 22.5
11-20-2021 8:02 26o 57.49' ( 26.9582) 141o 24.30' (-141.4050) 11.3 65.3 85.2 12.8 21.0 155.7 1022.6 22.9
11-20-2021 7:32 26o 55.21' ( 26.9201) 141o 30.04' (-141.5007) 11.4 65.4 74.9 10.8 21.0 155.8 1022.7 23.1
11-20-2021 7:02 26o 53.23' ( 26.8872) 141o 35.96' (-141.5994) 11.2 69.9 75.1 10.4 21.5 155.7 1022.7 23.2
11-20-2021 6:32 26o 51.39' ( 26.8565) 141o 41.91' (-141.6984) 11.4 71.6 69.1 10.0 21.6 156.0 1022.7 23.1
11-20-2021 6:02 26o 49.38' ( 26.8230) 141o 47.86' (-141.7976) 11.3 66.9 78.4 10.8 21.6 155.4 1022.5 23.1
11-20-2021 5:32 26o 47.17' ( 26.7861) 141o 53.65' (-141.8942) 11.1 67.1 82.0 10.8 21.5 155.0 1022.2 23.0
11-20-2021 5:02 26o 45.11' ( 26.7519) 141o 59.49' (-141.9915) 11.3 68.5 69.3 9.7 21.6 155.7 1022.0 23.2
11-20-2021 4:32 26o 43.02' ( 26.7170) 142o 5.38' (-142.0897) 11.5 68.7 70.1 8.5 21.6 155.5 1021.9 23.1
11-20-2021 4:02 26o 40.91' ( 26.6819) 142o 11.32' (-142.1886) 11.4 67.2 71.3 8.4 21.7 155.5 1021.4 23.2
11-20-2021 3:32 26o 38.78' ( 26.6463) 142o 17.32' (-142.2886) 11.5 64.4 66.1 7.6 21.8 155.0 1021.0 23.4
11-20-2021 3:02 26o 36.78' ( 26.6130) 142o 21.33' (-142.3555) 0.6 66.3 90.2 8.0 21.9 155.0 1020.8 23.5
11-20-2021 2:32 26o 33.80' ( 26.5633) 142o 24.98' (-142.4163) 11.5 46.7 63.5 6.9 21.8 155.6 1020.5 23.5
11-20-2021 2:02 26o 29.98' ( 26.4997) 142o 29.69' (-142.4949) 11.5 48.7 82.5 7.3 22.1 155.8 1020.2 23.4
11-20-2021 1:32 26o 26.06' ( 26.4343) 142o 34.32' (-142.5720) 11.3 47.8 78.0 7.1 22.3 155.8 1020.0 23.4
11-20-2021 1:02 26o 22.23' ( 26.3705) 142o 38.92' (-142.6487) 11.1 47.5 74.8 9.3 22.2 155.7 1019.8 23.4
11-20-2021 0:32 26o 18.51' ( 26.3084) 142o 43.43' (-142.7238) 11.1 47.5 85.8 9.5 22.4 155.8 1019.7 23.5
11-20-2021 0:02 26o 14.77' ( 26.2462) 142o 47.97' (-142.7995) 11.0 48.4 74.3 9.4 22.4 155.8 1020.0 23.4
11-19-2021 23:32 26o 11.08' ( 26.1846) 142o 52.49' (-142.8748) 11.1 50.1 81.6 11.1 22.5 157.1 1019.8 23.5
11-19-2021 23:02 26o 7.32' ( 26.1220) 142o 56.93' (-142.9489) 10.9 47.5 73.4 11.4 22.5 155.8 1019.9 23.4
11-19-2021 22:32 26o 3.64' ( 26.0606) 143o 1.34' (-143.0223) 10.7 46.6 73.1 12.5 22.2 155.5 1020.1 23.5
11-19-2021 22:02 26o 0.00' ( 26.0000) 143o 5.76' (-143.0961) 10.8 47.4 58.1 9.8 22.3 153.8 1020.6 23.5
11-19-2021 21:32 25o 56.28' ( 25.9380) 143o 10.17' (-143.1696) 11.0 46.8 62.7 10.3 22.6 154.1 1021.0 23.6
11-19-2021 21:02 25o 52.52' ( 25.8753) 143o 14.71' (-143.2452) 11.0 46.8 76.7 10.1 22.6 153.8 1021.4 23.6
11-19-2021 20:32 25o 48.93' ( 25.8155) 143o 19.24' (-143.3207) 10.9 50.4 83.1 9.9 22.5 154.5 1021.7 23.5
11-19-2021 20:02 25o 45.88' ( 25.7646) 143o 23.51' (-143.3918) 1.9 74.8 92.7 11.7 23.4 154.3 1022.0 23.6
11-19-2021 19:32 25o 44.65' ( 25.7442) 143o 27.51' (-143.4584) 11.2 70.9 75.6 7.7 22.3 156.6 1022.1 23.6
11-19-2021 19:02 25o 42.85' ( 25.7142) 143o 33.38' (-143.5563) 11.3 69.5 94.0 8.2 21.9 155.5 1022.1 23.5
11-19-2021 18:32 25o 40.96' ( 25.6827) 143o 39.16' (-143.6526) 10.9 69.5 80.6 11.4 21.9 154.9 1021.0 23.5
11-19-2021 18:02 25o 39.12' ( 25.6520) 143o 44.84' (-143.7474) 11.1 68.8 89.6 14.3 22.0 156.1 1021.6 23.6
11-19-2021 17:32 25o 37.35' ( 25.6225) 143o 50.62' (-143.8436) 11.0 70.5 90.7 14.9 22.0 156.5 1021.4 23.8
11-19-2021 17:02 25o 35.61' ( 25.5936) 143o 56.41' (-143.9401) 11.1 69.3 106.0 11.5 22.5 154.7 1021.0 23.7
11-19-2021 16:32 25o 33.60' ( 25.5600) 144o 2.22' (-144.0370) 11.4 72.3 81.8 9.3 22.2 154.8 1020.7 23.6
11-19-2021 16:02 25o 31.83' ( 25.5305) 144o 8.18' (-144.1363) 11.3 72.5 88.9 11.6 22.1 154.8 1020.5 23.8
11-19-2021 15:32 25o 29.95' ( 25.4992) 144o 14.10' (-144.2349) 11.3 70.5 86.6 12.1 22.2 155.0 1020.3 23.9
11-19-2021 15:02 25o 28.08' ( 25.4681) 144o 20.01' (-144.3335) 11.3 69.3 95.6 11.2 22.2 154.9 1020.0 23.9
11-19-2021 14:32 25o 26.24' ( 25.4373) 144o 25.92' (-144.4320) 11.3 70.4 81.3 11.8 22.4 154.8 1019.7 23.9
11-19-2021 14:02 25o 24.36' ( 25.4060) 144o 31.85' (-144.5308) 11.3 72.1 82.6 9.3 22.5 154.8 1019.6 23.9
11-19-2021 13:32 25o 22.52' ( 25.3753) 144o 37.73' (-144.6288) 11.1 70.0 89.8 12.1 22.4 154.8 1019.6 24.0
11-19-2021 13:02 25o 20.71' ( 25.3452) 144o 43.57' (-144.7262) 11.2 70.9 93.4 11.5 22.3 153.9 1019.7 24.0
11-19-2021 12:32 25o 18.75' ( 25.3125) 144o 49.35' (-144.8225) 11.3 68.5 83.9 8.8 22.4 154.1 1019.4 24.0
11-19-2021 12:02 25o 16.89' ( 25.2814) 144o 55.24' (-144.9206) 11.3 70.2 75.3 9.3 22.5 153.3 1019.6 24.2
11-19-2021 11:32 25o 15.16' ( 25.2526) 145o 1.17' (-145.0196) 11.4 72.5 92.9 9.4 22.5 155.6 1019.7 24.2
11-19-2021 11:02 25o 13.22' ( 25.2204) 145o 7.16' (-145.1193) 11.8 71.6 117.7 9.3 22.2 155.1 1019.8 24.2
11-19-2021 10:32 25o 11.23' ( 25.1872) 145o 13.33' (-145.2222) 11.9 71.2 91.0 12.1 22.7 155.4 1019.7 24.1
11-19-2021 10:02 25o 9.22' ( 25.1537) 145o 19.52' (-145.3253) 12.0 71.2 94.8 4.6 22.1 155.6 1019.9 24.2
11-19-2021 9:32 25o 7.43' ( 25.1238) 145o 25.69' (-145.4282) 11.9 74.9 80.6 3.9 22.0 155.8 1020.0 24.2
11-19-2021 9:02 25o 5.49' ( 25.0916) 145o 31.75' (-145.5292) 11.6 71.7 74.4 11.6 22.4 155.5 1020.0 23.7
11-19-2021 8:32 25o 3.56' ( 25.0593) 145o 37.81' (-145.6302) 11.8 72.1 69.8 11.3 22.5 155.3 1019.6 23.8
11-19-2021 8:02 25o 1.66' ( 25.0276) 145o 44.04' (-145.7340) 11.8 71.5 107.0 5.6 22.2 155.7 1020.4 23.8
11-19-2021 7:32 24o 59.74' ( 24.9956) 145o 49.97' (-145.8328) 11.6 69.9 81.3 8.6 23.3 154.2 1019.9 23.8
11-19-2021 7:02 24o 57.76' ( 24.9626) 145o 55.97' (-145.9329) 11.5 69.2 102.5 9.3 23.2 156.5 1020.0 23.8
11-19-2021 6:32 24o 55.85' ( 24.9308) 146o 1.98' (-146.0330) 11.4 69.8 95.6 9.4 23.2 156.1 1019.8 23.8
11-19-2021 6:02 24o 53.97' ( 24.8994) 146o 7.90' (-146.1316) 11.5 69.0 91.3 9.8 23.2 155.0 1019.5 23.8
11-19-2021 5:32 24o 52.07' ( 24.8679) 146o 13.87' (-146.2311) 11.6 70.2 74.5 3.7 22.6 155.6 1019.4 23.9
11-19-2021 5:02 24o 50.15' ( 24.8358) 146o 19.76' (-146.3293) 11.3 68.7 69.3 12.3 22.6 155.0 1019.1 23.9
11-19-2021 4:32 24o 48.21' ( 24.8035) 146o 25.63' (-146.4272) 11.6 71.5 55.0 1.6 22.0 155.0 1018.9 23.9
11-19-2021 4:02 24o 46.42' ( 24.7737) 146o 31.72' (-146.5287) 11.6 72.3 72.9 1.6 21.8 156.0 1018.7 23.8
11-19-2021 3:32 24o 44.59' ( 24.7432) 146o 37.73' (-146.6288) 11.5 71.7 102.2 9.2 22.3 155.4 1018.2 23.8
11-19-2021 3:02 24o 42.63' ( 24.7104) 146o 43.67' (-146.7279) 11.5 70.2 87.0 7.5 22.4 154.8 1017.6 23.9
11-19-2021 2:32 24o 40.75' ( 24.6791) 146o 49.59' (-146.8265) 11.3 71.2 33.2 4.7 22.2 154.4 1017.6 24.3
11-19-2021 2:02 24o 38.84' ( 24.6473) 146o 55.45' (-146.9242) 11.3 74.9 114.6 8.7 22.2 154.4 1017.3 24.6
11-19-2021 1:32 24o 37.05' ( 24.6175) 147o 1.42' (-147.0236) 11.6 72.3 85.7 10.1 22.7 155.1 1017.0 24.5
11-19-2021 1:02 24o 35.11' ( 24.5852) 147o 7.40' (-147.1234) 11.5 72.4 91.4 5.4 23.4 155.5 1017.0 24.6
11-19-2021 0:32 24o 33.20' ( 24.5533) 147o 13.30' (-147.2217) 11.4 70.9 89.6 7.8 23.3 155.8 1016.8 24.6
11-19-2021 0:02 24o 31.40' ( 24.5234) 147o 19.17' (-147.3196) 11.2 73.4 94.7 9.4 23.1 156.4 1016.7 24.7
11-18-2021 23:32 24o 29.46' ( 24.4910) 147o 25.02' (-147.4171) 11.6 71.6 81.9 7.2 23.6 156.0 1016.7 24.7
11-18-2021 23:02 24o 27.60' ( 24.4600) 147o 30.97' (-147.5162) 11.3 74.8 109.6 8.0 23.5 155.5 1017.0 24.7
11-18-2021 22:32 24o 25.86' ( 24.4311) 147o 36.73' (-147.6122) 11.0 72.7 103.6 8.2 23.1 154.0 1017.5 24.6
11-18-2021 22:02 24o 23.95' ( 24.3991) 147o 42.41' (-147.7068) 11.1 70.1 94.6 10.9 23.0 154.0 1017.8 24.6
11-18-2021 21:32 24o 22.10' ( 24.3684) 147o 48.12' (-147.8020) 11.1 70.2 94.5 11.6 23.2 152.8 1018.0 24.6
11-18-2021 21:02 24o 20.33' ( 24.3389) 147o 53.86' (-147.8976) 11.0 73.2 95.5 12.3 23.3 152.4 1018.2 24.6
11-18-2021 20:32 24o 18.52' ( 24.3087) 147o 59.65' (-147.9941) 11.2 71.9 108.8 12.2 23.5 154.3 1018.4 24.6
11-18-2021 20:02 24o 16.62' ( 24.2770) 148o 5.37' (-148.0895) 11.1 71.7 114.6 13.0 23.4 154.0 1018.0 24.6
11-18-2021 19:32 24o 14.78' ( 24.2464) 148o 11.04' (-148.1840) 10.8 72.2 110.7 15.2 23.0 152.4 1018.9 24.5
11-18-2021 19:02 24o 13.08' ( 24.2181) 148o 16.62' (-148.2770) 10.7 72.4 107.1 15.4 23.4 152.5 1019.0 24.6
11-18-2021 18:32 24o 11.29' ( 24.1881) 148o 22.22' (-148.3703) 11.1 73.1 88.6 11.5 23.6 153.4 1018.8 24.4
11-18-2021 18:02 24o 9.49' ( 24.1581) 148o 27.95' (-148.4658) 11.2 72.8 96.8 10.2 23.7 151.0 1018.5 24.4
11-18-2021 17:32 24o 7.67' ( 24.1278) 148o 33.81' (-148.5634) 11.4 73.9 121.1 7.6 23.4 152.4 1018.1 24.4
11-18-2021 17:02 24o 5.77' ( 24.0962) 148o 39.71' (-148.6619) 11.7 74.5 339.1 1.7 22.5 153.0 1017.9 24.3
11-18-2021 16:32 24o 3.84' ( 24.0639) 148o 45.58' (-148.7597) 11.2 71.3 112.0 5.5 22.9 152.6 1017.6 24.3
11-18-2021 16:02 24o 2.00' ( 24.0333) 148o 51.36' (-148.8560) 11.1 72.2 118.0 8.6 22.6 152.8 1017.5 24.4
11-18-2021 15:32 24o 0.22' ( 24.0036) 148o 57.06' (-148.9510) 11.1 68.1 115.1 10.8 22.6 153.0 1017.3 24.5
11-18-2021 15:02 23o 58.31' ( 23.9718) 149o 2.81' (-149.0468) 11.2 71.2 69.4 5.2 23.4 152.5 1016.8 24.5
11-18-2021 14:32 23o 56.43' ( 23.9404) 149o 8.63' (-149.1439) 11.4 70.9 73.1 2.4 23.4 153.1 1016.7 24.4
11-18-2021 14:02 23o 54.62' ( 23.9103) 149o 14.44' (-149.2407) 11.1 71.4 80.6 4.4 23.2 152.0 1016.6 24.5
11-18-2021 13:32 23o 52.82' ( 23.8803) 149o 20.21' (-149.3368) 11.2 70.0 92.9 4.0 23.3 152.8 1016.7 24.5
11-18-2021 13:02 23o 50.96' ( 23.8494) 149o 25.95' (-149.4324) 11.1 69.2 96.5 5.0 23.3 152.0 1016.8 24.6
11-18-2021 12:32 23o 49.11' ( 23.8185) 149o 31.72' (-149.5287) 11.3 71.6 100.1 7.9 23.5 152.4 1016.6 24.6
11-18-2021 12:02 23o 47.29' ( 23.7882) 149o 37.56' (-149.6260) 11.3 71.1 98.9 5.6 23.5 152.4 1016.8 24.6
11-18-2021 11:32 23o 45.44' ( 23.7573) 149o 43.36' (-149.7226) 11.3 70.2 105.1 4.4 23.7 152.4 1017.0 24.6
11-18-2021 11:02 23o 43.52' ( 23.7253) 149o 49.17' (-149.8196) 11.4 69.9 109.0 6.0 23.7 152.4 1017.4 24.6
11-18-2021 10:32 23o 41.63' ( 23.6938) 149o 54.99' (-149.9165) 11.4 69.8 115.8 7.5 23.6 152.0 1017.5 24.6
11-18-2021 10:02 23o 39.85' ( 23.6641) 150o 0.88' (-150.0146) 11.3 70.5 118.1 8.7 23.5 152.0 1017.5 24.5
11-18-2021 9:32 23o 37.91' ( 23.6318) 150o 6.61' (-150.1101) 11.4 71.2 108.9 7.7 23.6 152.3 1017.5 24.5
11-18-2021 9:02 23o 36.17' ( 23.6029) 150o 12.52' (-150.2087) 11.4 71.4 110.0 9.2 23.8 151.4 1017.7 24.5
11-18-2021 8:32 23o 34.24' ( 23.5707) 150o 18.33' (-150.3056) 11.3 68.3 125.8 8.2 23.8 151.4 1018.0 24.5
11-18-2021 8:02 23o 32.27' ( 23.5378) 150o 23.99' (-150.3998) 11.1 69.2 126.3 8.6 23.8 151.0 1017.9 24.5
11-18-2021 7:32 23o 30.46' ( 23.5077) 150o 29.68' (-150.4947) 11.0 71.8 134.5 9.6 23.8 150.9 1017.8 24.5
11-18-2021 7:02 23o 28.73' ( 23.4789) 150o 35.36' (-150.5893) 10.9 72.3 124.3 9.5 23.9 150.9 1017.7 24.5
11-18-2021 6:32 23o 26.95' ( 23.4492) 150o 41.00' (-150.6834) 11.0 71.0 117.9 10.5 23.9 151.2 1017.5 24.5
11-18-2021 6:02 23o 25.08' ( 23.4180) 150o 46.65' (-150.7774) 11.0 70.4 126.4 11.4 24.1 151.0 1017.2 24.6
11-18-2021 5:32 23o 23.30' ( 23.3884) 150o 52.31' (-150.8718) 11.1 71.3 140.6 10.2 24.1 152.1 1017.5 24.6
11-18-2021 5:02 23o 21.42' ( 23.3570) 150o 57.98' (-150.9663) 11.0 69.2 135.2 12.6 24.1 152.0 1016.9 24.6
11-18-2021 4:32 23o 19.70' ( 23.3283) 151o 3.73' (-151.0621) 11.2 73.1 133.3 12.1 24.2 152.2 1016.4 24.8
11-18-2021 4:02 23o 17.92' ( 23.2987) 151o 9.45' (-151.1575) 11.2 68.0 142.1 11.1 24.4 152.0 1016.1 24.9
11-18-2021 3:32 23o 16.04' ( 23.2673) 151o 15.02' (-151.2503) 10.7 74.2 143.6 18.3 24.4 152.0 1014.8 25.0
11-18-2021 3:02 23o 14.31' ( 23.2385) 151o 20.55' (-151.3425) 10.8 73.2 135.8 11.0 24.2 152.6 1015.5 25.0
11-18-2021 2:32 23o 12.52' ( 23.2087) 151o 26.04' (-151.4341) 10.7 72.0 129.3 11.0 24.4 152.3 1015.0 25.0
11-18-2021 2:02 23o 10.72' ( 23.1787) 151o 31.61' (-151.5269) 11.0 71.3 112.2 8.0 24.4 152.2 1015.8 24.9
11-18-2021 1:32 23o 8.89' ( 23.1482) 151o 37.29' (-151.6215) 11.1 72.6 117.6 10.2 24.6 152.2 1015.6 24.9
11-18-2021 1:02 23o 7.04' ( 23.1173) 151o 42.91' (-151.7152) 10.9 70.8 120.8 12.9 24.8 152.5 1015.2 25.0
11-18-2021 0:32 23o 5.26' ( 23.0876) 151o 48.48' (-151.8080) 10.8 71.1 120.6 13.4 24.8 152.2 1015.0 25.1
11-18-2021 0:02 23o 3.55' ( 23.0592) 151o 53.93' (-151.8989) 10.6 71.0 118.3 13.4 24.9 152.4 1015.0 24.9
11-17-2021 23:32 23o 1.88' ( 23.0313) 151o 59.37' (-151.9895) 10.6 68.5 124.7 13.8 25.0 152.6 1015.3 24.9
11-17-2021 23:02 22o 59.99' ( 22.9999) 152o 4.75' (-152.0792) 10.5 67.4 122.1 13.0 24.9 152.0 1015.8 25.1
11-17-2021 22:32 22o 58.20' ( 22.9701) 152o 10.20' (-152.1700) 10.7 68.4 120.0 13.6 24.8 152.1 1015.9 25.2
11-17-2021 22:02 22o 56.12' ( 22.9353) 152o 15.53' (-152.2588) 10.7 64.4 113.9 16.5 24.8 151.9 1015.8 25.3
11-17-2021 21:32 22o 53.89' ( 22.8982) 152o 20.85' (-152.3475) 10.9 64.4 121.1 14.5 25.1 151.8 1016.2 25.3
11-17-2021 21:02 22o 51.62' ( 22.8604) 152o 26.19' (-152.4365) 10.9 66.0 124.3 13.5 24.9 151.7 1016.7 25.3
11-17-2021 20:32 22o 50.57' ( 22.8429) 152o 31.89' (-152.5316) 10.8 89.9 121.3 14.7 24.8 151.6 1016.9 25.5
11-17-2021 20:02 22o 49.49' ( 22.8248) 152o 37.46' (-152.6243) 10.5 70.9 108.5 15.4 24.3 151.4 1016.8 25.4
11-17-2021 19:32 22o 47.80' ( 22.7966) 152o 42.89' (-152.7148) 10.7 71.0 103.7 16.7 25.1 151.3 1016.6 25.5
11-17-2021 19:02 22o 46.09' ( 22.7682) 152o 48.51' (-152.8085) 11.2 71.3 121.1 14.7 25.4 151.1 1017.0 25.6
11-17-2021 18:32 22o 44.17' ( 22.7362) 152o 54.25' (-152.9042) 11.3 69.5 129.9 14.4 25.3 150.8 1016.5 25.5
11-17-2021 18:02 22o 42.28' ( 22.7046) 153o 0.00' (-153.0000) 11.3 69.1 124.8 14.9 24.5 142.0 1016.3 25.5
11-17-2021 17:32 22o 40.41' ( 22.6735) 153o 5.71' (-153.0952) 11.1 70.6 113.8 12.8 23.9 164.2 1016.0 25.6
11-17-2021 17:02 22o 38.59' ( 22.6432) 153o 11.44' (-153.1907) 11.3 67.6 120.3 13.7 24.1 163.2 1015.8 25.7
11-17-2021 16:32 22o 36.69' ( 22.6114) 153o 17.17' (-153.2862) 11.3 70.8 139.6 15.8 24.6 163.3 1015.5 25.7
11-17-2021 16:02 22o 34.82' ( 22.5804) 153o 22.98' (-153.3829) 11.4 69.4 140.9 16.1 24.8 163.4 1014.9 25.7
11-17-2021 15:32 22o 32.93' ( 22.5489) 153o 28.81' (-153.4802) 11.8 70.1 143.5 13.1 24.9 163.1 1015.0 25.7
11-17-2021 15:02 22o 31.04' ( 22.5174) 153o 34.70' (-153.5784) 11.3 71.4 138.8 15.3 24.6 164.3 1014.7 25.7
11-17-2021 14:32 22o 29.21' ( 22.4869) 153o 40.54' (-153.6756) 11.2 72.7 119.7 12.7 24.2 164.2 1014.6 25.7
11-17-2021 14:02 22o 27.30' ( 22.4550) 153o 46.34' (-153.7724) 11.4 71.4 140.5 14.6 24.5 162.8 1014.5 25.6
11-17-2021 13:32 22o 25.40' ( 22.4234) 153o 52.17' (-153.8695) 11.4 72.5 152.7 16.2 24.5 163.6 1014.5 25.7
11-17-2021 13:02 22o 23.57' ( 22.3929) 153o 57.91' (-153.9652) 11.2 74.9 154.0 15.6 24.8 164.1 1014.6 25.6
11-17-2021 12:32 22o 21.68' ( 22.3614) 154o 3.70' (-154.0617) 11.5 70.4 159.0 15.2 24.6 164.6 1014.6 25.7
11-17-2021 12:02 22o 19.82' ( 22.3304) 154o 9.50' (-154.1583) 11.2 71.7 143.4 11.1 24.6 164.6 1014.9 25.7
11-17-2021 11:32 22o 17.96' ( 22.2994) 154o 15.26' (-154.2543) 11.3 73.0 145.7 6.8 24.0 150.7 1015.3 25.7
11-17-2021 11:02 22o 16.02' ( 22.2670) 154o 21.05' (-154.3508) 11.4 68.3 146.0 14.6 23.0 143.3 1015.8 25.5
11-17-2021 10:32 22o 14.10' ( 22.2350) 154o 26.83' (-154.4471) 11.4 70.4 133.1 10.5 23.0 164.1 1015.7 25.4
11-17-2021 10:02 22o 12.20' ( 22.2033) 154o 32.60' (-154.5434) 11.6 68.6 145.6 14.9 23.9 153.3 1016.0 25.6
11-17-2021 9:32 22o 10.53' ( 22.1756) 154o 38.51' (-154.6418) 11.5 74.7 135.3 10.5 24.2 152.9 1016.0 25.7
11-17-2021 9:02 22o 8.67' ( 22.1446) 154o 44.25' (-154.7375) 11.2 68.5 118.3 9.6 24.3 152.5 1016.6 25.6
11-17-2021 8:32 22o 6.63' ( 22.1105) 154o 49.87' (-154.8312) 11.3 69.2 144.0 8.0 24.2 153.3 1016.7 25.7
11-17-2021 8:02 22o 4.77' ( 22.0795) 154o 55.54' (-154.9257) 11.2 71.0 130.4 7.7 24.1 160.3 1016.8 25.8
11-17-2021 7:32 22o 2.86' ( 22.0476) 155o 1.20' (-155.0200) 11.1 73.1 124.7 9.0 24.2 164.0 1016.7 25.8
11-17-2021 7:02 22o 1.26' ( 22.0210) 155o 6.97' (-155.1161) 11.3 76.4 94.5 7.6 24.6 164.1 1017.1 25.8
11-17-2021 6:32 21o 59.46' ( 21.9911) 155o 12.66' (-155.2110) 11.1 72.8 101.4 10.4 24.7 142.1 1016.5 25.5
11-17-2021 6:02 21o 57.54' ( 21.9590) 155o 18.24' (-155.3039) 10.9 72.9 86.9 9.0 24.8 150.0 1015.8 25.5
11-17-2021 5:32 21o 55.74' ( 21.9290) 155o 23.75' (-155.3958) 10.7 73.1 93.6 9.9 24.9 150.9 1015.3 25.5
11-17-2021 5:02 21o 54.00' ( 21.8999) 155o 29.19' (-155.4864) 10.6 73.7 102.4 10.1 24.8 151.0 1014.9 25.6
11-17-2021 4:32 21o 52.21' ( 21.8702) 155o 34.57' (-155.5762) 10.7 72.8 98.9 8.3 25.0 151.1 1014.6 25.6
11-17-2021 4:02 21o 50.51' ( 21.8418) 155o 40.02' (-155.6669) 10.7 73.2 92.4 7.9 24.8 151.3 1014.4 25.7
11-17-2021 3:32 21o 48.79' ( 21.8132) 155o 45.52' (-155.7587) 10.8 73.9 89.3 7.7 25.2 151.5 1014.1 25.6
11-17-2021 3:02 21o 47.05' ( 21.7842) 155o 51.01' (-155.8502) 10.7 74.5 96.3 8.8 25.3 151.5 1013.9 25.7
11-17-2021 2:32 21o 45.10' ( 21.7517) 155o 56.32' (-155.9386) 10.7 69.8 91.7 7.7 25.0 151.5 1014.0 25.7
11-17-2021 2:02 21o 43.41' ( 21.7234) 156o 1.79' (-156.0298) 10.9 75.2 92.2 7.8 25.6 151.7 1013.8 25.6
11-17-2021 1:32 21o 41.81' ( 21.6969) 156o 7.34' (-156.1223) 10.7 75.2 106.2 8.6 25.8 151.8 1013.6 25.5
11-17-2021 1:02 21o 40.16' ( 21.6693) 156o 12.79' (-156.2131) 10.8 74.5 103.7 8.6 25.8 151.7 1013.6 25.5
11-17-2021 0:32 21o 38.72' ( 21.6453) 156o 18.23' (-156.3039) 10.6 74.2 104.3 8.1 25.9 152.1 1013.5 25.3
11-17-2021 0:02 21o 37.13' ( 21.6188) 156o 23.63' (-156.3939) 10.6 74.4 109.8 9.2 25.7 152.4 1013.6 25.3
11-16-2021 23:32 21o 35.56' ( 21.5927) 156o 29.09' (-156.4848) 10.6 74.7 113.9 9.7 25.5 152.0 1013.7 25.4
11-16-2021 23:02 21o 34.17' ( 21.5695) 156o 34.54' (-156.5757) 10.6 75.6 111.9 9.7 25.5 151.8 1014.1 25.4
11-16-2021 22:32 21o 32.78' ( 21.5463) 156o 40.05' (-156.6676) 10.7 76.6 113.3 10.7 25.6 151.9 1014.6 25.4
11-16-2021 22:02 21o 31.36' ( 21.5226) 156o 45.50' (-156.7583) 10.4 74.1 111.9 10.8 25.8 151.7 1015.0 25.7
11-16-2021 21:32 21o 29.87' ( 21.4978) 156o 50.82' (-156.8470) 10.5 74.0 110.8 10.8 25.8 151.6 1015.4 25.7
11-16-2021 21:02 21o 28.28' ( 21.4714) 156o 56.19' (-156.9365) 10.5 74.8 108.1 12.1 25.7 151.5 1015.7 25.7
11-16-2021 20:32 21o 26.73' ( 21.4455) 157o 1.47' (-157.0246) 10.1 74.3 106.1 12.8 25.8 151.6 1015.9 25.7
11-16-2021 20:02 21o 25.20' ( 21.4200) 157o 6.78' (-157.1130) 10.5 73.4 97.2 11.8 25.6 151.3 1016.2 25.7
11-16-2021 19:32 21o 23.40' ( 21.3900) 157o 12.04' (-157.2007) 10.5 67.9 97.6 11.2 25.5 151.3 1016.1 25.7
11-16-2021 19:02 21o 21.27' ( 21.3545) 157o 17.29' (-157.2882) 10.6 67.3 85.3 5.7 25.4 151.1 1016.1 25.7
11-16-2021 18:32 21o 18.99' ( 21.3165) 157o 22.59' (-157.3765) 11.2 65.6 108.2 5.7 25.1 151.4 1015.9 25.7
11-16-2021 18:02 21o 16.58' ( 21.2763) 157o 28.04' (-157.4674) 11.3 64.9 127.0 7.0 25.3 151.0 1015.6 25.7
11-16-2021 17:32 21o 14.21' ( 21.2368) 157o 33.50' (-157.5584) 11.4 65.4 116.9 4.0 25.5 151.0 1015.4 25.7
11-16-2021 17:02 21o 11.87' ( 21.1978) 157o 39.41' (-157.6569) 12.3 65.9 96.0 3.5 25.3 151.2 1015.2 26.4
11-16-2021 16:32 21o 11.00' ( 21.1834) 157o 46.09' (-157.7681) 12.6 83.9 87.7 4.0 25.5 151.4 1014.8 26.5
11-16-2021 16:02 21o 13.30' ( 21.2216) 157o 51.01' (-157.8502) 11.8 170.6 64.7 8.5 25.6 151.4 1014.3 26.5
11-16-2021 15:32 21o 16.28' ( 21.2714) 157o 52.09' (-157.8681) 2.1 129.9 72.5 3.0 25.3 151.6 1014.1 26.5
11-16-2021 15:02 21o 16.43' ( 21.2739) 157o 52.46' (-157.8743) 0.1 300.2 53.3 3.0 25.5 151.4 1013.8 26.4
11-16-2021 14:32 21o 16.54' ( 21.2756) 157o 52.59' (-157.8764) 0.2 304.6 95.8 3.0 25.6 151.5 1013.8 26.4
11-16-2021 14:02 21o 16.48' ( 21.2746) 157o 52.50' (-157.8750) 0.2 334.2 98.4 3.9 25.2 151.2 1013.7 26.3
11-16-2021 13:32 21o 12.48' ( 21.2081) 157o 50.94' (-157.8489) 12.2 330.3 44.9 1.0 24.5 151.4 1013.5 26.5
11-16-2021 13:02 21o 10.73' ( 21.1788) 157o 45.18' (-157.7529) 12.8 266.8 36.7 13.1 24.6 150.8 1013.6 25.9
11-16-2021 12:32 21o 11.96' ( 21.1993) 157o 38.75' (-157.6458) 11.9 244.0 34.8 8.0 24.8 151.2 1013.9 26.3
11-16-2021 12:02 21o 14.68' ( 21.2447) 157o 32.95' (-157.5491) 12.2 245.0 78.7 11.2 25.8 150.9 1014.2 25.7
11-16-2021 11:32 21o 17.31' ( 21.2885) 157o 27.10' (-157.4517) 12.2 245.1 73.6 13.2 25.8 151.3 1014.3 25.5
11-16-2021 11:02 21o 19.97' ( 21.3329) 157o 21.31' (-157.3551) 12.0 242.1 87.7 12.3 25.7 151.3 1014.8 25.7
11-16-2021 10:32 21o 22.62' ( 21.3771) 157o 15.52' (-157.2587) 12.2 241.5 94.1 13.4 25.6 151.5 1014.9 25.8
11-16-2021 10:02 21o 25.27' ( 21.4212) 157o 9.62' (-157.1603) 12.1 242.1 88.4 14.0 25.6 151.5 1015.1 25.8
11-16-2021 9:32 21o 27.98' ( 21.4663) 157o 3.78' (-157.0630) 12.2 243.5 90.1 15.5 25.5 151.3 1015.2 25.7
11-16-2021 9:02 21o 30.61' ( 21.5101) 156o 57.90' (-156.9649) 12.1 241.1 93.6 14.6 25.5 151.4 1015.6 25.7
11-16-2021 8:32 21o 33.34' ( 21.5557) 156o 52.15' (-156.8692) 12.0 241.6 89.1 13.6 25.4 151.5 1015.8 25.7
11-16-2021 8:02 21o 35.97' ( 21.5995) 156o 46.36' (-156.7727) 12.1 242.8 92.7 13.4 25.2 151.5 1015.8 25.7
11-16-2021 7:32 21o 38.34' ( 21.6390) 156o 40.44' (-156.6740) 12.1 239.2 89.5 11.8 25.1 151.5 1015.7 25.7
11-16-2021 7:02 21o 41.18' ( 21.6864) 156o 34.71' (-156.5785) 12.1 241.8 80.9 9.9 24.8 151.4 1015.6 25.6
11-16-2021 6:32 21o 43.88' ( 21.7314) 156o 28.88' (-156.4813) 12.2 242.3 72.9 7.9 24.7 151.5 1015.6 25.5
11-16-2021 6:02 21o 46.40' ( 21.7733) 156o 22.94' (-156.3823) 12.2 242.1 68.9 6.8 24.6 151.7 1015.5 25.6
11-16-2021 5:32 21o 49.23' ( 21.8204) 156o 17.30' (-156.2883) 11.9 239.9 82.0 7.2 24.6 152.3 1015.2 25.6
11-16-2021 5:02 21o 51.66' ( 21.8610) 156o 11.48' (-156.1913) 11.8 245.1 122.2 5.7 24.6 151.8 1014.9 25.3
11-16-2021 4:32 21o 54.35' ( 21.9058) 156o 5.80' (-156.0967) 11.9 240.9 116.3 4.6 24.7 151.0 1014.7 25.3
11-16-2021 4:02 21o 57.05' ( 21.9509) 156o 0.07' (-156.0012) 12.0 242.8 118.6 7.0 24.9 151.8 1014.4 25.3
11-16-2021 3:32 21o 59.44' ( 21.9907) 155o 54.12' (-155.9020) 12.0 240.5 127.6 9.7 25.2 152.1 1014.1 25.5
11-16-2021 3:02 22o 2.10' ( 22.0350) 155o 48.37' (-155.8062) 11.8 239.1 143.5 6.9 25.0 151.7 1014.1 25.6
11-16-2021 2:32 22o 4.78' ( 22.0797) 155o 42.65' (-155.7108) 11.8 242.1 148.6 8.3 25.3 152.3 1013.8 25.6
11-16-2021 2:02 22o 7.33' ( 22.1222) 155o 36.83' (-155.6138) 12.0 245.2 143.4 8.1 25.2 152.1 1013.6 25.8
11-16-2021 1:32 22o 9.84' ( 22.1641) 155o 31.01' (-155.5168) 11.5 242.5 145.4 9.0 25.0 152.0 1013.4 25.8
11-16-2021 1:02 22o 12.47' ( 22.2078) 155o 25.31' (-155.4218) 11.9 243.7 154.6 7.9 25.2 151.8 1013.5 25.8
11-16-2021 0:32 22o 15.03' ( 22.2506) 155o 19.56' (-155.3260) 11.8 243.1 150.9 8.9 25.6 151.9 1013.3 25.8
11-16-2021 0:02 22o 17.51' ( 22.2919) 155o 13.81' (-155.2302) 11.8 245.1 161.4 9.4 25.5 151.9 1013.5 25.7
11-15-2021 23:32 22o 20.12' ( 22.3353) 155o 8.00' (-155.1333) 12.0 243.9 155.3 11.4 25.3 151.9 1013.7 25.5
11-15-2021 23:02 22o 22.65' ( 22.3774) 155o 2.46' (-155.0410) 11.2 241.6 166.3 8.8 25.2 151.8 1014.2 25.6
11-15-2021 22:32 22o 25.10' ( 22.4184) 154o 56.93' (-154.9488) 11.5 244.1 160.5 9.5 25.1 152.0 1014.6 25.7
11-15-2021 22:02 22o 27.57' ( 22.4595) 154o 51.39' (-154.8565) 11.3 243.4 161.3 10.4 25.0 152.2 1014.8 25.7
11-15-2021 21:32 22o 30.02' ( 22.5003) 154o 45.92' (-154.7653) 11.4 243.3 171.3 11.3 25.1 152.1 1015.1 25.7
11-15-2021 21:02 22o 32.47' ( 22.5412) 154o 40.35' (-154.6726) 11.5 245.5 156.9 12.0 25.5 151.7 1015.4 25.6
11-15-2021 20:32 22o 34.92' ( 22.5820) 154o 34.78' (-154.5797) 11.4 245.1 158.9 13.1 25.6 151.0 1015.7 25.6
11-15-2021 20:02 22o 37.45' ( 22.6242) 154o 29.30' (-154.4883) 11.3 242.9 153.3 14.5 25.5 151.0 1015.8 25.6
11-15-2021 19:32 22o 40.01' ( 22.6668) 154o 23.82' (-154.3970) 11.5 243.6 152.7 16.2 25.3 151.7 1015.9 25.7
11-15-2021 19:02 22o 42.46' ( 22.7076) 154o 18.24' (-154.3040) 11.4 244.6 152.8 17.1 25.2 151.9 1015.7 25.6
11-15-2021 18:32 22o 44.81' ( 22.7468) 154o 12.67' (-154.2112) 11.2 245.8 145.9 19.9 25.2 151.9 1015.2 25.7
11-15-2021 18:02 22o 47.19' ( 22.7865) 154o 7.28' (-154.1213) 11.3 244.2 145.3 15.7 25.2 152.0 1015.3 25.7
11-15-2021 17:32 22o 49.72' ( 22.8286) 154o 1.88' (-154.0313) 11.3 245.5 138.0 17.6 24.8 151.9 1014.8 25.7
11-15-2021 17:02 22o 52.16' ( 22.8693) 153o 56.29' (-153.9382) 11.5 244.0 130.0 11.0 24.3 152.5 1014.7 25.8
11-15-2021 16:32 22o 54.65' ( 22.9109) 153o 50.68' (-153.8447) 11.3 243.6 164.9 12.1 23.9 152.4 1014.5 25.8
11-15-2021 16:02 22o 57.11' ( 22.9519) 153o 45.09' (-153.7515) 11.6 244.0 164.9 11.1 24.5 152.1 1014.3 25.7
11-15-2021 15:32 22o 59.64' ( 22.9941) 153o 39.44' (-153.6573) 11.7 242.9 167.8 10.7 24.8 152.0 1014.3 25.7
11-15-2021 15:02 23o 2.23' ( 23.0372) 153o 33.80' (-153.5633) 11.5 242.4 160.1 14.2 24.8 151.9 1014.1 25.7
11-15-2021 14:32 23o 4.79' ( 23.0798) 153o 28.23' (-153.4705) 11.4 242.0 154.6 15.4 24.7 151.9 1013.9 25.7
11-15-2021 14:02 23o 7.27' ( 23.1211) 153o 22.58' (-153.3763) 11.7 243.6 152.7 15.9 24.3 152.1 1014.0 25.7
11-15-2021 13:32 23o 9.84' ( 23.1639) 153o 16.79' (-153.2798) 12.1 241.6 150.5 17.0 24.6 151.9 1014.0 25.7
11-15-2021 13:02 23o 12.45' ( 23.2075) 153o 10.90' (-153.1816) 12.2 244.9 144.2 15.3 24.1 152.5 1014.2 25.6
11-15-2021 12:32 23o 14.99' ( 23.2499) 153o 4.88' (-153.0814) 12.1 248.5 146.4 12.0 24.4 152.0 1014.4 25.5
11-15-2021 12:02 23o 17.72' ( 23.2953) 152o 59.01' (-152.9834) 12.1 244.7 147.9 13.3 23.8 152.6 1014.8 25.5
11-15-2021 11:32 23o 20.28' ( 23.3380) 152o 53.14' (-152.8857) 11.9 244.7 149.1 9.2 24.1 152.1 1015.2 25.5
11-15-2021 11:02 23o 22.86' ( 23.3811) 152o 47.37' (-152.7895) 11.7 244.1 146.8 13.8 23.5 152.2 1015.4 25.6
11-15-2021 10:32 23o 25.37' ( 23.4229) 152o 41.65' (-152.6942) 11.7 245.3 170.0 12.7 23.8 152.5 1015.7 25.5
11-15-2021 10:02 23o 27.95' ( 23.4658) 152o 35.97' (-152.5995) 11.5 243.9 163.0 15.6 24.1 152.2 1015.0 25.4
11-15-2021 9:32 23o 30.46' ( 23.5077) 152o 30.37' (-152.5061) 11.3 244.7 187.3 11.1 24.1 152.0 1016.2 25.4
11-15-2021 9:02 23o 32.95' ( 23.5492) 152o 24.75' (-152.4125) 11.6 246.7 160.0 14.6 24.7 152.1 1016.6 25.2
11-15-2021 8:32 23o 35.37' ( 23.5895) 152o 18.92' (-152.3153) 11.9 245.5 157.0 13.2 24.8 151.9 1016.5 25.1
11-15-2021 8:02 23o 38.15' ( 23.6359) 152o 13.20' (-152.2200) 11.9 243.1 156.4 12.3 24.6 152.0 1016.8 25.3
11-15-2021 7:32 23o 40.63' ( 23.6771) 152o 7.36' (-152.1226) 11.7 244.7 155.5 12.2 24.6 152.0 1016.8 25.3
11-15-2021 7:02 23o 43.08' ( 23.7179) 152o 1.53' (-152.0254) 11.8 245.7 160.3 11.8 24.5 152.0 1017.2 25.1
11-15-2021 6:32 23o 45.60' ( 23.7600) 151o 55.85' (-151.9308) 11.4 243.8 143.5 12.2 24.5 151.0 1016.9 25.1
11-15-2021 6:02 23o 48.17' ( 23.8028) 151o 50.23' (-151.8371) 11.7 242.2 145.6 12.3 24.0 152.1 1016.6 25.1
11-15-2021 5:32 23o 50.84' ( 23.8474) 151o 44.50' (-151.7416) 11.9 242.3 150.0 12.6 24.5 152.1 1016.5 25.1
11-15-2021 5:02 23o 53.38' ( 23.8896) 151o 38.65' (-151.6442) 12.0 242.8 150.6 10.4 24.5 152.1 1016.2 25.1
11-15-2021 4:32 23o 56.05' ( 23.9341) 151o 32.65' (-151.5441) 12.4 244.3 159.0 8.9 24.4 152.1 1016.1 25.1
11-15-2021 4:02 23o 58.61' ( 23.9768) 151o 26.51' (-151.4419) 12.3 244.3 158.7 8.4 24.2 151.0 1016.0 25.1
11-15-2021 3:32 24o 1.20' ( 24.0200) 151o 20.56' (-151.3426) 12.0 242.5 155.2 9.5 24.2 151.0 1015.7 25.2
11-15-2021 3:02 24o 3.88' ( 24.0647) 151o 14.77' (-151.2462) 11.9 243.8 155.2 8.4 24.3 151.7 1015.3 25.2
11-15-2021 2:32 24o 6.49' ( 24.1082) 151o 8.95' (-151.1492) 11.9 244.6 167.1 8.8 24.3 150.0 1015.3 25.1
11-15-2021 2:02 24o 9.06' ( 24.1511) 151o 3.03' (-151.0505) 11.9 245.0 163.7 8.3 24.5 151.3 1014.9 25.1
11-15-2021 1:32 24o 11.68' ( 24.1946) 150o 57.09' (-150.9515) 12.0 245.4 163.2 8.9 24.1 151.2 1014.8 25.0
11-15-2021 1:02 24o 14.25' ( 24.2376) 150o 51.15' (-150.8525) 12.0 244.0 161.6 9.2 24.0 150.0 1014.8 24.7
11-15-2021 0:32 24o 16.85' ( 24.2808) 150o 45.30' (-150.7549) 11.9 244.7 163.9 10.0 24.6 150.9 1014.8 24.6
11-15-2021 0:02 24o 19.46' ( 24.3243) 150o 39.38' (-150.6564) 12.0 240.6 162.1 11.0 24.5 151.0 1014.8 24.6
11-14-2021 23:32 24o 22.00' ( 24.3667) 150o 33.39' (-150.5565) 12.1 242.5 159.4 9.5 24.3 151.1 1015.2 24.5
11-14-2021 23:02 24o 24.68' ( 24.4113) 150o 27.44' (-150.4573) 12.2 243.9 158.0 9.0 24.1 151.3 1015.3 24.5
11-14-2021 22:32 24o 27.36' ( 24.4560) 150o 21.42' (-150.3570) 12.4 244.0 157.0 7.8 24.2 151.7 1015.5 24.5
11-14-2021 22:02 24o 30.01' ( 24.5002) 150o 15.33' (-150.2555) 12.2 245.2 160.4 10.1 24.3 152.1 1015.8 24.5
11-14-2021 21:32 24o 32.72' ( 24.5453) 150o 9.32' (-150.1553) 12.2 244.6 165.0 9.5 24.4 152.1 1016.3 24.4
11-14-2021 21:02 24o 35.42' ( 24.5903) 150o 3.32' (-150.0554) 12.2 243.5 162.1 9.8 24.3 152.0 1016.7 24.4
11-14-2021 20:32 24o 38.03' ( 24.6338) 149o 57.32' (-149.9553) 12.0 244.6 170.1 10.0 24.2 152.2 1017.2 24.4
11-14-2021 20:02 24o 40.60' ( 24.6767) 149o 51.30' (-149.8550) 12.2 245.2 180.5 11.1 24.0 152.2 1017.1 24.4
11-14-2021 19:32 24o 43.25' ( 24.7208) 149o 45.32' (-149.7554) 12.2 245.1 156.7 13.3 24.1 152.3 1016.9 24.4
11-14-2021 19:02 24o 45.90' ( 24.7650) 149o 39.28' (-149.6546) 12.2 244.8 166.6 11.9 24.2 152.4 1017.3 24.4
11-14-2021 18:32 24o 48.56' ( 24.8093) 149o 33.32' (-149.5553) 12.0 245.6 158.1 9.2 23.9 152.1 1017.0 24.3
11-14-2021 18:02 24o 51.19' ( 24.8532) 149o 27.33' (-149.4555) 12.1 244.0 166.7 12.1 23.8 152.4 1016.9 24.3
11-14-2021 17:32 24o 53.83' ( 24.8972) 149o 21.40' (-149.3566) 12.1 242.2 162.0 12.3 23.7 152.2 1016.8 24.3
11-14-2021 17:02 24o 56.42' ( 24.9404) 149o 15.40' (-149.2566) 12.1 245.3 148.4 12.6 23.6 151.6 1016.6 24.4
11-14-2021 16:32 24o 59.12' ( 24.9854) 149o 9.54' (-149.1590) 12.0 241.4 153.0 14.8 23.5 152.6 1016.4 24.4
11-14-2021 16:02 25o 1.73' ( 25.0289) 149o 3.57' (-149.0595) 12.1 243.7 152.6 13.5 23.4 152.6 1016.4 24.4
11-14-2021 15:32 25o 4.22' ( 25.0703) 148o 57.59' (-148.9598) 12.0 245.7 167.3 11.4 23.4 152.0 1016.4 24.4
11-14-2021 15:02 25o 6.79' ( 25.1131) 148o 51.70' (-148.8617) 11.8 242.3 178.2 12.9 23.4 152.1 1016.1 24.4
11-14-2021 14:32 25o 9.45' ( 25.1574) 148o 45.86' (-148.7643) 11.8 244.2 166.9 12.0 23.1 152.2 1016.1 24.4
11-14-2021 14:02 25o 11.98' ( 25.1996) 148o 39.98' (-148.6664) 11.8 243.0 172.5 12.0 23.2 152.5 1016.1 24.4
11-14-2021 13:32 25o 14.49' ( 25.2415) 148o 34.13' (-148.5688) 11.7 245.5 179.0 13.4 23.6 152.0 1016.1 24.3
11-14-2021 13:02 25o 17.06' ( 25.2843) 148o 28.28' (-148.4714) 11.8 243.1 165.6 12.9 23.0 152.1 1016.1 24.3
11-14-2021 12:32 25o 19.59' ( 25.3265) 148o 22.39' (-148.3731) 11.9 244.4 162.9 12.0 23.3 152.3 1016.1 24.2
11-14-2021 12:02 25o 22.22' ( 25.3703) 148o 16.40' (-148.2733) 12.2 244.9 156.6 12.4 22.9 152.4 1016.2 24.1
11-14-2021 11:32 25o 24.85' ( 25.4142) 148o 10.40' (-148.1733) 12.1 244.6 122.0 14.6 22.5 151.4 1016.7 24.2
11-14-2021 11:02 25o 27.47' ( 25.4578) 148o 4.43' (-148.0738) 12.0 241.7 142.4 16.5 22.1 151.6 1017.1 24.2
11-14-2021 10:32 25o 30.13' ( 25.5021) 147o 58.44' (-147.9740) 12.2 244.8 105.7 11.9 21.7 151.6 1017.7 24.1
11-14-2021 10:02 25o 32.63' ( 25.5438) 147o 52.32' (-147.8721) 11.9 243.2 207.6 9.4 21.0 153.0 1017.9 24.1
11-14-2021 9:32 25o 35.27' ( 25.5878) 147o 46.51' (-147.7752) 11.8 243.0 149.0 13.2 23.5 152.1 1017.8 24.1
11-14-2021 9:02 25o 37.90' ( 25.6317) 147o 40.67' (-147.6778) 11.9 242.7 150.8 13.6 23.4 152.0 1017.9 24.0
11-14-2021 8:32 25o 40.50' ( 25.6749) 147o 34.76' (-147.5793) 11.9 244.9 152.5 13.4 23.5 152.1 1018.2 24.1
11-14-2021 8:02 25o 43.01' ( 25.7169) 147o 28.76' (-147.4793) 11.9 244.7 140.2 16.4 23.5 152.0 1018.1 24.1
11-14-2021 7:32 25o 45.59' ( 25.7599) 147o 22.79' (-147.3798) 12.0 244.1 147.1 14.4 23.5 152.1 1018.5 24.0
11-14-2021 7:02 25o 48.28' ( 25.8046) 147o 16.85' (-147.2809) 12.1 244.8 115.2 17.3 23.2 152.3 1018.6 23.8
11-14-2021 6:32 25o 50.87' ( 25.8478) 147o 10.83' (-147.1805) 12.0 245.1 140.4 14.4 23.0 152.3 1018.0 23.8
11-14-2021 6:02 25o 53.41' ( 25.8902) 147o 4.82' (-147.0803) 12.0 245.6 144.7 9.5 23.0 152.3 1018.7 23.8
11-14-2021 5:32 25o 56.02' ( 25.9336) 146o 58.81' (-146.9801) 12.0 245.5 158.9 10.0 23.0 152.2 1018.6 23.7
11-14-2021 5:02 25o 58.77' ( 25.9794) 146o 52.85' (-146.8808) 12.2 243.5 160.3 8.1 23.0 152.0 1018.4 23.6
11-14-2021 4:32 26o 1.34' ( 26.0223) 146o 46.65' (-146.7776) 12.3 246.1 153.7 11.2 23.4 153.0 1018.4 23.6
11-14-2021 4:02 26o 3.89' ( 26.0648) 146o 40.49' (-146.6748) 12.3 246.0 153.2 11.8 23.2 153.2 1017.9 23.6
11-14-2021 3:32 26o 6.53' ( 26.1088) 146o 34.38' (-146.5730) 12.1 243.8 143.5 9.3 22.9 152.8 1017.5 23.6
11-14-2021 3:02 26o 9.25' ( 26.1541) 146o 28.43' (-146.4738) 11.8 245.0 164.0 9.6 22.5 152.0 1017.1 23.6
11-14-2021 2:32 26o 11.82' ( 26.1971) 146o 22.63' (-146.3772) 11.5 244.1 169.5 8.9 22.9 153.0 1016.8 23.6
11-14-2021 2:02 26o 14.36' ( 26.2394) 146o 16.78' (-146.2797) 11.8 246.7 154.7 12.0 23.2 154.7 1016.4 23.6
11-14-2021 1:32 26o 16.87' ( 26.2812) 146o 10.77' (-146.1795) 11.8 244.3 153.0 13.3 23.1 155.1 1016.6 23.6
11-14-2021 1:02 26o 19.48' ( 26.3247) 146o 4.76' (-146.0794) 12.2 246.0 145.0 14.6 23.0 155.0 1016.3 23.6
11-14-2021 0:32 26o 22.17' ( 26.3695) 145o 58.61' (-145.9769) 12.4 246.6 161.6 9.8 22.6 154.6 1016.4 23.6
11-14-2021 0:02 26o 24.88' ( 26.4147) 145o 52.37' (-145.8729) 12.1 241.7 129.9 16.8 23.4 155.3 1016.1 23.6
11-13-2021 23:32 26o 27.56' ( 26.4593) 145o 46.31' (-145.7719) 12.1 242.5 166.1 13.7 22.6 154.3 1016.5 23.6
11-13-2021 23:02 26o 30.19' ( 26.5031) 145o 40.39' (-145.6731) 12.1 242.9 183.2 10.0 22.3 154.1 1016.9 23.6
11-13-2021 22:32 26o 32.75' ( 26.5459) 145o 34.35' (-145.5725) 12.0 244.6 167.1 13.5 23.2 154.0 1017.1 23.7
11-13-2021 22:02 26o 35.33' ( 26.5889) 145o 28.23' (-145.4705) 12.1 241.1 138.4 19.8 24.0 155.0 1017.7 23.6
11-13-2021 21:32 26o 37.86' ( 26.6310) 145o 22.12' (-145.3686) 12.2 243.0 137.4 16.7 23.6 155.2 1018.2 23.6
11-13-2021 21:02 26o 40.60' ( 26.6767) 145o 16.09' (-145.2682) 12.2 241.8 136.6 16.3 23.4 156.1 1018.8 23.8
11-13-2021 20:32 26o 43.20' ( 26.7200) 145o 10.05' (-145.1675) 12.0 244.7 142.5 10.9 23.3 153.5 1019.5 23.8
11-13-2021 20:02 26o 45.74' ( 26.7624) 145o 3.95' (-145.0659) 12.0 244.9 144.9 12.3 23.2 153.4 1019.9 23.6
11-13-2021 19:32 26o 48.32' ( 26.8054) 144o 57.96' (-144.9660) 12.0 244.8 139.2 12.6 22.6 153.0 1020.1 23.7
11-13-2021 19:02 26o 50.95' ( 26.8492) 144o 52.03' (-144.8672) 11.8 243.4 151.2 7.1 21.4 152.6 1020.4 23.7
11-13-2021 18:32 26o 53.48' ( 26.8913) 144o 46.02' (-144.7670) 12.1 244.5 126.1 9.9 22.0 154.4 1020.5 23.9
11-13-2021 18:02 26o 56.11' ( 26.9351) 144o 40.09' (-144.6682) 11.8 243.2 182.7 7.9 22.3 154.2 1020.6 23.7
11-13-2021 17:32 26o 58.78' ( 26.9796) 144o 34.13' (-144.5688) 11.8 243.7 166.2 8.3 22.5 154.4 1020.5 23.7
11-13-2021 17:02 27o 1.28' ( 27.0213) 144o 28.16' (-144.4693) 11.8 249.6 180.4 7.9 22.7 155.1 1020.4 23.8
11-13-2021 16:32 27o 3.76' ( 27.0627) 144o 22.08' (-144.3680) 12.1 246.9 128.6 14.5 23.2 155.7 1020.3 23.5
11-13-2021 16:02 27o 6.44' ( 27.1073) 144o 16.03' (-144.2671) 12.0 246.8 140.3 15.9 23.0 155.5 1020.3 23.3
11-13-2021 15:32 27o 9.02' ( 27.1504) 144o 9.96' (-144.1661) 12.0 245.5 133.0 15.7 23.0 155.2 1020.5 23.3
11-13-2021 15:02 27o 11.78' ( 27.1964) 144o 3.92' (-144.0653) 12.2 241.8 131.4 15.3 22.7 154.9 1020.3 23.2
11-13-2021 14:32 27o 14.73' ( 27.2456) 143o 57.88' (-143.9647) 12.1 243.5 123.1 15.6 22.8 154.5 1020.3 23.1
11-13-2021 14:02 27o 17.57' ( 27.2929) 143o 51.90' (-143.8649) 11.9 240.8 133.5 14.0 22.6 154.3 1020.2 23.0
11-13-2021 13:32 27o 19.59' ( 27.3264) 143o 45.60' (-143.7599) 12.0 243.5 129.6 18.7 22.6 155.2 1020.0 23.0
11-13-2021 13:02 27o 22.19' ( 27.3698) 143o 39.41' (-143.6568) 12.2 242.5 128.7 17.4 22.7 155.4 1020.1 22.9
11-13-2021 12:32 27o 24.90' ( 27.4150) 143o 33.17' (-143.5528) 12.6 241.0 124.3 19.2 22.6 155.0 1020.5 23.0
11-13-2021 12:02 27o 27.60' ( 27.4600) 143o 26.82' (-143.4470) 12.4 245.1 121.4 18.6 22.5 154.2 1020.5 22.9
11-13-2021 11:32 27o 30.32' ( 27.5053) 143o 20.61' (-143.3436) 12.2 244.0 127.1 18.3 22.4 154.0 1020.8 22.9
11-13-2021 11:02 27o 32.97' ( 27.5495) 143o 14.34' (-143.2390) 12.4 244.3 113.8 14.7 22.6 152.8 1021.2 22.9
11-13-2021 10:32 27o 35.70' ( 27.5949) 143o 7.99' (-143.1331) 12.3 244.7 128.5 16.5 22.8 155.0 1021.4 22.9
11-13-2021 10:02 27o 38.38' ( 27.6397) 143o 1.68' (-143.0280) 12.5 244.8 134.0 13.1 22.6 156.1 1021.4 22.9
11-13-2021 9:32 27o 41.12' ( 27.6854) 142o 55.42' (-142.9237) 12.2 244.2 123.9 16.3 22.2 155.6 1021.6 22.9
11-13-2021 9:02 27o 43.76' ( 27.7293) 142o 49.25' (-142.8208) 12.3 243.4 116.0 14.9 22.2 152.8 1021.9 22.9
11-13-2021 8:32 27o 46.34' ( 27.7723) 142o 43.06' (-142.7177) 12.2 245.3 119.8 21.4 22.3 153.2 1022.2 22.9
11-13-2021 8:02 27o 48.84' ( 27.8141) 142o 36.83' (-142.6138) 12.1 245.1 115.6 20.1 22.6 154.2 1022.3 22.9
11-13-2021 7:32 27o 51.43' ( 27.8571) 142o 30.70' (-142.5117) 12.0 242.6 133.6 12.8 22.3 154.7 1022.7 22.9
11-13-2021 7:02 27o 54.07' ( 27.9012) 142o 24.63' (-142.4105) 12.2 244.8 117.0 13.0 21.9 154.0 1022.7 22.9
11-13-2021 6:32 27o 56.75' ( 27.9458) 142o 18.46' (-142.3076) 12.3 243.1 125.9 14.5 21.7 153.8 1022.8 22.8
11-13-2021 6:02 27o 58.14' ( 27.9690) 142o 15.71' (-142.2618) 0.3 94.3 106.3 9.5 20.9 154.0 1023.0 22.8
11-13-2021 5:32 27o 58.05' ( 27.9676) 142o 15.70' (-142.2617) 1.2 52.7 118.1 16.5 21.2 154.8 1022.8 22.9
11-13-2021 5:02 27o 56.86' ( 27.9477) 142o 15.23' (-142.2539) 8.0 174.0 105.5 20.1 22.2 155.0 1022.3 22.8
11-13-2021 4:32 28o 0.90' ( 28.0150) 142o 15.59' (-142.2599) 8.1 174.9 114.6 11.7 22.1 155.4 1022.3 22.9
11-13-2021 4:02 28o 4.89' ( 28.0816) 142o 15.84' (-142.2641) 8.0 177.5 121.6 16.4 22.2 155.0 1022.0 22.9
11-13-2021 3:32 28o 8.96' ( 28.1493) 142o 16.05' (-142.2675) 8.2 177.7 104.7 14.0 22.5 155.4 1021.8 22.8
11-13-2021 3:02 28o 13.08' ( 28.2179) 142o 16.13' (-142.2688) 8.1 182.1 117.3 12.3 22.4 155.2 1021.5 22.9
11-13-2021 2:32 28o 17.06' ( 28.2844) 142o 16.18' (-142.2697) 7.6 180.8 111.5 15.5 22.8 155.3 1021.3 22.9
11-13-2021 2:02 28o 18.95' ( 28.3158) 142o 16.27' (-142.2712) 5.6 136.3 124.8 11.2 22.2 155.3 1021.2 22.9
11-13-2021 1:32 28o 18.29' ( 28.3048) 142o 18.54' (-142.3090) 5.9 39.4 104.4 14.5 23.1 155.5 1021.2 22.9
11-13-2021 1:02 28o 17.41' ( 28.2901) 142o 16.97' (-142.2828) 4.7 179.6 105.4 15.7 22.6 155.7 1021.0 22.9
11-13-2021 0:32 28o 18.16' ( 28.3027) 142o 17.00' (-142.2833) 0.3 129.7 114.3 13.5 22.2 155.5 1021.0 22.9
11-13-2021 0:02 28o 18.17' ( 28.3028) 142o 16.99' (-142.2832) 0.3 124.6 116.4 10.9 22.4 155.0 1021.0 22.9
11-12-2021 23:32 28o 18.17' ( 28.3028) 142o 16.99' (-142.2831) 0.3 131.4 119.3 9.2 23.0 155.4 1021.3 22.9
11-12-2021 23:02 28o 18.17' ( 28.3028) 142o 16.99' (-142.2831) 0.4 120.0 123.4 9.5 23.1 156.5 1021.2 22.9
11-12-2021 22:32 28o 18.27' ( 28.3044) 142o 16.87' (-142.2811) 6.4 224.0 114.8 11.9 23.4 155.4 1021.7 22.9
11-12-2021 22:02 28o 17.90' ( 28.2984) 142o 16.62' (-142.2770) 8.1 50.1 118.8 11.5 23.2 155.3 1021.9 22.9
11-12-2021 21:32 28o 15.15' ( 28.2525) 142o 20.19' (-142.3366) 8.4 50.6 116.0 12.5 23.0 155.4 1022.2 22.9
11-12-2021 21:02 28o 12.21' ( 28.2035) 142o 23.66' (-142.3943) 8.6 47.7 121.6 14.6 22.5 156.1 1022.4 22.9
11-12-2021 20:32 28o 9.38' ( 28.1563) 142o 27.27' (-142.4546) 8.5 51.8 121.9 13.1 22.1 155.0 1022.9 22.9
11-12-2021 20:02 28o 6.59' ( 28.1098) 142o 30.76' (-142.5127) 8.1 46.9 111.2 13.4 22.5 155.6 1023.0 22.9
11-12-2021 19:32 28o 3.77' ( 28.0629) 142o 34.13' (-142.5688) 8.2 47.8 122.3 14.8 22.7 156.6 1023.1 22.9
11-12-2021 19:02 28o 1.06' ( 28.0177) 142o 37.61' (-142.6268) 8.2 48.4 122.2 16.7 22.5 156.6 1023.3 22.8
11-12-2021 18:32 27o 58.26' ( 27.9710) 142o 41.10' (-142.6849) 8.2 48.1 121.6 15.1 21.8 156.8 1023.4 22.8
11-12-2021 18:02 27o 55.48' ( 27.9247) 142o 44.53' (-142.7422) 8.1 48.5 117.3 13.3 22.4 155.8 1023.5 22.9
11-12-2021 17:32 27o 52.70' ( 27.8783) 142o 48.04' (-142.8007) 8.6 48.5 123.6 10.7 22.6 156.5 1023.0 22.9
11-12-2021 17:02 27o 49.91' ( 27.8319) 142o 51.48' (-142.8580) 8.2 48.2 111.3 12.7 22.4 155.4 1023.1 22.9
11-12-2021 16:32 27o 47.17' ( 27.7862) 142o 54.86' (-142.9143) 8.1 49.4 114.0 9.3 22.5 156.6 1022.9 22.9
11-12-2021 16:02 27o 44.42' ( 27.7403) 142o 58.34' (-142.9723) 8.3 48.7 141.7 13.5 21.5 155.8 1022.8 22.9
11-12-2021 15:32 27o 41.58' ( 27.6930) 143o 1.74' (-143.0289) 8.3 47.8 119.2 9.7 21.5 156.1 1022.8 22.9
11-12-2021 15:02 27o 38.92' ( 27.6487) 143o 5.17' (-143.0862) 7.7 50.9 97.4 11.4 21.3 155.6 1022.4 23.0
11-12-2021 14:32 27o 36.37' ( 27.6062) 143o 8.40' (-143.1400) 7.8 49.4 96.7 8.9 22.1 156.2 1022.2 22.9
11-12-2021 14:02 27o 33.74' ( 27.5624) 143o 11.65' (-143.1941) 8.0 48.5 101.5 8.5 22.2 155.7 1022.1 22.9
11-12-2021 13:32 27o 31.05' ( 27.5176) 143o 14.91' (-143.2486) 8.0 49.0 105.4 8.6 22.4 155.5 1022.1 22.9
11-12-2021 13:02 27o 28.18' ( 27.4696) 143o 17.99' (-143.2998) 7.8 354.4 126.9 10.1 22.6 153.4 1022.2 22.9
11-12-2021 12:32 27o 29.50' ( 27.4917) 143o 18.37' (-143.3062) 5.1 122.4 116.8 11.1 22.9 153.0 1022.1 22.9
11-12-2021 12:02 27o 27.76' ( 27.4626) 143o 19.71' (-143.3286) 5.7 327.4 121.6 13.0 23.0 154.7 1022.0 22.9
11-12-2021 11:32 27o 27.83' ( 27.4639) 143o 18.49' (-143.3082) 4.6 175.9 125.3 15.8 22.5 155.6 1021.6 22.9
11-12-2021 11:02 27o 28.12' ( 27.4687) 143o 18.50' (-143.3084) 0.4 109.5 129.4 13.2 22.4 155.2 1021.9 22.9
11-12-2021 10:32 27o 28.11' ( 27.4685) 143o 18.51' (-143.3084) 0.4 115.6 110.0 9.1 22.2 156.2 1021.9 22.9
11-12-2021 10:02 27o 28.09' ( 27.4682) 143o 18.51' (-143.3085) 0.3 99.3 103.9 7.7 22.3 156.3 1022.3 22.9
11-12-2021 9:32 27o 28.12' ( 27.4686) 143o 18.49' (-143.3081) 0.3 138.0 111.2 6.5 22.3 155.5 1022.6 22.9
11-12-2021 9:02 27o 28.30' ( 27.4717) 143o 18.28' (-143.3047) 6.3 304.2 182.6 2.9 22.1 155.4 1022.7 22.9
11-12-2021 8:32 27o 26.54' ( 27.4423) 143o 16.09' (-143.2682) 8.4 122.9 142.9 5.3 22.1 155.5 1023.0 22.9
11-12-2021 8:02 27o 28.98' ( 27.4830) 143o 19.97' (-143.3328) 8.3 122.5 128.7 9.7 22.1 156.0 1022.9 22.9
11-12-2021 7:32 27o 31.35' ( 27.5225) 143o 23.76' (-143.3960) 8.3 123.1 122.8 9.8 22.3 155.0 1022.9 22.9
11-12-2021 7:02 27o 33.85' ( 27.5641) 143o 27.52' (-143.4587) 8.3 127.3 99.2 8.6 22.3 155.3 1023.1 23.0
11-12-2021 6:32 27o 36.22' ( 27.6036) 143o 31.33' (-143.5222) 8.5 124.4 106.8 4.9 21.9 155.3 1023.0 22.9
11-12-2021 6:02 27o 38.57' ( 27.6429) 143o 35.23' (-143.5871) 8.5 123.3 86.7 6.5 22.4 155.4 1023.0 23.1
11-12-2021 5:32 27o 41.06' ( 27.6843) 143o 39.13' (-143.6521) 8.4 124.4 115.9 10.1 22.5 155.3 1022.6 23.0
11-12-2021 5:02 27o 43.53' ( 27.7255) 143o 42.96' (-143.7161) 8.5 126.6 117.0 11.1 22.2 155.6 1022.5 23.0
11-12-2021 4:32 27o 46.01' ( 27.7669) 143o 46.85' (-143.7808) 8.4 124.9 105.7 8.1 22.3 156.2 1022.2 23.0
11-12-2021 4:02 27o 48.38' ( 27.8064) 143o 50.77' (-143.8462) 8.4 123.7 99.8 7.0 22.1 156.1 1022.0 22.9
11-12-2021 3:32 27o 50.87' ( 27.8478) 143o 54.61' (-143.9102) 8.5 126.3 118.8 6.1 22.2 156.2 1021.8 23.0
11-12-2021 3:02 27o 53.31' ( 27.8886) 143o 58.46' (-143.9743) 8.4 126.5 126.4 7.8 22.0 155.0 1021.4 23.3
11-12-2021 2:32 27o 55.71' ( 27.9285) 144o 2.39' (-144.0398) 8.6 123.8 126.6 7.1 22.3 156.4 1021.2 23.3
11-12-2021 2:02 27o 58.24' ( 27.9707) 144o 6.36' (-144.1060) 8.7 126.4 66.6 3.4 22.2 155.6 1021.3 23.3
11-12-2021 1:32 28o 0.77' ( 28.0128) 144o 10.36' (-144.1727) 8.6 126.7 147.8 4.0 22.8 155.9 1021.1 23.2
11-12-2021 1:02 28o 3.25' ( 28.0541) 144o 14.28' (-144.2380) 8.6 128.2 149.7 3.7 22.6 156.5 1021.0 23.3
11-12-2021 0:32 28o 5.74' ( 28.0957) 144o 18.25' (-144.3041) 8.6 127.9 126.9 4.5 22.2 155.2 1021.0 23.2
11-12-2021 0:02 28o 8.28' ( 28.1380) 144o 22.14' (-144.3690) 7.4 131.5 136.8 7.1 22.1 154.4 1020.9 23.2
11-11-2021 23:32 28o 9.82' ( 28.1637) 144o 22.66' (-144.3777) 5.7 141.5 126.2 4.8 22.5 154.8 1021.0 23.2
11-11-2021 23:02 28o 8.68' ( 28.1447) 144o 24.60' (-144.4100) 6.0 317.7 101.4 6.5 23.6 154.6 1021.2 23.2
11-11-2021 22:32 28o 8.26' ( 28.1377) 144o 23.16' (-144.3860) 4.7 179.4 92.9 7.9 22.8 154.0 1021.3 23.2
11-11-2021 22:02 28o 8.83' ( 28.1471) 144o 23.18' (-144.3863) 0.3 137.8 107.4 11.5 22.3 155.9 1021.4 23.2
11-11-2021 21:32 28o 8.83' ( 28.1471) 144o 23.18' (-144.3863) 0.3 139.2 128.4 11.6 22.7 156.3 1021.5 23.2
11-11-2021 21:02 28o 8.83' ( 28.1471) 144o 23.18' (-144.3863) 0.3 138.7 121.7 8.6 22.3 155.9 1022.0 23.1
11-11-2021 20:32 28o 8.83' ( 28.1471) 144o 23.18' (-144.3863) 0.3 137.8 127.1 12.9 21.6 154.8 1022.5 23.1
11-11-2021 20:02 28o 8.85' ( 28.1475) 144o 23.21' (-144.3869) 0.6 201.3 133.6 20.7 23.6 155.0 1022.7 23.1
11-11-2021 19:32 28o 6.22' ( 28.1037) 144o 21.44' (-144.3573) 8.5 329.9 148.9 10.6 23.6 156.2 1023.0 23.1
11-11-2021 19:02 28o 7.67' ( 28.1279) 144o 20.17' (-144.3362) 8.3 171.5 142.3 10.6 22.7 155.9 1022.9 23.1
11-11-2021 18:32 28o 11.72' ( 28.1953) 144o 21.14' (-144.3523) 8.4 168.8 156.9 9.5 22.5 156.1 1023.0 23.1
11-11-2021 18:02 28o 15.79' ( 28.2632) 144o 21.96' (-144.3661) 8.3 168.7 145.4 9.7 22.9 155.0 1022.2 23.1
11-11-2021 17:32 28o 19.91' ( 28.3319) 144o 22.82' (-144.3803) 8.2 168.9 148.9 14.5 22.2 155.4 1022.8 23.1
11-11-2021 17:02 28o 23.96' ( 28.3993) 144o 23.71' (-144.3952) 8.3 167.4 150.7 12.2 22.1 154.4 1022.7 23.1
11-11-2021 16:32 28o 28.04' ( 28.4674) 144o 24.68' (-144.4114) 8.4 167.3 151.5 9.6 22.3 154.0 1022.6 23.1
11-11-2021 16:02 28o 32.13' ( 28.5355) 144o 25.57' (-144.4261) 8.2 167.2 147.0 13.3 22.9 155.5 1022.1 23.1
11-11-2021 15:32 28o 36.21' ( 28.6035) 144o 26.75' (-144.4458) 8.4 165.0 156.4 11.1 22.5 155.0 1022.0 23.1
11-11-2021 15:02 28o 40.29' ( 28.6714) 144o 27.80' (-144.4633) 8.4 166.4 155.0 11.3 22.6 155.0 1022.0 23.0
11-11-2021 14:32 28o 44.36' ( 28.7393) 144o 28.82' (-144.4803) 8.3 165.7 151.1 13.9 22.4 155.4 1021.8 23.0
11-11-2021 14:02 28o 48.44' ( 28.8073) 144o 29.92' (-144.4986) 8.4 165.0 156.6 13.1 22.2 153.7 1021.8 23.0
11-11-2021 13:32 28o 51.83' ( 28.8638) 144o 30.44' (-144.5074) 2.6 275.8 143.8 12.2 22.8 152.4 1022.1 22.9
11-11-2021 13:02 28o 51.70' ( 28.8617) 144o 27.83' (-144.4638) 5.2 276.9 150.4 13.7 22.9 153.0 1022.4 22.9
11-11-2021 12:32 28o 51.56' ( 28.8593) 144o 24.86' (-144.4144) 5.1 276.8 174.2 10.8 22.6 153.5 1022.6 22.9
11-11-2021 12:02 28o 51.43' ( 28.8572) 144o 21.96' (-144.3661) 5.1 275.8 186.5 10.0 22.4 152.6 1022.8 22.9
11-11-2021 11:32 28o 51.28' ( 28.8547) 144o 19.05' (-144.3174) 5.1 273.0 213.2 9.8 21.8 152.9 1022.9 22.9
11-11-2021 11:02 28o 51.18' ( 28.8529) 144o 16.25' (-144.2708) 5.1 270.8 157.7 15.6 23.0 153.4 1023.0 23.0
11-11-2021 10:32 28o 51.07' ( 28.8511) 144o 13.37' (-144.2228) 5.1 274.2 152.0 17.2 22.8 153.4 1023.2 23.0
11-11-2021 10:02 28o 50.92' ( 28.8486) 144o 10.48' (-144.1747) 5.2 273.7 150.2 18.5 22.9 152.8 1023.3 23.0
11-11-2021 9:32 28o 50.91' ( 28.8484) 144o 7.76' (-144.1293) 4.7 267.2 147.9 16.7 23.1 153.4 1023.5 23.0
11-11-2021 9:02 28o 50.74' ( 28.8457) 144o 5.06' (-144.0844) 4.9 269.8 143.5 17.6 23.1 153.7 1023.7 22.8
11-11-2021 8:32 28o 50.60' ( 28.8434) 144o 2.23' (-144.0371) 5.1 272.9 145.2 15.6 23.2 153.6 1023.8 22.9
11-11-2021 8:02 28o 50.45' ( 28.8409) 143o 59.34' (-143.9891) 5.1 270.0 136.9 17.8 22.9 154.2 1023.8 22.9
11-11-2021 7:32 28o 50.36' ( 28.8393) 143o 56.32' (-143.9387) 5.5 269.5 134.5 18.7 23.1 154.6 1023.9 22.9
11-11-2021 7:02 28o 50.20' ( 28.8367) 143o 53.28' (-143.8880) 5.3 269.8 137.5 16.4 23.0 155.1 1023.9 22.8
11-11-2021 6:32 28o 50.09' ( 28.8349) 143o 50.32' (-143.8386) 5.3 269.2 142.1 15.3 23.1 155.3 1024.0 22.9
11-11-2021 6:02 28o 50.00' ( 28.8334) 143o 47.34' (-143.7890) 5.3 271.1 140.9 15.5 23.1 155.4 1023.8 22.9
11-11-2021 5:32 28o 49.83' ( 28.8305) 143o 44.38' (-143.7397) 5.1 275.2 141.5 16.4 23.1 154.0 1023.8 22.9
11-11-2021 5:02 28o 49.64' ( 28.8273) 143o 41.48' (-143.6913) 5.3 275.6 140.4 14.4 23.0 154.0 1023.9 22.9
11-11-2021 4:32 28o 49.50' ( 28.8250) 143o 38.57' (-143.6428) 4.9 274.9 138.3 13.9 23.1 153.2 1023.7 22.9
11-11-2021 4:02 28o 49.40' ( 28.8234) 143o 35.74' (-143.5957) 5.1 274.7 135.9 13.4 23.0 154.1 1023.6 22.8
11-11-2021 3:32 28o 49.16' ( 28.8193) 143o 33.00' (-143.5500) 4.8 274.9 139.6 12.6 23.1 154.8 1023.2 22.9
11-11-2021 3:02 28o 49.05' ( 28.8175) 143o 30.56' (-143.5093) 1.7 259.6 141.9 12.6 23.1 155.0 1022.9 22.9
11-11-2021 2:32 28o 49.04' ( 28.8174) 143o 29.67' (-143.4946) 0.8 220.8 151.2 9.9 23.3 155.9 1022.7 22.9
11-11-2021 2:02 28o 48.96' ( 28.8161) 143o 27.44' (-143.4573) 5.2 229.8 170.8 9.4 22.7 156.0 1022.7 22.9
11-11-2021 1:32 28o 50.08' ( 28.8347) 143o 29.52' (-143.4920) 5.9 44.4 172.5 12.2 23.5 155.7 1022.8 22.9
11-11-2021 1:02 28o 47.92' ( 28.7987) 143o 29.42' (-143.4903) 6.1 313.7 166.6 13.0 23.3 155.0 1022.6 23.0
11-11-2021 0:32 28o 49.09' ( 28.8182) 143o 28.96' (-143.4827) 0.3 224.3 170.7 9.9 23.2 154.2 1022.5 22.9
11-11-2021 0:02 28o 49.10' ( 28.8183) 143o 28.97' (-143.4828) 0.3 216.1 159.1 11.2 23.2 153.7 1022.5 23.0
11-10-2021 23:32 28o 49.11' ( 28.8184) 143o 28.99' (-143.4831) 0.3 197.7 168.9 12.4 22.9 153.5 1022.8 23.0
11-10-2021 23:02 28o 49.11' ( 28.8184) 143o 29.00' (-143.4834) 0.3 185.2 154.5 11.0 23.4 153.2 1022.9 22.9
11-10-2021 22:32 28o 49.11' ( 28.8185) 143o 29.01' (-143.4834) 0.2 179.9 153.7 10.7 23.2 154.1 1023.2 22.9
11-10-2021 22:02 28o 50.35' ( 28.8392) 143o 28.62' (-143.4769) 8.1 200.0 156.6 11.7 22.6 154.3 1023.3 22.9
11-10-2021 21:32 28o 51.27' ( 28.8545) 143o 28.19' (-143.4699) 8.9 25.0 152.0 12.7 23.1 154.8 1023.8 22.9
11-10-2021 21:02 28o 47.27' ( 28.7878) 143o 30.51' (-143.5085) 8.9 25.7 152.0 13.0 23.4 156.6 1024.2 22.9
11-10-2021 20:32 28o 43.25' ( 28.7208) 143o 32.78' (-143.5464) 8.9 25.2 153.0 17.5 23.9 156.4 1024.5 22.9
11-10-2021 20:02 28o 39.26' ( 28.6543) 143o 35.06' (-143.5843) 8.8 27.8 168.9 15.4 23.6 156.0 1024.8 22.9
11-10-2021 19:32 28o 35.31' ( 28.5884) 143o 37.37' (-143.6228) 8.9 31.3 160.4 16.1 23.1 154.3 1024.8 22.9
11-10-2021 19:02 28o 31.38' ( 28.5229) 143o 39.72' (-143.6620) 8.9 30.7 154.4 18.8 22.9 152.7 1025.1 22.9
11-10-2021 18:32 28o 27.37' ( 28.4562) 143o 41.95' (-143.6991) 8.9 28.0 156.2 14.4 22.0 153.0 1025.0 22.8
11-10-2021 18:02 28o 23.44' ( 28.3907) 143o 44.31' (-143.7384) 8.9 30.9 173.5 10.7 21.7 153.2 1025.1 22.8
11-10-2021 17:32 28o 19.47' ( 28.3245) 143o 46.64' (-143.7773) 8.9 29.2 148.3 12.5 21.2 153.0 1025.0 22.9
11-10-2021 17:02 28o 15.47' ( 28.2579) 143o 48.88' (-143.8147) 8.8 28.5 165.7 19.0 21.3 153.2 1024.7 22.8
11-10-2021 16:32 28o 11.52' ( 28.1920) 143o 51.13' (-143.8522) 8.9 27.3 169.6 16.0 21.6 154.2 1024.3 23.2
11-10-2021 16:02 28o 7.53' ( 28.1254) 143o 53.41' (-143.8902) 8.8 27.3 175.6 15.5 22.0 155.9 1023.9 23.2
11-10-2021 15:32 28o 3.55' ( 28.0592) 143o 55.68' (-143.9279) 9.1 27.0 143.0 19.6 22.6 155.0 1023.7 23.0
11-10-2021 15:02 27o 59.65' ( 27.9941) 143o 58.04' (-143.9673) 8.6 29.4 135.1 9.5 22.3 156.2 1023.7 23.0
11-10-2021 14:32 27o 55.78' ( 27.9297) 144o 0.25' (-144.0042) 8.7 28.6 152.3 15.2 22.1 156.1 1023.5 23.2
11-10-2021 13:32 27o 47.96' ( 27.7993) 144o 4.66' (-144.0777) 8.8 27.7 149.6 17.6 23.4 155.7 1022.9 23.2
11-10-2021 13:02 27o 44.02' ( 27.7337) 144o 6.93' (-144.1155) 8.8 27.0 148.2 14.8 23.2 155.7 1023.1 23.2
11-10-2021 12:32 27o 40.16' ( 27.6693) 144o 9.18' (-144.1530) 8.7 27.4 169.0 14.7 22.9 155.6 1023.1 23.3
11-10-2021 12:02 27o 36.25' ( 27.6042) 144o 11.35' (-144.1892) 8.8 26.7 183.9 9.2 22.3 156.7 1023.2 23.2
11-10-2021 11:32 27o 32.40' ( 27.5401) 144o 13.60' (-144.2267) 8.6 27.7 146.7 19.0 22.4 156.7 1023.1 23.3
11-10-2021 11:02 27o 28.61' ( 27.4768) 144o 15.74' (-144.2624) 8.5 25.5 154.4 13.1 23.5 155.1 1023.1 23.3
11-10-2021 10:32 27o 24.80' ( 27.4133) 144o 17.90' (-144.2984) 8.6 24.9 151.6 13.0 23.3 155.4 1023.2 23.3
11-10-2021 10:02 27o 20.95' ( 27.3491) 144o 20.11' (-144.3351) 8.6 25.7 143.1 13.6 23.2 156.2 1023.2 23.3
11-10-2021 9:32 27o 17.14' ( 27.2857) 144o 22.26' (-144.3709) 8.5 25.2 133.6 14.8 23.0 156.3 1023.4 23.3
11-10-2021 9:02 27o 13.34' ( 27.2223) 144o 24.48' (-144.4080) 8.5 26.8 148.4 12.7 23.1 155.0 1023.6 23.3
11-10-2021 8:32 27o 9.51' ( 27.1586) 144o 26.59' (-144.4432) 8.4 23.4 132.5 11.6 23.1 155.8 1023.7 23.4
11-10-2021 8:02 27o 5.70' ( 27.0949) 144o 28.77' (-144.4796) 8.8 25.0 142.7 11.9 23.3 155.5 1023.7 23.6
11-10-2021 7:32 27o 1.79' ( 27.0298) 144o 30.98' (-144.5163) 8.8 24.8 133.6 14.5 23.5 155.4 1023.7 23.9
11-10-2021 7:02 26o 57.91' ( 26.9652) 144o 33.19' (-144.5532) 8.7 25.4 135.9 14.6 23.3 155.0 1023.6 24.0
11-10-2021 6:32 26o 53.93' ( 26.8989) 144o 35.44' (-144.5907) 9.0 27.1 135.3 13.6 23.4 155.1 1023.7 24.0
11-10-2021 6:02 26o 50.02' ( 26.8336) 144o 37.85' (-144.6309) 8.8 30.5 127.6 12.5 23.6 155.2 1023.7 24.0
11-10-2021 5:32 26o 46.07' ( 26.7678) 144o 39.86' (-144.6643) 8.6 24.1 141.0 12.8 23.0 155.0 1023.6 23.9
11-10-2021 5:02 26o 43.49' ( 26.7249) 144o 40.11' (-144.6685) 5.9 141.8 134.2 10.2 23.3 154.0 1023.3 23.8
11-10-2021 4:32 26o 43.98' ( 26.7330) 144o 42.46' (-144.7076) 5.9 47.8 137.4 13.4 24.0 155.0 1023.3 23.8
11-10-2021 4:02 26o 42.10' ( 26.7017) 144o 41.51' (-144.6918) 4.8 205.4 147.7 11.9 23.1 155.2 1022.9 23.8
11-10-2021 3:32 26o 43.44' ( 26.7239) 144o 41.68' (-144.6946) 0.3 159.9 150.7 11.8 23.0 155.4 1022.8 23.8
11-10-2021 3:02 26o 43.44' ( 26.7240) 144o 41.59' (-144.6931) 0.4 175.4 148.0 12.8 23.1 156.3 1022.4 23.8
11-10-2021 2:32 26o 43.45' ( 26.7241) 144o 41.50' (-144.6917) 0.3 175.1 165.2 12.9 23.4 155.9 1022.2 23.8
11-10-2021 2:02 26o 43.45' ( 26.7242) 144o 41.44' (-144.6907) 0.3 176.2 159.6 13.3 23.3 156.1 1022.0 23.8
11-10-2021 1:32 26o 43.45' ( 26.7242) 144o 41.44' (-144.6907) 0.3 175.1 154.8 12.7 23.5 155.8 1021.7 23.8
11-10-2021 1:02 26o 43.45' ( 26.7242) 144o 41.45' (-144.6908) 0.3 174.9 155.9 14.5 23.6 154.0 1021.3 23.8
11-10-2021 0:32 26o 43.45' ( 26.7242) 144o 41.44' (-144.6907) 0.2 176.0 160.1 15.0 23.5 153.5 1021.5 23.8
11-10-2021 0:02 26o 43.45' ( 26.7241) 144o 41.45' (-144.6908) 0.3 175.1 167.2 15.4 23.5 153.4 1021.5 23.8
11-9-2021 23:32 26o 43.44' ( 26.7241) 144o 41.44' (-144.6907) 0.3 173.2 164.1 13.7 23.4 153.4 1021.6 23.8
11-9-2021 23:02 26o 43.44' ( 26.7241) 144o 41.43' (-144.6906) 0.3 175.5 162.1 13.7 23.5 153.2 1021.8 23.8
11-9-2021 22:32 26o 43.44' ( 26.7241) 144o 41.44' (-144.6906) 0.3 170.4 162.6 12.9 23.5 152.4 1022.0 23.8
11-9-2021 22:02 26o 43.44' ( 26.7241) 144o 41.44' (-144.6907) 0.4 166.7 157.4 12.2 23.5 152.6 1022.1 23.8
11-9-2021 21:32 26o 43.44' ( 26.7241) 144o 41.44' (-144.6906) 0.2 161.2 177.5 11.7 22.5 152.9 1022.5 23.8
11-9-2021 21:02 26o 43.44' ( 26.7241) 144o 41.44' (-144.6906) 0.3 163.3 150.7 9.8 22.0 152.0 1022.9 23.9
11-9-2021 20:32 26o 43.44' ( 26.7241) 144o 41.44' (-144.6906) 0.3 165.1 168.6 10.4 22.3 152.0 1023.2 23.8
11-9-2021 20:02 26o 43.44' ( 26.7240) 144o 41.44' (-144.6906) 0.3 165.4 176.4 11.9 22.7 151.6 1023.5 23.8
11-9-2021 19:32 26o 43.46' ( 26.7244) 144o 41.43' (-144.6905) 1.5 198.6 167.6 10.8 22.2 153.0 1023.5 23.8
11-9-2021 19:02 26o 44.00' ( 26.7333) 144o 41.03' (-144.6839) 8.5 67.9 138.0 14.0 22.0 153.2 1023.4 23.9
11-9-2021 18:32 26o 42.17' ( 26.7028) 144o 45.36' (-144.7560) 8.7 66.4 168.7 8.6 22.0 152.3 1023.4 23.8
11-9-2021 18:02 26o 40.36' ( 26.6727) 144o 49.76' (-144.8293) 8.6 67.6 144.2 6.3 23.1 152.0 1023.0 23.8
11-9-2021 17:32 26o 38.54' ( 26.6423) 144o 54.10' (-144.9016) 8.6 68.1 168.8 6.6 23.4 153.3 1022.8 23.8
11-9-2021 17:02 26o 36.81' ( 26.6136) 144o 58.47' (-144.9746) 8.5 68.3 147.4 6.2 22.3 153.1 1022.3 23.9
11-9-2021 16:32 26o 34.77' ( 26.5795) 145o 3.39' (-145.0566) 11.4 67.8 123.0 9.3 21.9 152.9 1021.9 23.7
11-9-2021 16:02 26o 32.33' ( 26.5388) 145o 9.13' (-145.1521) 11.4 65.1 140.8 5.5 22.4 152.7 1021.5 23.9
11-9-2021 15:32 26o 29.80' ( 26.4967) 145o 14.85' (-145.2475) 11.5 64.3 149.4 4.9 22.5 152.0 1021.2 23.9
11-9-2021 15:02 26o 27.42' ( 26.4570) 145o 20.65' (-145.3441) 11.3 66.7 139.3 5.4 22.3 152.8 1020.9 23.9
11-9-2021 14:32 26o 25.13' ( 26.4188) 145o 26.45' (-145.4409) 11.4 68.3 139.2 4.7 22.2 153.6 1020.5 23.8
11-9-2021 14:02 26o 22.60' ( 26.3766) 145o 32.22' (-145.5370) 11.5 66.3 141.2 5.3 22.1 153.2 1020.2 23.9
11-9-2021 13:32 26o 20.19' ( 26.3365) 145o 38.03' (-145.6339) 11.5 66.5 130.5 5.2 22.0 153.1 1020.0 23.8
11-9-2021 13:02 26o 17.77' ( 26.2962) 145o 43.82' (-145.7303) 11.4 67.8 125.5 5.3 22.1 153.4 1019.9 23.7
11-9-2021 12:32 26o 15.34' ( 26.2557) 145o 49.57' (-145.8261) 11.4 65.2 125.9 5.2 22.2 153.6 1019.7 23.7
11-9-2021 12:02 26o 12.95' ( 26.2158) 145o 55.23' (-145.9206) 11.3 65.7 113.2 4.5 22.2 153.8 1019.7 23.8
11-9-2021 11:32 26o 10.57' ( 26.1761) 146o 1.01' (-146.0168) 11.4 66.6 116.1 5.2 22.2 153.9 1019.9 23.7
11-9-2021 11:02 26o 8.20' ( 26.1366) 146o 6.81' (-146.1136) 11.5 64.0 119.1 3.8 22.2 154.0 1020.1 23.7
11-9-2021 10:32 26o 5.67' ( 26.0945) 146o 12.56' (-146.2094) 11.4 63.3 127.8 4.4 22.3 153.8 1020.2 23.9
11-9-2021 10:02 26o 3.27' ( 26.0545) 146o 18.31' (-146.3051) 11.4 64.6 115.1 4.8 22.4 153.8 1020.3 23.7
11-9-2021 9:32 26o 0.92' ( 26.0153) 146o 24.06' (-146.4010) 11.4 65.9 122.9 4.5 22.4 154.2 1020.3 23.9
11-9-2021 9:02 25o 58.39' ( 25.9731) 146o 29.82' (-146.4970) 11.6 63.6 105.9 5.0 22.5 153.5 1020.3 23.9
11-9-2021 8:32 25o 56.00' ( 25.9333) 146o 35.61' (-146.5934) 11.3 64.5 100.7 4.0 22.6 154.0 1020.5 23.9
11-9-2021 8:02 25o 53.60' ( 25.8934) 146o 41.34' (-146.6891) 11.4 64.1 115.8 3.1 22.6 154.0 1020.6 23.9
11-9-2021 7:32 25o 51.16' ( 25.8527) 146o 47.07' (-146.7845) 11.5 63.9 132.8 1.9 22.7 155.5 1020.7 23.9
11-9-2021 7:02 25o 48.78' ( 25.8129) 146o 52.84' (-146.8806) 11.4 64.4 115.4 2.1 22.7 155.8 1020.7 24.0
11-9-2021 6:32 25o 46.34' ( 25.7723) 146o 58.54' (-146.9757) 11.6 61.8 90.3 0.7 22.8 156.1 1020.5 24.1
11-9-2021 6:02 25o 43.86' ( 25.7310) 147o 4.39' (-147.0731) 11.7 63.0 138.0 0.4 22.9 155.8 1020.3 24.1
11-9-2021 5:32 25o 41.42' ( 25.6903) 147o 10.21' (-147.1702) 11.5 64.2 245.0 0.4 22.8 155.4 1020.2 24.2
11-9-2021 5:02 25o 38.92' ( 25.6487) 147o 15.93' (-147.2656) 11.4 64.9 151.0 0.6 22.8 155.3 1020.0 24.1
11-9-2021 4:32 25o 36.54' ( 25.6090) 147o 21.69' (-147.3616) 11.4 64.4 48.8 0.8 22.9 155.8 1019.8 24.1
11-9-2021 4:02 25o 34.14' ( 25.5689) 147o 27.43' (-147.4571) 11.4 63.8 340.6 1.7 23.0 154.9 1019.4 24.1
11-9-2021 3:32 25o 31.76' ( 25.5293) 147o 33.18' (-147.5530) 11.5 64.1 332.9 1.6 23.0 154.5 1019.2 24.2
11-9-2021 1:32 25o 22.05' ( 25.3675) 147o 56.45' (-147.9409) 11.7 65.4 320.4 1.3 23.2 154.2 1018.1 24.3
11-9-2021 1:02 25o 19.53' ( 25.3254) 148o 2.30' (-148.0383) 11.7 64.3 311.4 0.9 23.1 153.5 1018.1 24.3
11-9-2021 0:32 25o 16.95' ( 25.2825) 148o 8.09' (-148.1349) 11.7 62.8 288.0 1.6 23.2 153.4 1018.0 24.3
11-9-2021 0:02 25o 14.51' ( 25.2419) 148o 13.92' (-148.2320) 11.6 65.0 19.1 1.0 23.2 155.2 1018.0 24.3
11-8-2021 23:32 25o 12.09' ( 25.2015) 148o 19.78' (-148.3297) 11.7 65.0 336.0 1.7 23.1 153.3 1018.0 24.4
11-8-2021 23:02 25o 9.65' ( 25.1608) 148o 25.66' (-148.4276) 11.8 66.5 352.2 1.3 23.0 153.0 1018.3 24.3
11-8-2021 22:32 25o 7.15' ( 25.1192) 148o 31.52' (-148.5254) 11.7 65.3 75.2 1.6 22.9 153.1 1018.6 24.4
11-8-2021 22:02 25o 4.63' ( 25.0771) 148o 37.40' (-148.6233) 11.9 67.1 45.4 1.4 22.9 153.0 1019.1 24.4
11-8-2021 21:32 25o 2.20' ( 25.0366) 148o 43.27' (-148.7212) 11.5 66.5 52.0 1.0 23.1 152.9 1019.6 24.5
11-8-2021 21:02 24o 59.74' ( 24.9957) 148o 49.08' (-148.8179) 11.5 64.6 114.0 1.0 23.1 152.8 1019.0 24.5
11-8-2021 20:32 24o 57.24' ( 24.9541) 148o 54.81' (-148.9134) 11.5 66.2 35.0 1.7 23.1 152.6 1020.0 24.5
11-8-2021 20:02 24o 54.90' ( 24.9151) 149o 0.57' (-149.0095) 11.5 66.6 91.2 1.8 23.1 153.0 1020.2 24.5
11-8-2021 19:32 24o 52.46' ( 24.8744) 149o 6.25' (-149.1042) 11.5 63.5 56.1 1.3 23.0 152.7 1020.5 24.4
11-8-2021 19:02 24o 49.97' ( 24.8328) 149o 11.90' (-149.1984) 11.3 64.4 35.5 2.7 23.0 152.4 1020.5 24.4
11-8-2021 18:02 24o 45.33' ( 24.7556) 149o 23.09' (-149.3848) 11.2 63.6 55.7 1.5 23.0 152.2 1020.3 24.4
11-8-2021 17:32 24o 42.92' ( 24.7153) 149o 28.64' (-149.4774) 11.3 64.7 59.7 1.8 23.0 152.5 1020.2 24.4
11-8-2021 17:02 24o 40.55' ( 24.6758) 149o 34.23' (-149.5704) 11.3 64.2 32.3 2.5 22.9 152.3 1019.9 24.4
11-8-2021 16:32 24o 38.28' ( 24.6379) 149o 39.84' (-149.6640) 11.2 66.3 35.7 3.3 22.8 152.3 1019.7 24.4
11-8-2021 16:02 24o 35.86' ( 24.5977) 149o 45.34' (-149.7557) 11.1 63.7 85.2 2.7 22.6 152.1 1019.4 24.4
11-8-2021 15:32 24o 33.42' ( 24.5570) 149o 50.77' (-149.8462) 11.1 63.7 33.4 3.5 22.8 152.8 1018.4 24.5
11-8-2021 15:02 24o 31.12' ( 24.5186) 149o 56.33' (-149.9388) 11.3 65.4 81.9 3.2 22.8 152.4 1019.0 24.4
11-8-2021 14:32 24o 28.80' ( 24.4799) 150o 1.95' (-150.0325) 11.3 63.5 54.1 5.7 22.8 152.4 1019.0 24.5
11-8-2021 14:02 24o 26.34' ( 24.4390) 150o 7.52' (-150.1253) 11.3 64.2 40.1 4.4 22.8 152.5 1018.9 24.5
11-8-2021 13:32 24o 24.01' ( 24.4002) 150o 13.11' (-150.2185) 11.2 64.5 68.2 3.7 22.8 152.1 1018.8 24.5
11-8-2021 13:02 24o 21.66' ( 24.3610) 150o 18.63' (-150.3105) 11.0 66.0 81.0 5.2 22.9 152.0 1018.8 24.5
11-8-2021 12:32 24o 19.35' ( 24.3226) 150o 24.18' (-150.4031) 11.3 64.9 55.6 5.4 23.0 152.1 1018.9 24.6
11-8-2021 12:02 24o 16.94' ( 24.2823) 150o 29.78' (-150.4963) 11.3 64.6 59.2 5.6 23.0 152.4 1019.1 24.5
11-8-2021 11:32 24o 14.49' ( 24.2415) 150o 35.41' (-150.5901) 11.4 65.9 47.5 5.6 23.1 152.2 1019.4 24.5
11-8-2021 11:02 24o 12.08' ( 24.2013) 150o 41.05' (-150.6842) 11.4 66.8 52.9 6.2 23.0 152.4 1019.6 24.5
11-8-2021 10:32 24o 9.63' ( 24.1605) 150o 46.69' (-150.7782) 11.4 65.6 58.9 7.4 23.3 152.0 1019.8 24.5
11-8-2021 10:02 24o 7.29' ( 24.1215) 150o 52.37' (-150.8729) 11.4 67.8 51.3 6.7 23.1 152.0 1020.0 24.6
11-8-2021 9:32 24o 4.93' ( 24.0822) 150o 58.04' (-150.9673) 11.3 64.4 52.4 4.9 23.2 152.0 1020.3 24.7
11-8-2021 9:02 24o 2.52' ( 24.0420) 151o 3.56' (-151.0594) 10.9 66.2 49.2 6.7 23.3 152.1 1020.5 24.9
11-8-2021 8:32 24o 0.27' ( 24.0045) 151o 8.95' (-151.1492) 10.8 65.8 61.3 7.2 23.6 152.1 1020.6 25.0
11-8-2021 8:02 23o 57.99' ( 23.9664) 151o 14.27' (-151.2378) 10.7 64.4 47.1 7.0 23.4 152.5 1020.6 25.1
11-8-2021 7:32 23o 55.76' ( 23.9293) 151o 19.54' (-151.3256) 10.7 63.9 45.4 7.4 23.4 152.6 1020.7 25.1
11-8-2021 7:02 23o 53.50' ( 23.8916) 151o 24.71' (-151.4119) 10.5 63.4 45.9 9.3 23.5 152.0 1020.6 25.1
11-8-2021 6:32 23o 51.28' ( 23.8547) 151o 29.98' (-151.4997) 10.7 63.7 54.5 8.2 23.5 152.0 1020.6 25.2
11-8-2021 6:02 23o 48.88' ( 23.8147) 151o 35.34' (-151.5890) 11.1 62.2 45.1 8.7 23.5 152.0 1020.5 25.3
11-8-2021 5:32 23o 46.63' ( 23.7771) 151o 40.92' (-151.6820) 11.2 66.1 48.8 6.8 23.7 151.0 1020.4 25.3
11-8-2021 5:02 23o 44.32' ( 23.7387) 151o 46.44' (-151.7740) 11.3 63.1 49.9 8.8 23.7 152.0 1020.3 25.3
11-8-2021 4:32 23o 41.81' ( 23.6968) 151o 51.91' (-151.8651) 11.2 63.5 44.6 8.7 23.7 152.0 1020.2 25.3
11-8-2021 4:02 23o 39.48' ( 23.6580) 151o 57.47' (-151.9579) 11.2 64.9 47.9 9.9 23.9 152.3 1020.0 25.4
11-8-2021 3:32 23o 37.06' ( 23.6176) 152o 2.99' (-152.0499) 11.2 63.0 19.0 6.7 23.7 151.9 1019.9 25.4
11-8-2021 3:02 23o 34.71' ( 23.5784) 152o 8.53' (-152.1421) 11.2 63.0 27.1 8.1 23.8 152.3 1019.8 25.5
11-8-2021 2:32 23o 32.31' ( 23.5384) 152o 14.05' (-152.2342) 11.2 65.0 22.1 8.2 23.8 152.0 1019.7 25.7
11-8-2021 2:02 23o 30.08' ( 23.5013) 152o 19.56' (-152.3260) 11.0 64.0 20.5 7.9 24.2 151.9 1019.6 25.7
11-8-2021 1:32 23o 27.72' ( 23.4621) 152o 24.97' (-152.4162) 11.0 63.8 40.6 8.0 24.1 152.0 1019.4 25.6
11-8-2021 1:02 23o 25.38' ( 23.4229) 152o 30.37' (-152.5062) 11.0 62.4 30.5 8.8 24.1 152.1 1019.4 25.5
11-8-2021 0:32 23o 23.02' ( 23.3837) 152o 35.71' (-152.5952) 11.1 62.4 43.9 7.4 24.0 152.1 1019.4 25.4
11-8-2021 0:02 23o 20.70' ( 23.3449) 152o 41.19' (-152.6866) 11.3 64.5 38.0 9.0 24.3 152.4 1019.4 25.8
11-7-2021 23:32 23o 18.38' ( 23.3064) 152o 46.87' (-152.7812) 11.6 64.8 42.4 8.3 24.1 152.7 1019.4 25.7
11-7-2021 23:02 23o 15.90' ( 23.2650) 152o 52.50' (-152.8750) 11.5 63.5 42.0 7.2 24.3 152.0 1019.8 25.7
11-7-2021 22:32 23o 13.44' ( 23.2240) 152o 58.19' (-152.9699) 11.4 63.6 45.5 7.2 24.2 152.9 1020.1 25.8
11-7-2021 22:02 23o 10.98' ( 23.1830) 153o 3.81' (-153.0634) 11.5 64.3 54.5 6.0 24.2 152.6 1020.4 25.8
11-7-2021 21:32 23o 8.56' ( 23.1427) 153o 9.47' (-153.1579) 11.6 64.5 57.7 4.8 24.4 152.6 1020.6 25.8
11-7-2021 21:02 23o 6.22' ( 23.1036) 153o 15.23' (-153.2538) 11.6 67.5 71.1 6.2 24.3 152.3 1021.0 25.6
11-7-2021 20:32 23o 3.69' ( 23.0615) 153o 20.90' (-153.3483) 11.6 65.0 72.2 5.9 24.4 152.1 1021.2 25.4
11-7-2021 20:02 23o 1.27' ( 23.0211) 153o 26.59' (-153.4432) 11.4 62.5 71.4 7.1 24.4 152.0 1021.3 25.4
11-7-2021 19:32 22o 58.78' ( 22.9797) 153o 32.24' (-153.5374) 11.4 62.5 66.4 8.8 24.3 151.7 1021.5 25.7
11-7-2021 19:02 22o 56.36' ( 22.9393) 153o 37.85' (-153.6308) 11.5 64.7 84.0 5.0 24.0 152.0 1021.5 25.7
11-7-2021 18:32 22o 53.93' ( 22.8988) 153o 43.52' (-153.7253) 11.4 64.9 67.8 10.6 24.2 152.0 1021.4 25.8
11-7-2021 18:02 22o 51.42' ( 22.8570) 153o 49.12' (-153.8186) 11.6 67.4 47.1 6.8 24.1 153.1 1021.2 25.8
11-7-2021 17:32 22o 49.08' ( 22.8181) 153o 54.85' (-153.9142) 11.7 67.8 45.9 7.2 24.0 153.6 1020.9 25.8
11-7-2021 17:02 22o 46.70' ( 22.7783) 154o 0.59' (-154.0099) 11.8 67.5 56.9 10.9 24.4 153.1 1020.5 25.8
11-7-2021 16:32 22o 44.15' ( 22.7358) 154o 6.47' (-154.1078) 12.0 66.9 44.6 8.5 24.1 154.0 1020.4 25.8
11-7-2021 16:02 22o 41.56' ( 22.6926) 154o 12.31' (-154.2052) 12.0 66.4 39.4 7.1 24.4 154.3 1020.1 25.8
11-7-2021 15:32 22o 39.13' ( 22.6521) 154o 18.26' (-154.3043) 12.0 66.9 49.5 9.4 24.0 153.0 1019.9 25.8
11-7-2021 15:02 22o 36.57' ( 22.6096) 154o 24.04' (-154.4007) 11.7 62.5 44.4 12.9 24.0 151.9 1019.6 25.8
11-7-2021 14:32 22o 33.89' ( 22.5649) 154o 29.69' (-154.4949) 11.9 62.3 43.5 10.5 24.6 152.1 1019.7 25.8
11-7-2021 14:02 22o 31.43' ( 22.5238) 154o 35.45' (-154.5909) 11.8 65.3 68.8 13.5 24.6 152.1 1019.8 25.8
11-7-2021 13:32 22o 29.07' ( 22.4844) 154o 41.33' (-154.6889) 12.0 66.2 76.5 9.9 24.6 151.8 1019.9 25.8
11-7-2021 13:02 22o 26.55' ( 22.4425) 154o 47.11' (-154.7851) 11.8 64.5 79.9 11.4 24.4 152.0 1020.2 25.6
11-7-2021 12:32 22o 24.10' ( 22.4017) 154o 52.85' (-154.8809) 11.7 63.6 84.7 10.9 24.1 151.2 1020.0 25.9
11-7-2021 12:02 22o 21.56' ( 22.3594) 154o 58.56' (-154.9759) 11.7 63.2 72.8 11.7 24.3 151.3 1020.5 25.8
11-7-2021 11:32 22o 19.07' ( 22.3178) 155o 4.31' (-155.0718) 11.8 64.0 74.4 10.6 24.3 151.3 1020.7 25.8
11-7-2021 11:02 22o 16.59' ( 22.2766) 155o 10.15' (-155.1692) 12.0 66.6 73.5 10.6 24.4 151.0 1020.9 25.8
11-7-2021 10:32 22o 14.01' ( 22.2336) 155o 15.91' (-155.2652) 11.8 63.9 68.4 11.0 24.4 150.7 1021.1 25.8
11-7-2021 10:02 22o 11.57' ( 22.1928) 155o 21.68' (-155.3613) 11.9 66.6 75.8 9.2 24.2 151.5 1021.2 25.8
11-7-2021 9:32 22o 9.11' ( 22.1518) 155o 27.44' (-155.4573) 11.6 63.6 88.4 16.3 23.5 151.9 1021.3 25.8
11-7-2021 9:02 22o 6.59' ( 22.1098) 155o 33.08' (-155.5513) 11.6 64.1 80.7 8.4 22.9 152.1 1021.4 25.8
11-7-2021 8:32 22o 4.21' ( 22.0701) 155o 38.66' (-155.6443) 11.0 64.4 71.8 19.2 22.9 152.5 1021.5 25.8
11-7-2021 8:02 22o 1.81' ( 22.0302) 155o 44.07' (-155.7345) 11.1 65.4 94.1 9.7 23.5 150.0 1021.5 25.8
11-7-2021 7:32 21o 59.53' ( 21.9922) 155o 49.53' (-155.8255) 11.2 66.1 70.6 12.5 24.1 151.0 1021.4 25.8
11-7-2021 7:02 21o 57.21' ( 21.9536) 155o 54.90' (-155.9151) 10.9 66.0 72.0 14.2 23.2 152.3 1021.4 25.8
11-7-2021 6:32 21o 54.90' ( 21.9149) 156o 0.21' (-156.0035) 10.8 66.0 84.8 12.7 22.0 152.9 1021.4 25.8
11-7-2021 6:02 21o 52.60' ( 21.8767) 156o 5.39' (-156.0899) 10.8 70.8 73.7 12.8 22.9 151.4 1021.0 25.8
11-7-2021 5:32 21o 50.41' ( 21.8402) 156o 10.62' (-156.1771) 10.8 68.2 59.1 14.3 23.5 152.2 1020.6 25.7
11-7-2021 5:02 21o 48.08' ( 21.8014) 156o 15.87' (-156.2644) 10.9 68.0 80.7 15.0 25.1 151.0 1020.2 25.7
11-7-2021 4:32 21o 45.77' ( 21.7629) 156o 21.18' (-156.3530) 11.0 68.5 87.3 16.6 25.0 151.9 1019.8 25.7
11-7-2021 4:02 21o 43.52' ( 21.7253) 156o 26.53' (-156.4422) 11.0 65.5 88.0 16.0 25.1 151.6 1019.4 25.6
11-7-2021 3:32 21o 41.20' ( 21.6867) 156o 31.70' (-156.5283) 10.6 65.5 79.3 18.5 25.1 151.3 1019.0 25.8
11-7-2021 3:02 21o 39.32' ( 21.6553) 156o 36.14' (-156.6023) 8.5 63.3 83.2 18.7 25.3 151.4 1018.7 25.8
11-7-2021 2:32 21o 37.48' ( 21.6247) 156o 40.29' (-156.6715) 8.5 65.4 83.3 17.6 25.5 151.7 1018.6 25.8
11-7-2021 2:02 21o 35.65' ( 21.5941) 156o 44.40' (-156.7400) 8.6 65.5 84.7 18.8 25.5 151.7 1018.3 25.8
11-7-2021 1:32 21o 33.82' ( 21.5637) 156o 48.55' (-156.8092) 8.5 65.1 86.1 20.0 25.5 151.8 1018.0 25.9
11-7-2021 1:02 21o 32.06' ( 21.5343) 156o 52.63' (-156.8772) 8.4 66.6 85.7 19.4 25.6 151.0 1018.0 25.9
11-7-2021 0:32 21o 30.32' ( 21.5054) 156o 56.73' (-156.9455) 8.4 68.1 75.8 21.7 25.4 151.6 1017.9 25.8
11-7-2021 0:02 21o 28.33' ( 21.4721) 157o 1.48' (-157.0246) 10.4 67.6 76.6 20.4 25.4 152.0 1017.9 25.8
11-6-2021 23:32 21o 26.01' ( 21.4335) 157o 6.56' (-157.1094) 10.7 65.6 86.5 19.2 25.5 151.9 1018.1 25.9
11-6-2021 23:02 21o 23.69' ( 21.3949) 157o 11.81' (-157.1968) 11.0 67.7 82.0 20.3 24.9 151.6 1018.2 26.0
11-6-2021 22:32 21o 21.54' ( 21.3590) 157o 17.17' (-157.2861) 10.7 68.8 79.9 21.0 24.6 152.1 1018.4 26.4
11-6-2021 22:02 21o 19.14' ( 21.3190) 157o 22.39' (-157.3731) 11.1 64.2 71.2 19.7 25.0 151.0 1018.7 25.9
11-6-2021 21:32 21o 16.85' ( 21.2808) 157o 27.84' (-157.4640) 11.3 67.0 68.1 18.4 24.8 151.8 1019.0 26.2
11-6-2021 21:02 21o 14.50' ( 21.2416) 157o 33.24' (-157.5540) 11.0 65.9 65.7 20.6 25.1 151.0 1019.3 26.3
11-6-2021 20:32 21o 12.83' ( 21.2138) 157o 39.00' (-157.6499) 11.7 80.6 55.1 17.2 25.1 152.2 1019.6 26.6
11-6-2021 20:02 21o 11.68' ( 21.1947) 157o 45.18' (-157.7530) 11.7 72.1 54.3 21.1 25.6 151.5 1019.6 26.6
11-6-2021 19:32 21o 11.57' ( 21.1929) 157o 51.09' (-157.8515) 11.3 131.2 68.6 22.3 26.4 151.6 1019.5 26.6
11-6-2021 19:02 21o 16.55' ( 21.2758) 157o 52.48' (-157.8747) 10.9 179.5 65.9 17.2 27.0 153.7 1019.6 26.6
11-6-2021 18:32 21o 18.90' ( 21.3150) 157o 52.67' (-157.8778) 0.6 216.9 47.0 9.4 26.1 152.6 1019.7 26.6
11-6-2021 18:02 21o 18.91' ( 21.3151) 157o 52.65' (-157.8774) 0.0 207.3 54.7 5.9 26.5 152.3 1019.3 26.6
11-6-2021 17:32 21o 18.91' ( 21.3151) 157o 52.65' (-157.8774) 0.0 207.3 60.1 10.9 25.6 152.2 1018.9 26.6
11-6-2021 17:02 21o 18.91' ( 21.3151) 157o 52.65' (-157.8774) 0.0 207.6 45.2 5.4 25.5 152.5 1018.6 26.6
11-6-2021 16:32 21o 18.91' ( 21.3151) 157o 52.65' (-157.8774) 0.0 207.6 33.1 2.7 25.0 153.0 1018.4 26.6
11-6-2021 16:02 21o 18.91' ( 21.3151) 157o 52.65' (-157.8774) 0.0 207.2 11.4 3.2 25.0 152.0 1018.2 26.6
11-6-2021 15:32 21o 18.91' ( 21.3151) 157o 52.65' (-157.8774) 0.0 207.6 54.0 9.4 25.0 153.7 1017.8 26.6
11-6-2021 15:02 21o 18.91' ( 21.3151) 157o 52.65' (-157.8774) 0.0 207.2 45.5 10.9 25.2 153.7 1017.7 26.6
11-6-2021 14:32 21o 18.91' ( 21.3151) 157o 52.65' (-157.8774) 0.0 207.5 60.7 7.1 25.3 154.2 1017.5 26.6
11-6-2021 14:02 21o 18.91' ( 21.3151) 157o 52.65' (-157.8774) 0.0 207.0 51.9 11.7 25.4 153.0 1017.5 26.6
11-6-2021 13:32 21o 18.91' ( 21.3151) 157o 52.65' (-157.8774) 0.0 207.2 55.3 3.7 25.1 154.0 1017.6 26.6
11-6-2021 13:02 21o 18.91' ( 21.3151) 157o 52.65' (-157.8774) 0.0 206.9 44.1 10.3 25.5 154.0 1017.7 26.6
11-6-2021 12:32 21o 18.91' ( 21.3151) 157o 52.65' (-157.8774) 0.0 207.9 44.7 10.3 25.4 154.8 1018.0 26.6
11-6-2021 12:02 21o 18.91' ( 21.3151) 157o 52.65' (-157.8775) 0.0 208.1 68.7 6.6 25.6 154.8 1018.2 26.6
11-6-2021 11:32 21o 18.91' ( 21.3151) 157o 52.65' (-157.8774) 0.0 207.6 45.8 9.7 25.6 155.0 1018.4 26.6
11-6-2021 11:02 21o 18.91' ( 21.3151) 157o 52.65' (-157.8774) 0.0 207.4 38.2 7.0 25.5 154.0 1018.4 26.6
11-6-2021 10:32 21o 18.91' ( 21.3151) 157o 52.65' (-157.8774) 0.0 207.4 19.3 8.4 25.8 154.5 1018.5 26.6
11-6-2021 10:02 21o 18.91' ( 21.3151) 157o 52.65' (-157.8775) 0.0 207.5 48.1 6.8 25.8 154.9 1018.7 26.6
11-6-2021 9:32 21o 18.91' ( 21.3151) 157o 52.65' (-157.8775) 0.0 208.6 51.8 11.7 25.5 154.8 1018.0 26.6
11-6-2021 9:02 21o 18.91' ( 21.3151) 157o 52.65' (-157.8774) 0.0 207.0 41.2 8.8 25.5 154.0 1018.7 26.6
11-6-2021 8:32 21o 18.91' ( 21.3151) 157o 52.65' (-157.8775) 0.0 207.5 47.2 11.8 25.6 154.4 1018.7 26.7
11-6-2021 8:02 21o 18.91' ( 21.3151) 157o 52.65' (-157.8774) 0.0 207.6 34.6 10.3 25.5 154.4 1018.7 26.7
11-6-2021 7:32 21o 18.91' ( 21.3151) 157o 52.65' (-157.8774) 0.0 207.3 45.6 10.0 25.6 154.4 1018.5 26.7
11-6-2021 7:02 21o 18.91' ( 21.3151) 157o 52.65' (-157.8774) 0.0 207.5 32.6 5.3 25.4 154.4 1018.0 26.7
11-6-2021 6:32 21o 18.91' ( 21.3151) 157o 52.65' (-157.8774) 0.0 207.4 46.9 12.6 25.4 154.3 1018.2 26.7
11-6-2021 6:02 21o 18.91' ( 21.3151) 157o 52.65' (-157.8774) 0.0 207.3 57.2 13.3 25.6 154.1 1018.0 26.7
11-6-2021 5:32 21o 18.91' ( 21.3151) 157o 52.65' (-157.8775) 0.0 207.8 59.0 7.6 25.8 154.7 1017.8 26.7
11-6-2021 5:02 21o 18.91' ( 21.3151) 157o 52.65' (-157.8775) 0.0 208.2 70.7 9.3 25.8 154.5 1017.2 26.7
11-6-2021 4:32 21o 18.91' ( 21.3151) 157o 52.65' (-157.8775) 0.0 207.4 76.5 9.8 25.8 154.5 1016.8 26.7
11-6-2021 4:02 21o 18.91' ( 21.3151) 157o 52.65' (-157.8775) 0.0 208.1 57.3 11.8 26.0 155.0 1016.4 26.7
11-6-2021 3:32 21o 18.91' ( 21.3151) 157o 52.65' (-157.8775) 0.0 208.2 66.4 7.1 26.8 155.1 1016.3 26.7
11-6-2021 3:02 21o 18.91' ( 21.3151) 157o 52.65' (-157.8774) 0.0 207.0 55.0 11.4 27.1 155.0 1015.8 26.7
11-6-2021 2:32 21o 18.91' ( 21.3151) 157o 52.65' (-157.8774) 0.0 207.3 58.7 15.3 27.5 155.0 1015.0 26.7
11-6-2021 2:02 21o 18.91' ( 21.3151) 157o 52.65' (-157.8775) 0.0 208.6 43.3 13.9 27.6 154.8 1015.3 26.7
11-6-2021 1:32 21o 18.91' ( 21.3151) 157o 52.65' (-157.8775) 0.0 207.5 48.3 14.0 27.6 155.0 1015.3 26.7
11-6-2021 1:02 21o 18.91' ( 21.3151) 157o 52.65' (-157.8775) 0.0 208.0 48.9 17.0 27.9 154.9 1015.4 26.7
11-6-2021 0:32 21o 18.91' ( 21.3151) 157o 52.65' (-157.8775) 0.0 208.0 55.4 12.2 27.2 154.8 1015.7 26.7
11-6-2021 0:02 21o 18.91' ( 21.3151) 157o 52.65' (-157.8775) 0.0 207.7 42.5 12.5 28.1 154.8 1015.9 26.7
11-5-2021 23:32 21o 18.91' ( 21.3151) 157o 52.65' (-157.8775) 0.0 208.1 54.3 16.3 28.5 154.8 1015.5 26.7
11-5-2021 23:02 21o 18.91' ( 21.3151) 157o 52.65' (-157.8775) 0.0 207.6 63.2 9.0 27.6 155.2 1015.9 26.7
11-5-2021 22:32 21o 18.91' ( 21.3151) 157o 52.65' (-157.8775) 0.0 208.4 60.1 13.2 28.0 155.2 1016.8 26.6
11-5-2021 22:02 21o 18.91' ( 21.3151) 157o 52.65' (-157.8775) 0.0 207.5 67.1 12.0 27.9 155.1 1017.2 26.6
11-5-2021 21:32 21o 18.91' ( 21.3151) 157o 52.65' (-157.8775) 0.0 207.9 40.4 10.5 27.9 155.1 1017.5 26.6
11-5-2021 21:02 21o 18.91' ( 21.3151) 157o 52.65' (-157.8775) 0.0 207.8 84.3 9.4 28.6 154.9 1017.8 26.6
11-5-2021 20:32 21o 18.91' ( 21.3151) 157o 52.65' (-157.8775) 0.0 207.7 89.8 10.5 27.7 155.0 1018.1 26.6
11-5-2021 20:02 21o 18.91' ( 21.3151) 157o 52.65' (-157.8775) 0.0 207.9 90.1 15.3 28.2 154.8 1018.4 26.6
11-5-2021 19:32 21o 18.91' ( 21.3151) 157o 52.65' (-157.8775) 0.0 208.0 92.3 16.6 28.5 154.7 1017.8 26.6
11-5-2021 18:02 21o 18.91' ( 21.3151) 157o 52.65' (-157.8775) 0.0 207.9 112.2 11.1 26.4 154.9 1017.3 26.7
11-5-2021 17:32 21o 18.91' ( 21.3151) 157o 52.65' (-157.8775) 0.0 208.7 98.4 7.1 26.4 154.5 1016.9 26.6
11-5-2021 17:02 21o 18.91' ( 21.3151) 157o 52.65' (-157.8775) 0.0 207.6 100.2 6.4 25.9 154.4 1016.9 26.6
11-5-2021 16:32 21o 18.91' ( 21.3151) 157o 52.65' (-157.8774) 0.0 207.3 86.2 8.4 26.1 154.6 1016.0 26.6
11-5-2021 16:02 21o 18.91' ( 21.3151) 157o 52.65' (-157.8774) 0.0 207.3 83.2 8.3 25.8 154.6 1017.0 26.6
11-5-2021 15:32 21o 18.91' ( 21.3151) 157o 52.65' (-157.8774) 0.0 207.5 79.9 7.0 25.8 154.4 1016.7 26.6
11-5-2021 15:02 21o 18.91' ( 21.3151) 157o 52.65' (-157.8774) 0.0 207.4 81.3 12.3 25.7 153.7 1016.8 26.6
11-5-2021 14:32 21o 18.91' ( 21.3151) 157o 52.65' (-157.8774) 0.0 207.5 91.5 16.0 25.5 153.5 1017.0 26.6
11-5-2021 14:02 21o 18.91' ( 21.3151) 157o 52.65' (-157.8774) 0.0 207.2 105.9 6.5 25.8 153.6 1016.9 26.6
11-5-2021 13:32 21o 18.91' ( 21.3151) 157o 52.65' (-157.8774) 0.0 206.9 96.9 8.5 25.5 153.6 1016.8 26.6
11-5-2021 13:02 21o 18.91' ( 21.3151) 157o 52.65' (-157.8774) 0.0 207.0 73.1 4.9 25.3 153.7 1016.9 26.6
11-5-2021 12:32 21o 18.91' ( 21.3151) 157o 52.65' (-157.8774) 0.0 207.6 63.2 7.8 24.8 153.0 1017.0 26.6
11-5-2021 12:02 21o 18.91' ( 21.3151) 157o 52.65' (-157.8774) 0.0 207.1 73.3 6.1 24.7 153.9 1017.3 26.6
11-5-2021 11:32 21o 18.91' ( 21.3151) 157o 52.65' (-157.8774) 0.0 207.5 59.3 5.3 25.3 153.7 1017.3 26.6
11-5-2021 11:02 21o 18.91' ( 21.3151) 157o 52.65' (-157.8775) 0.0 207.7 46.2 11.5 25.9 153.5 1017.4 26.6
11-5-2021 10:32 21o 18.91' ( 21.3151) 157o 52.65' (-157.8775) 0.0 208.0 47.8 9.1 25.8 153.0 1017.6 26.6
11-5-2021 10:02 21o 18.91' ( 21.3151) 157o 52.65' (-157.8774) 0.0 207.3 39.0 8.3 25.7 153.0 1017.9 26.6
11-5-2021 9:32 21o 18.91' ( 21.3151) 157o 52.65' (-157.8774) 0.0 206.9 36.6 4.6 25.6 153.8 1018.0 26.7
11-5-2021 9:02 21o 18.91' ( 21.3151) 157o 52.65' (-157.8775) 0.0 207.5 92.2 6.3 26.0 153.5 1018.1 26.7
11-5-2021 8:32 21o 18.91' ( 21.3151) 157o 52.65' (-157.8775) 0.0 207.9 49.4 7.8 26.6 154.5 1018.0 26.7
11-5-2021 8:02 21o 18.91' ( 21.3151) 157o 52.65' (-157.8775) 0.0 208.0 69.7 7.0 26.6 154.6 1017.8 26.7
11-5-2021 7:32 21o 18.91' ( 21.3151) 157o 52.65' (-157.8775) 0.0 208.1 73.9 9.1 26.6 154.6 1017.8 26.7
11-5-2021 7:02 21o 18.91' ( 21.3151) 157o 52.65' (-157.8775) 0.0 207.8 55.2 6.7 26.3 154.0 1017.7 26.7
11-5-2021 6:32 21o 18.91' ( 21.3151) 157o 52.65' (-157.8775) 0.0 207.6 55.2 7.2 26.3 154.2 1017.4 26.7
11-5-2021 6:02 21o 18.91' ( 21.3151) 157o 52.65' (-157.8775) 0.0 207.4 54.9 11.9 26.3 154.0 1017.1 26.7
11-5-2021 5:32 21o 18.91' ( 21.3151) 157o 52.65' (-157.8774) 0.0 206.9 41.7 9.1 26.1 154.4 1016.7 26.7
11-5-2021 5:02 21o 18.91' ( 21.3151) 157o 52.65' (-157.8774) 0.0 207.2 39.3 10.1 26.3 154.4 1016.5 26.7
11-5-2021 4:32 21o 18.91' ( 21.3151) 157o 52.65' (-157.8774) 0.0 207.1 41.8 12.3 26.2 154.7 1016.2 26.7
11-5-2021 4:02 21o 18.91' ( 21.3151) 157o 52.65' (-157.8775) 0.0 207.8 51.9 11.5 26.7 154.7 1015.9 26.7
11-5-2021 3:32 21o 18.91' ( 21.3151) 157o 52.65' (-157.8774) 0.0 207.1 44.8 12.9 27.1 154.7 1015.6 26.7
11-5-2021 3:02 21o 18.91' ( 21.3151) 157o 52.65' (-157.8775) 0.0 207.6 56.4 9.8 27.8 154.8 1015.5 26.7
11-5-2021 2:32 21o 18.91' ( 21.3151) 157o 52.65' (-157.8775) 0.0 208.0 50.1 9.8 28.4 154.8 1015.6 26.7
11-5-2021 2:02 21o 18.91' ( 21.3151) 157o 52.65' (-157.8775) 0.0 207.8 55.5 11.8 28.7 154.6 1015.3 26.7
11-5-2021 1:32 21o 18.91' ( 21.3151) 157o 52.65' (-157.8774) 0.0 206.9 49.3 12.4 28.1 154.6 1015.4 26.7
11-5-2021 1:02 21o 18.91' ( 21.3151) 157o 52.65' (-157.8775) 0.0 207.6 43.2 12.6 28.2 154.3 1015.4 26.7
11-5-2021 0:32 21o 18.91' ( 21.3151) 157o 52.65' (-157.8775) 0.0 207.4 61.0 14.0 29.1 154.1 1015.4 26.7
11-5-2021 0:02 21o 18.90' ( 21.3151) 157o 52.65' (-157.8775) 0.0 0.0 44.8 15.6 28.5 154.4 1015.6 26.7
11-4-2021 23:02 21o 18.91' ( 21.3151) 157o 52.65' (-157.8774) 0.0 207.5 42.9 10.9 28.3 153.0 1016.6 26.7
11-4-2021 22:32 21o 18.91' ( 21.3151) 157o 52.65' (-157.8775) 0.0 207.6 98.5 9.0 29.5 153.2 1016.5 26.7
11-4-2021 22:02 21o 18.91' ( 21.3151) 157o 52.65' (-157.8775) 0.0 207.9 54.3 15.0 27.2 153.4 1017.2 26.7
11-4-2021 21:32 21o 18.91' ( 21.3151) 157o 52.65' (-157.8775) 0.0 0.0 37.0 8.9 28.3 153.3 1017.3 26.7
11-4-2021 21:02 21o 18.91' ( 21.3151) 157o 52.65' (-157.8775) 0.0 0.0 60.8 14.6 28.4 153.4 1017.8 26.6
11-4-2021 20:32 21o 18.91' ( 21.3151) 157o 52.65' (-157.8775) 0.0 0.0 53.6 9.7 27.6 153.0 1018.1 26.6
11-4-2021 20:02 21o 18.91' ( 21.3151) 157o 52.65' (-157.8775) 0.0 0.0 72.7 2.1 27.3 152.3 1018.4 26.6
11-4-2021 19:08 21o 18.91' ( 21.3151) 157o 52.65' (-157.8775) 0.0 0.0 59.9 6.9 27.1 153.7 1018.2 26.6
11-4-2021 18:32 21o 18.91' ( 21.3151) 157o 52.65' (-157.8774) 0.0 207.2 89.4 3.8 26.2 153.8 1017.8 26.6
11-4-2021 18:02 21o 18.91' ( 21.3151) 157o 52.65' (-157.8774) 0.0 207.7 74.3 8.5 25.7 153.0 1017.5 26.6
11-4-2021 17:32 21o 18.91' ( 21.3151) 157o 52.65' (-157.8774) 0.0 207.9 66.3 8.2 25.6 153.5 1017.3 26.6
11-4-2021 17:02 21o 18.91' ( 21.3151) 157o 52.65' (-157.8774) 0.0 207.4 67.3 3.8 25.5 153.0 1017.1 26.6
11-4-2021 16:32 21o 18.91' ( 21.3151) 157o 52.65' (-157.8774) 0.0 208.1 58.3 9.4 25.4 153.7 1016.8 26.6
11-4-2021 16:02 21o 18.91' ( 21.3151) 157o 52.65' (-157.8774) 0.0 207.7 57.7 8.2 25.6 153.4 1016.5 26.6
11-4-2021 15:32 21o 18.91' ( 21.3151) 157o 52.65' (-157.8774) 0.0 207.8 51.6 10.8 25.6 153.8 1016.3 26.7
11-4-2021 15:02 21o 18.91' ( 21.3151) 157o 52.65' (-157.8774) 0.0 207.8 70.8 1.3 25.0 154.1 1016.1 26.7
11-4-2021 14:32 21o 18.91' ( 21.3151) 157o 52.65' (-157.8774) 0.0 208.0 18.3 2.2 25.3 153.9 1016.2 26.7
11-4-2021 14:02 21o 18.91' ( 21.3151) 157o 52.65' (-157.8774) 0.0 208.0 50.0 3.8 25.5 153.9 1016.3 26.7
11-4-2021 13:32 21o 18.91' ( 21.3151) 157o 52.65' (-157.8774) 0.0 207.8 32.0 4.2 25.4 154.0 1016.4 26.7
11-4-2021 13:02 21o 18.91' ( 21.3151) 157o 52.65' (-157.8775) 0.0 208.0 48.1 1.1 25.3 153.9 1016.5 26.7
11-4-2021 12:32 21o 18.91' ( 21.3151) 157o 52.65' (-157.8774) 0.0 207.9 11.9 0.5 25.4 153.0 1016.7 26.7
11-4-2021 12:02 21o 18.91' ( 21.3151) 157o 52.65' (-157.8774) 0.0 207.9 58.2 1.7 25.2 153.7 1017.0 26.7
11-4-2021 11:32 21o 18.91' ( 21.3151) 157o 52.65' (-157.8774) 0.0 208.2 12.7 2.1 25.5 153.8 1017.1 26.7
11-4-2021 11:02 21o 18.91' ( 21.3151) 157o 52.65' (-157.8774) 0.0 208.0 91.4 4.8 25.6 153.9 1017.3 26.7
11-4-2021 10:32 21o 18.91' ( 21.3151) 157o 52.65' (-157.8774) 0.0 207.6 91.9 4.0 25.0 153.9 1017.6 26.7
11-4-2021 10:02 21o 18.91' ( 21.3151) 157o 52.65' (-157.8774) 0.0 207.5 64.0 3.5 25.5 153.0 1017.9 26.7
11-4-2021 9:32 21o 18.91' ( 21.3151) 157o 52.65' (-157.8774) 0.0 207.9 43.8 2.9 25.5 153.0 1018.2 26.7
11-4-2021 9:02 21o 18.91' ( 21.3151) 157o 52.65' (-157.8774) 0.0 207.8 357.6 1.9 25.4 154.1 1018.2 26.8
11-4-2021 8:32 21o 18.91' ( 21.3151) 157o 52.65' (-157.8775) 0.0 207.4 68.8 3.1 25.9 154.1 1018.3 26.8
11-4-2021 8:02 21o 18.91' ( 21.3151) 157o 52.65' (-157.8775) 0.0 207.6 76.9 4.6 25.8 154.0 1018.3 26.8
11-4-2021 7:32 21o 18.91' ( 21.3151) 157o 52.65' (-157.8774) 0.0 208.3 49.8 6.2 25.8 153.8 1018.2 26.8
11-4-2021 7:02 21o 18.91' ( 21.3151) 157o 52.65' (-157.8775) 0.0 208.3 73.0 9.3 26.1 153.7 1018.2 26.8
11-4-2021 6:32 21o 18.91' ( 21.3151) 157o 52.65' (-157.8774) 0.0 207.3 78.4 4.4 26.0 153.0 1017.9 26.8
11-4-2021 6:02 21o 18.91' ( 21.3151) 157o 52.65' (-157.8774) 0.0 208.5 146.0 5.3 26.0 153.7 1017.7 26.8
11-4-2021 5:32 21o 18.91' ( 21.3151) 157o 52.65' (-157.8774) 0.0 207.4 23.6 2.5 25.8 153.6 1017.5 26.8
11-4-2021 5:02 21o 18.91' ( 21.3151) 157o 52.65' (-157.8774) 0.0 207.3 63.9 7.0 26.0 153.0 1017.2 26.8